[[[{"header":{"parameterUnit":"kt","parameterCategory":2,"dx":1,"dy":1,"la1":29.285339999999998,"la2":30.599998999999997,"lo1":-89.70041500000002,"lo2":-87.6738589999976,"nx":112,"ny":82,"refTime":"2022-10-26T18:00:00:Z","depth":0,"parameterNumber":1,"parameterNumberName":"U-component_of_WINDS"},"data":[4.823,4.7548,4.6836,4.6252,4.5667,4.5018,4.4434,4.3759,4.3208,4.2625,4.2074,4.1622,4.1322,4.1199,4.1026,4.0851,4.0617,4.0432,0.0,4.0144,0.0,0.0,0.0,0.0,0.0,0.0,4.3998,4.652,4.9074,5.1735,5.436,5.7018,5.967,6.233,6.5024,6.7737,7.0498,7.3198,7.5519,7.7348,7.8536,7.9612,8.0613,8.1613,8.2614,8.3652,8.4691,8.5767,8.6787,8.7826,8.8827,8.9885,9.0962,9.1397,9.1907,9.2341,9.2812,9.3283,9.3714,9.4184,9.4652,9.5082,9.5511,9.5977,9.6443,9.6908,9.7297,9.7609,9.7948,9.826,9.8562,9.8873,9.9174,9.9485,9.9823,10.0133,10.0442,10.0781,10.1089,10.139,10.1672,10.1986,10.2295,10.2562,10.2933,10.33,10.3698,10.3971,10.4318,10.466,10.4996,10.5275,10.5671,10.6154,10.6819,10.7613,10.8407,10.9165,10.996,11.0792,11.1533,11.2329,11.3162,11.3958,11.4754,11.5513,11.6347,11.6478,11.5664,11.4606,11.351,11.2411,4.8005,4.7318,4.6625,4.6006,4.5421,4.4795,4.4146,4.3587,4.294,4.2381,4.177,4.1388,4.105,4.086,4.0639,4.041,4.0203,4.0019,0.0,3.9696,3.9654,3.9647,0.0,0.0,0.0,4.085,4.333,4.5802,4.8349,5.0935,5.3517,5.6093,5.8677,6.1295,6.3909,6.6616,6.9335,7.1993,7.4272,7.6157,7.7249,7.8325,7.9326,8.0327,8.1328,8.2404,8.3385,8.4387,8.5426,8.6445,8.7484,8.8524,8.9564,9.0148,9.0694,9.1239,9.1784,9.2327,9.2833,9.3375,9.3917,9.442,9.496,9.55,9.6038,9.6576,9.699,9.7339,9.7678,9.8017,9.8327,9.8666,9.8938,9.9276,9.9615,9.9923,10.0262,10.06,10.087,10.1209,10.1522,10.1798,10.2035,10.2374,10.267,10.2997,10.3356,10.3628,10.3974,10.4315,10.4613,10.4927,10.5285,10.5803,10.6412,10.7206,10.8001,10.8795,10.9627,11.0497,11.1274,11.2107,11.2977,11.3773,11.4514,11.5311,11.622,11.6386,11.5532,11.4434,11.3297,11.2195,4.7765,4.7072,4.6347,4.5791,4.5202,4.4565,4.3893,4.3274,4.2774,4.219,4.1574,4.1117,4.0728,4.0458,4.026,4.0014,3.9833,0.0,0.0,3.9252,3.9196,3.9193,3.9205,3.9245,3.9437,4.0368,4.2765,4.5199,4.7626,5.0131,5.2631,5.5126,5.7742,6.0317,6.2925,6.5547,6.8149,7.0747,7.2986,7.4905,7.6018,7.696,7.7961,7.8961,8.0,8.1018,8.2057,8.3059,8.4076,8.5116,8.6156,8.7212,8.8231,8.891,8.9529,9.0109,9.0688,9.1267,9.1908,9.2524,9.3138,9.379,9.4403,9.5016,9.5627,9.6267,9.6727,9.7103,9.7441,9.778,9.8118,9.8427,9.8765,9.9066,9.9404,9.9705,10.0043,10.0388,10.0689,10.1027,10.1264,10.1539,10.1811,10.215,10.2408,10.2695,10.3015,10.3322,10.363,10.3932,10.4303,10.4578,10.4898,10.5415,10.6023,10.6817,10.7629,10.8461,10.9367,11.0237,11.105,11.192,11.2696,11.353,11.4344,11.5216,11.6087,11.6215,11.5336,11.4234,11.3055,11.1876,4.7616,4.6867,4.6203,4.5593,4.5,4.434,4.37,4.3063,4.2508,4.1954,4.1287,0.0,0.0,0.0,3.9883,3.9663,0.0,3.9206,3.899,3.8845,3.8775,3.8765,3.8748,3.8761,3.8929,3.9843,4.2163,4.4507,4.6936,4.9323,5.1779,5.4244,5.6818,5.935,6.1879,6.4422,6.6981,6.9499,7.1733,7.3651,7.4726,7.5666,7.6667,7.7668,7.8707,7.9723,8.0702,8.1704,8.2744,8.3798,8.4801,8.5818,8.6835,8.7588,8.8318,8.8996,8.9648,9.03,9.0989,9.1677,9.2392,9.3116,9.384,9.4554,9.5239,9.5886,9.6412,9.6825,9.7163,9.7501,9.7802,9.8178,9.8516,9.8816,9.9117,9.9455,9.9793,10.0131,10.0469,10.077,10.1043,10.1317,10.1625,10.1887,10.2141,10.2429,10.2748,10.3016,10.3323,10.3624,10.3956,10.4229,10.4548,10.4991,10.5598,10.6409,10.7314,10.8162,10.9031,10.988,11.0787,11.1599,11.2507,11.3319,11.4228,11.5078,11.595,11.6076,11.5156,11.405,11.2869,11.1649,4.7445,4.6764,4.6084,4.544,4.4798,4.4122,4.3517,4.2991,4.231,4.1675,0.0,0.0,0.0,0.0,0.0,0.0,3.9085,3.8843,3.8639,3.8479,3.8378,3.8296,3.8281,3.8306,3.8411,3.9235,4.1474,4.3819,4.6194,4.8548,5.0923,5.3344,5.5837,5.8343,6.0792,6.3312,6.5848,6.8323,7.0539,7.2394,7.3431,7.437,7.5408,7.6447,7.7424,7.8388,7.9365,8.0443,8.1458,8.2473,8.3476,8.4454,8.5395,8.6298,8.7099,8.7889,8.8614,8.9338,9.0128,9.0888,9.1648,9.2475,9.3233,9.4022,9.4779,9.5498,9.6098,9.6549,9.6881,9.7181,9.7519,9.782,9.819,9.849,9.8828,9.9166,9.9536,9.9874,10.0175,10.0475,10.0822,10.117,10.1401,10.1662,10.1914,10.22,10.2437,10.271,10.3015,10.3315,10.3557,10.3843,10.4161,10.4566,10.5115,10.6093,10.6977,10.7824,10.8731,10.9578,11.0426,11.1334,11.2219,11.3141,11.4086,11.4935,11.5783,11.5906,11.5008,11.3862,11.2677,11.1351,4.7258,4.6571,4.5891,4.5283,4.4675,4.4069,4.3423,0.0,4.2175,4.1532,0.0,4.0401,3.9978,0.0,0.0,3.9023,3.8717,3.8472,3.8232,3.8112,3.8013,3.789,3.7881,3.7881,3.7998,3.8811,4.0967,4.3153,4.5457,4.7756,5.01,5.2441,5.4869,5.7316,5.9759,6.2218,6.4653,6.7145,6.9358,7.1134,7.2171,7.3147,7.4147,7.516,7.6098,7.71,7.8113,7.9051,8.0091,8.1105,8.2081,8.3084,8.4061,8.5,8.5874,8.67,8.7535,8.8406,8.9194,9.0027,9.0927,9.1827,9.2658,9.3521,9.435,9.5175,9.585,9.6299,9.667,9.697,9.7304,9.7641,9.7941,9.8275,9.8612,9.8983,9.9321,9.9659,9.9992,10.0292,10.0601,10.0873,10.1139,10.1399,10.1575,10.1859,10.2139,10.2366,10.267,10.2931,10.3135,10.342,10.3774,10.4214,10.4762,10.5741,10.6661,10.7581,10.8428,10.9312,11.0232,11.1079,11.2024,11.2982,11.3903,11.4787,11.5671,11.5792,11.4891,11.3668,11.234,11.1077,4.7133,4.6451,4.577,4.5126,4.4555,4.3947,0.0,0.0,0.0,4.1419,4.0708,4.0194,3.9741,3.9386,3.904,3.8697,3.8385,3.8119,3.7918,3.7727,3.7625,3.7509,3.7472,3.7446,3.7577,3.8372,4.0407,4.252,4.468,4.6972,4.9273,5.1533,5.392,5.6286,5.8722,6.1101,6.3477,6.5964,6.8137,6.9872,7.0946,7.1883,7.2857,7.3831,7.4805,7.5806,7.678,7.7717,7.8756,7.9768,8.0743,8.1718,8.2759,8.3704,8.4641,8.5541,8.6485,8.7459,8.829,8.9226,9.0238,9.1141,9.2115,9.3013,9.3949,9.4813,9.5562,9.6084,9.6418,9.6718,9.709,9.7424,9.7761,9.8095,9.8395,9.8767,9.9138,9.9475,9.9809,10.0109,10.038,10.065,10.0877,10.1098,10.1276,10.1518,10.1796,10.2022,10.2325,10.2585,10.2787,10.3034,10.3349,10.3863,10.441,10.5329,10.6285,10.7242,10.8088,10.9007,11.0,11.0883,11.1765,11.2721,11.3678,11.4597,11.5517,11.5635,11.4667,11.3403,11.2101,11.0835,4.7067,4.6427,4.5716,4.508,4.4477,0.0,0.0,4.2493,4.1858,4.1223,4.0623,4.0055,3.9541,3.9143,3.8791,3.8491,3.8177,3.7874,3.7611,3.7391,3.7229,3.7153,3.709,3.7042,3.7118,3.785,3.985,4.1882,4.3984,4.6207,4.8427,5.0698,5.2948,5.5251,5.7665,6.004,6.2412,6.4745,6.6814,6.8609,6.9655,7.0553,7.1525,7.2497,7.3497,7.4507,7.5442,7.6377,7.7454,7.8427,7.9437,8.041,8.1457,8.2393,8.3403,8.4381,8.5391,8.6439,8.7411,8.8458,8.9471,9.0481,9.149,9.2537,9.3547,9.4519,9.5267,9.5753,9.6089,9.6387,9.676,9.7132,9.7505,9.7914,9.8249,9.8548,9.8883,9.9254,9.9626,9.9959,10.023,10.0426,10.0652,10.0834,10.1011,10.1251,10.1528,10.1753,10.198,10.2201,10.2439,10.2685,10.2962,10.338,10.4057,10.4976,10.5872,10.6864,10.7782,10.8737,10.9692,11.0647,11.1602,11.2521,11.3448,11.4402,11.532,11.5474,11.4465,11.3234,11.1823,11.0517,4.7132,4.6463,4.5765,4.5102,4.4439,0.0,4.3143,4.2412,4.1753,4.1124,4.0496,3.9913,3.9379,3.8977,3.862,3.8283,3.7948,3.7595,3.735,3.7058,3.6894,3.6787,3.6734,3.6661,3.6712,3.7397,3.9313,4.13,4.3333,4.5475,4.765,4.9877,5.2028,5.4251,5.6585,5.8916,6.1246,6.3535,6.5589,6.7343,6.8351,6.9284,7.0255,7.1225,7.2196,7.3167,7.4137,7.5108,7.6116,7.7086,7.8057,7.9065,8.0035,8.1081,8.2163,8.3283,8.4366,8.5448,8.6531,8.7613,8.877,8.9816,9.0936,9.2018,9.3138,9.4183,9.4967,9.5491,9.5828,9.6164,9.6501,9.6837,9.7247,9.7656,9.7992,9.8326,9.8623,9.9033,9.9404,9.9738,10.0008,10.0239,10.039,10.0532,10.0746,10.0984,10.1223,10.1408,10.1634,10.1855,10.2091,10.2335,10.2481,10.2991,10.3608,10.46,10.5591,10.6582,10.7475,10.8465,10.9393,11.0383,11.1373,11.2363,11.3316,11.4239,11.5229,11.5381,11.4331,11.3061,11.1646,11.0264,4.7263,4.6576,4.5925,4.5199,4.4446,0.0,4.3173,4.2462,4.1741,4.1018,4.0367,3.9806,3.9286,3.8806,3.8443,3.8064,3.7673,3.7347,3.7069,3.6813,3.6582,3.6484,3.6367,3.6301,3.6371,3.7011,3.877,4.0688,4.2661,4.472,4.683,4.9014,5.1084,5.3263,5.5478,5.7766,6.0039,6.235,6.4335,6.6048,6.7054,6.8023,6.8991,6.9922,7.0854,7.1828,7.2797,7.3839,7.4807,7.5808,7.674,7.7675,7.8643,7.9794,8.0986,8.218,8.337,8.4488,8.5643,8.6835,8.8102,8.9182,9.0337,9.1568,9.276,9.3841,9.4661,9.53,9.5638,9.5976,9.6313,9.665,9.6987,9.736,9.7695,9.8031,9.8366,9.8776,9.922,9.9554,9.9748,9.9941,10.009,10.0268,10.0517,10.068,10.0917,10.1064,10.1288,10.1545,10.1705,10.1949,10.2093,10.2602,10.3255,10.4282,10.5249,10.6213,10.7166,10.8192,10.919,11.0179,11.1138,11.22,11.3188,11.4072,11.5169,11.5355,11.4266,11.2847,11.1463,10.9968,4.7484,4.6789,4.6112,4.5338,0.0,0.0,4.315,4.2454,4.1743,4.1005,4.03,3.9699,3.9159,3.8674,3.8252,3.7874,3.7486,3.709,3.6776,3.6519,3.6293,3.6167,3.6023,3.5899,3.5957,3.6543,3.8219,4.0055,4.1999,4.3976,4.6006,4.8109,5.0172,5.2294,5.4503,5.6673,5.8941,6.1172,6.3143,6.475,6.5791,6.6757,6.7693,6.8659,6.9588,7.0591,7.1557,7.2523,7.3526,7.4458,7.5423,7.6352,7.7317,7.8542,7.9768,8.1068,8.2294,8.3595,8.4822,8.6088,8.7315,8.8542,8.9769,9.1074,9.2339,9.3534,9.439,9.4952,9.5332,9.571,9.6048,9.6386,9.6762,9.7099,9.7473,9.7809,9.8181,9.8553,9.8961,9.9295,9.9488,9.9679,9.9864,10.0081,10.0251,10.0375,10.0573,10.0756,10.0979,10.1197,10.1357,10.1562,10.1742,10.225,10.2902,10.3904,10.4868,10.593,10.6929,10.7954,10.8913,10.9871,11.0931,11.1923,11.2982,11.3935,11.5031,11.5214,11.4121,11.2662,11.1239,10.974,4.783,0.0,0.0,0.0,0.0,0.0,4.3243,4.2526,4.1745,4.102,4.0255,3.9619,3.9035,3.8548,3.8072,3.7659,3.7275,3.6922,3.6531,3.6245,3.6027,3.5836,3.5672,3.5525,3.5523,3.6068,3.7699,3.9473,4.1315,4.3229,4.5178,4.72,4.9279,5.1335,5.3488,5.5615,5.7767,5.9993,6.1885,6.3487,6.4525,6.5527,6.6459,6.7422,6.8349,6.9279,7.0242,7.1169,7.2133,7.3133,7.4096,7.5059,7.5984,7.7281,7.8578,7.9912,8.1285,8.2619,8.3994,8.5296,8.6594,8.7897,8.9233,9.0612,9.1912,9.318,9.4115,9.4678,9.506,9.544,9.5742,9.6195,9.6535,9.6873,9.7285,9.7622,9.7958,9.833,9.8666,9.9036,9.9228,9.9418,9.964,9.9817,9.9985,10.0114,10.023,10.0411,10.0633,10.085,10.0971,10.1212,10.1353,10.1801,10.2487,10.3549,10.4549,10.5584,10.6617,10.7647,10.8671,10.9662,11.0653,11.1747,11.2771,11.3902,11.4923,11.5031,11.3934,11.2508,11.0934,10.9466,0.0,0.0,0.0,4.5905,4.5066,4.4276,4.3466,4.2597,4.1816,4.1012,4.0202,3.9558,3.8936,3.8428,3.7955,3.7495,3.7069,3.6688,3.6343,3.6029,3.5785,3.5568,3.5379,3.5265,3.5155,3.5646,3.723,3.8901,4.0661,4.2494,4.4361,4.6324,4.8323,5.0335,5.2371,5.448,5.659,5.8774,6.0631,6.2258,6.3294,6.4224,6.5185,6.6109,6.6999,6.7997,6.8922,6.9883,7.0806,7.1803,7.28,7.3684,7.4606,7.5974,7.7381,7.8821,8.0229,8.1601,8.3085,8.4496,8.5829,8.7278,8.8729,9.0063,9.1478,9.2783,9.3829,9.4474,9.4858,9.5161,9.5506,9.5887,9.623,9.6608,9.7059,9.7435,9.7772,9.8145,9.8518,9.8851,9.9042,9.9231,9.9377,9.9552,9.9718,9.9847,9.9998,10.0103,10.025,10.0413,10.0659,10.0806,10.1002,10.1448,10.2097,10.3133,10.413,10.5199,10.6303,10.7368,10.8395,10.9489,11.0477,11.1535,11.2592,11.3647,11.4774,11.4914,11.3777,11.235,11.0771,10.9299,4.8674,4.7841,4.6993,4.6188,4.533,4.4466,4.3598,4.271,4.1892,4.1067,4.0218,3.953,3.8891,3.833,3.7822,3.7363,3.6902,3.6485,3.6064,3.5755,3.5445,3.5198,3.4988,3.4886,3.4763,3.518,3.6696,3.8246,3.9886,4.1657,4.3442,4.5323,4.724,4.9195,5.1186,5.3178,5.5243,5.7345,5.9189,6.0848,6.1881,6.2806,6.3764,6.465,6.5608,6.6566,6.7524,6.8443,6.9437,7.0354,7.1347,7.2267,7.3182,7.4699,7.6176,7.7691,7.9207,8.0688,8.2207,8.3727,8.5248,8.677,8.8257,8.9744,9.1232,9.2648,9.3694,9.4378,9.4727,9.5075,9.5421,9.5809,9.6152,9.6531,9.6946,9.7322,9.766,9.8033,9.8368,9.8666,9.8892,9.9044,9.9151,9.9291,9.9458,9.9624,9.9738,9.9806,9.9954,10.0044,10.029,10.0438,10.0598,10.1045,10.1731,10.2767,10.3874,10.4943,10.6084,10.7118,10.818,10.9277,11.0335,11.1428,11.2518,11.3607,11.4729,11.4979,11.3803,11.233,11.0828,10.9245,4.8953,4.8061,4.7235,4.6364,4.5486,4.4565,4.3703,4.2883,4.2045,4.1164,4.0283,3.9535,3.8858,3.8258,3.7749,3.7249,3.6746,3.6252,3.5797,3.5381,3.5042,3.4762,3.4559,3.4441,3.4326,3.4681,3.6095,3.7522,3.9078,4.073,4.2479,4.4252,4.6113,4.7986,4.9895,5.1871,5.3818,5.5838,5.7675,5.9291,6.032,6.1275,6.2194,6.3149,6.414,6.5094,6.6046,6.7036,6.7987,6.8899,6.9814,7.0767,7.1756,7.3338,7.4964,7.6586,7.8181,7.9814,8.1367,8.3033,8.4708,8.6303,8.7935,8.9533,9.1131,9.2703,9.3712,9.436,9.4674,9.5024,9.5453,9.5762,9.6106,9.649,9.6829,9.7209,9.7584,9.7921,9.8219,9.8478,9.8742,9.8931,9.8964,9.9067,9.9197,9.9326,9.9478,9.9558,9.9621,9.9727,9.9848,10.0052,10.0178,10.0665,10.1352,10.2438,10.3582,10.4724,10.5865,10.6899,10.8071,10.9204,11.0263,11.1391,11.2553,11.3676,11.4906,11.5113,11.3935,11.2503,11.1035,10.9379,4.89,4.8024,4.718,4.629,4.5435,4.457,4.373,4.2889,4.1996,4.1096,4.029,3.9511,3.8803,3.8161,3.7608,3.7023,3.6482,3.5986,3.5491,3.5073,3.4695,3.4383,3.4106,3.3915,3.376,3.4065,3.5283,3.6668,3.8065,3.9631,4.1297,4.2937,4.4715,4.6531,4.8356,5.0248,5.2179,5.4149,5.5904,5.744,5.85,5.9487,6.0438,6.1424,6.2372,6.3358,6.4381,6.5289,6.6311,6.7291,6.8239,6.9224,7.0282,7.1976,7.371,7.5447,7.7149,7.8927,8.0671,8.2491,8.4276,8.6016,8.7806,8.9597,9.1269,9.2915,9.4072,9.4768,9.5045,9.5358,9.5632,9.5985,9.6293,9.6562,9.6944,9.7283,9.7622,9.7884,9.8182,9.8439,9.863,9.8819,9.8854,9.8921,9.8984,9.9036,9.9125,9.9246,9.9276,9.9386,9.949,9.9627,9.9758,10.0214,10.0885,10.2145,10.3305,10.4523,10.5674,10.6924,10.8066,10.931,11.0552,11.1682,11.2918,11.4039,11.5305,11.5663,11.4521,11.3052,11.1549,10.9892,4.8798,4.7977,4.7113,4.6242,4.5365,4.4518,4.3703,4.2842,4.1932,4.1059,4.0239,3.9491,3.8774,3.8089,3.7452,3.6788,3.6209,3.5673,3.518,3.4686,3.4271,3.3933,3.3619,3.3393,3.3162,3.3387,3.4483,3.571,3.7109,3.8554,4.01,4.1647,4.3342,4.5074,4.6845,4.8655,5.0536,5.2424,5.4096,5.5586,5.6641,5.7659,5.8677,5.9695,6.0636,6.1653,6.2671,6.3652,6.4626,6.5643,6.6695,6.7712,6.8765,7.0647,7.2451,7.4304,7.615,7.8082,8.0008,8.1947,8.3841,8.5738,8.7637,8.9576,9.1442,9.3163,9.4442,9.5129,9.5416,9.5655,9.5892,9.6165,9.6442,9.6711,9.7016,9.7321,9.7622,9.7884,9.8107,9.8401,9.8553,9.8669,9.8743,9.8775,9.8728,9.8787,9.8843,9.893,9.9013,9.9005,9.9127,9.9195,9.9295,9.9758,10.0472,10.1809,10.3085,10.4319,10.562,10.688,10.8098,10.9416,11.0768,11.1973,11.3172,11.4478,11.5741,11.6134,11.5027,11.3558,11.2098,11.0558,4.8681,4.7879,4.6995,4.6141,4.532,4.4456,4.3622,4.2782,4.1894,4.104,4.0212,3.9459,3.8718,3.7995,3.7282,3.662,3.5967,3.5356,3.479,3.4308,3.3858,3.3449,3.3118,3.2856,3.2558,3.2649,3.366,3.4803,3.6082,3.7434,3.886,4.0426,4.2,4.368,4.5295,4.7055,4.8819,5.0659,5.2321,5.3766,5.4852,5.5865,5.6909,5.7921,5.8933,5.9945,6.0992,6.204,6.3088,6.4055,6.5138,6.6185,6.7232,6.9194,7.115,7.3182,7.5231,7.7271,7.9352,8.1352,8.3404,8.541,8.7468,8.9528,9.1542,9.3411,9.4727,9.5452,9.5741,9.5944,9.6189,9.6426,9.666,9.686,9.7053,9.7358,9.7622,9.7847,9.8106,9.8326,9.8478,9.8594,9.8594,9.8591,9.8582,9.8569,9.8589,9.8649,9.8699,9.8706,9.8783,9.8868,9.89,9.9369,10.0144,10.1484,10.2801,10.4075,10.5454,10.6828,10.8159,10.9521,11.0841,11.2264,11.3574,11.4842,11.6254,11.6606,11.5534,11.418,11.2683,11.1107,4.8589,4.7768,4.6932,4.6061,4.522,4.4378,4.3523,4.2741,4.1874,4.104,4.0198,3.9402,3.8648,3.7847,3.7136,3.6439,3.5712,3.5063,3.4435,3.3905,3.3433,3.2952,3.2585,3.227,3.1879,3.1968,3.2858,3.3911,3.5071,3.6304,3.7677,3.916,4.0682,4.2209,4.381,4.5452,4.7169,4.8854,5.0469,5.1943,5.302,5.4061,5.5138,5.6179,5.722,5.8297,5.9338,6.0343,6.142,6.2497,6.361,6.4651,6.5692,6.7772,6.9881,7.2068,7.426,7.6372,7.8647,8.0803,8.2964,8.5129,8.7296,8.9504,9.1678,9.3694,9.5097,9.5785,9.6074,9.6203,9.6405,9.6649,9.6846,9.7083,9.7202,9.7394,9.7659,9.7847,9.8068,9.8289,9.8404,9.8444,9.8445,9.8368,9.8362,9.8392,9.8378,9.8403,9.8381,9.8392,9.8484,9.845,9.8461,9.8937,9.9754,10.1138,10.2571,10.3939,10.5359,10.6809,10.8189,10.9589,11.1021,11.2409,11.3829,11.5317,11.6726,11.7113,11.6121,11.473,11.3305,11.1809,4.8458,4.7643,4.6862,4.6009,4.515,4.4313,4.3485,4.2718,4.187,4.1016,4.016,3.9399,3.8593,3.772,3.6934,3.6239,3.5485,3.4762,3.4123,3.3532,3.3025,3.2507,3.2067,3.1665,3.1238,3.1236,3.2105,3.3041,3.408,3.5227,3.6551,3.7916,3.9285,4.0764,4.2283,4.3841,4.5513,4.708,4.8616,5.008,5.122,5.2289,5.3322,5.4434,5.5503,5.6608,5.7678,5.8676,5.9781,6.0935,6.2041,6.3111,6.4145,6.6366,6.863,7.0937,7.325,7.5554,7.7864,8.0179,8.2499,8.4846,8.716,8.9442,9.18,9.3977,9.5418,9.6155,9.6287,9.65,9.6665,9.6835,9.7032,9.727,9.7351,9.7545,9.7697,9.7921,9.8068,9.8286,9.8326,9.833,9.8295,9.8182,9.818,9.8172,9.8164,9.8117,9.8099,9.8121,9.8105,9.8039,9.8017,9.8498,9.9269,10.075,10.2243,10.3858,10.5297,10.6763,10.8283,10.973,11.12,11.2627,11.4194,11.5754,11.7234,11.7657,11.6664,11.5273,11.3855,11.2467,4.8339,4.7505,4.6703,4.5857,4.5056,4.4236,4.3421,4.2599,4.1808,4.101,4.0212,3.9373,3.8555,3.7647,3.6835,3.607,3.5234,3.4488,3.3814,3.3171,3.2538,3.1984,3.1472,3.1027,3.06,3.0569,3.1288,3.2142,3.3102,3.4133,3.5342,3.6589,3.7876,3.931,4.0676,4.2189,4.3814,4.5339,4.6829,4.8211,4.9383,5.0478,5.1573,5.2713,5.3774,5.4916,5.6013,5.7075,5.8221,5.9319,6.0452,6.1514,6.2594,6.5005,6.7425,6.9836,7.2256,7.4683,7.7188,7.9612,8.2092,8.4599,8.7023,8.9538,9.2008,9.4296,9.5775,9.6514,9.6694,9.6788,9.6962,9.7051,9.7218,9.734,9.7463,9.758,9.7734,9.7884,9.7993,9.8174,9.8176,9.8179,9.8107,9.8034,9.7995,9.7954,9.7911,9.7829,9.7819,9.7764,9.7713,9.7659,9.7641,9.8091,9.8955,10.045,10.204,10.3679,10.5197,10.6741,10.8275,10.9864,11.1379,11.2954,11.4521,11.6154,11.7706,11.8165,11.7171,11.5859,11.4477,11.3132,4.8167,4.7352,4.6531,4.5741,4.4945,4.4143,4.3386,4.2534,4.1763,4.0986,4.0239,3.9399,3.8495,3.7555,3.6673,3.5837,3.4966,3.4167,3.3459,3.2763,3.208,3.1456,3.0874,3.0397,2.9898,2.9769,3.0374,3.1184,3.21,3.3052,3.4147,3.528,3.6525,3.7845,3.9133,4.0604,4.2112,4.3591,4.4998,4.6367,4.7494,4.8657,4.9822,5.0907,5.2075,5.321,5.4346,5.5469,5.6644,5.7733,5.8857,6.0,6.1055,6.3586,6.6162,6.8731,7.1309,7.3895,7.6508,7.9092,8.1682,8.4262,8.6883,8.951,9.2178,9.4665,9.6181,9.6871,9.7017,9.7122,9.7177,9.7311,9.7404,9.7452,9.7612,9.7655,9.7771,9.7884,9.7956,9.8061,9.8061,9.7954,9.792,9.7847,9.7809,9.777,9.7655,9.7575,9.7531,9.7484,9.7361,9.7274,9.7259,9.7762,9.8584,10.0162,10.1816,10.346,10.5035,10.6656,10.8329,10.9967,11.1557,11.3209,11.4923,11.6517,11.8142,11.8708,11.7758,11.6483,11.5136,11.3754,4.804,4.7222,4.6398,4.5628,4.4814,4.4031,4.328,4.25,4.1698,4.0979,4.0203,3.9326,3.84,3.7426,3.6475,3.5531,3.4681,3.3831,3.3036,3.2306,3.1589,3.0894,3.0276,2.9699,2.916,2.8934,2.9464,3.0198,3.1071,3.1949,3.297,3.4058,3.5191,3.6399,3.7612,3.9003,4.0427,4.1798,4.3123,4.4487,4.5671,4.6789,4.799,4.9146,5.034,5.15,5.2612,5.3776,5.4941,5.609,5.7328,5.8498,5.967,6.2231,6.493,6.7586,7.0323,7.3016,7.5753,7.8535,8.1306,8.4048,8.6743,8.9568,9.231,9.4872,9.65,9.7204,9.7228,9.7334,9.7437,9.7497,9.7547,9.7638,9.7724,9.773,9.7771,9.7921,9.7993,9.8024,9.7986,9.7877,9.7806,9.7696,9.7622,9.751,9.7434,9.7319,9.7239,9.7158,9.7079,9.6921,9.6841,9.7304,9.817,9.9869,10.1567,10.3238,10.4988,10.663,10.8392,11.0106,11.1808,11.3536,11.5214,11.6957,11.865,11.9252,11.8338,11.7142,11.5795,11.4376,4.7876,4.7075,4.6305,4.5494,4.4738,4.3939,4.3206,4.243,4.1685,4.0897,4.0156,3.9302,3.8328,3.725,3.627,3.5278,3.4378,3.346,3.2598,3.1799,3.1051,3.0286,2.96,2.8988,2.8382,2.8063,2.8552,2.9217,2.9983,3.0753,3.1698,3.2715,3.3812,3.4941,3.611,3.7353,3.8704,4.0029,4.135,4.2665,4.3883,4.5022,4.6212,4.7392,4.8607,4.9807,5.0993,5.2147,5.3338,5.451,5.5738,5.6934,5.8132,6.087,6.3693,6.6472,6.9315,7.2168,7.5032,7.7957,8.0891,8.3743,8.66,8.9537,9.2479,9.5152,9.6869,9.7574,9.7561,9.7631,9.7696,9.7676,9.7696,9.7787,9.7836,9.7804,9.7809,9.7921,9.7992,9.802,9.7908,9.7799,9.7654,9.7508,9.7435,9.7286,9.7173,9.7061,9.6946,9.6832,9.6717,9.6562,9.6409,9.6878,9.7787,9.9569,10.1299,10.3051,10.4917,10.6676,10.8418,11.0245,11.2023,11.3789,11.5579,11.7357,11.9122,11.9796,11.8962,11.7686,11.6418,11.5034,4.7692,4.691,4.6158,4.5365,4.4604,4.3862,4.309,4.2395,4.1648,4.0881,4.0106,3.9197,3.8213,3.7108,3.6006,3.5013,3.4045,3.3036,3.2145,3.128,3.0466,2.9668,2.8916,2.827,2.7567,2.719,2.7669,2.816,2.8831,2.957,3.0377,3.136,3.2414,3.3509,3.4633,3.5808,3.7012,3.8291,3.9564,4.0843,4.2081,4.3289,4.4468,4.5701,4.6955,4.8127,4.93,5.0565,5.1744,5.2925,5.4234,5.5363,5.6585,5.948,6.2393,6.5355,6.8322,7.1281,7.4379,7.7376,8.0438,8.3489,8.6547,8.9631,9.2631,9.5468,9.7187,9.7931,9.7968,9.7917,9.791,9.7861,9.7882,9.7899,9.7907,9.7916,9.7846,9.7884,9.7917,9.7983,9.787,9.7649,9.7502,9.7392,9.7246,9.7098,9.6986,9.6837,9.665,9.6499,9.6311,9.616,9.6009,9.6524,9.7442,9.9264,10.1115,10.2898,10.4825,10.6661,10.8541,11.0346,11.22,11.4042,11.5871,11.7794,11.9594,12.034,11.9506,11.831,11.7004,11.5735,4.7523,4.6795,4.5993,4.5219,4.4476,4.3792,4.3037,4.2277,4.15,4.0766,4.0087,3.9123,3.8094,3.6961,3.5855,3.4777,3.3672,3.2661,3.1677,3.0746,2.9869,2.9006,2.819,2.744,2.6632,2.6197,2.6605,2.707,2.7749,2.8374,2.9154,3.0064,3.1013,3.2,3.3104,3.4157,3.5328,3.6572,3.7811,3.8961,4.0231,4.1507,4.2739,4.3975,4.5163,4.6407,4.7656,4.8853,5.0143,5.1347,5.2611,5.3879,5.5125,5.8109,6.1087,6.4247,6.7375,7.0496,7.3687,7.6848,7.9982,8.3179,8.6439,8.956,9.2724,9.571,9.7504,9.8337,9.8302,9.825,9.8207,9.8159,9.8143,9.808,9.8056,9.8028,9.7996,9.7958,9.7954,9.7945,9.7758,9.757,9.7386,9.724,9.7093,9.6908,9.6685,9.6574,9.6388,9.6164,9.5977,9.5828,9.5678,9.6197,9.7121,9.8991,10.0915,10.278,10.4713,10.663,10.8566,11.0447,11.2414,11.4298,11.6273,11.8271,12.0103,12.0848,12.0123,11.9006,11.7664,11.6394,4.734,4.6594,4.5844,4.5125,4.4366,4.3636,4.2968,4.2161,4.1378,4.0627,4.0006,3.9045,3.7972,3.6814,3.5612,3.4482,3.3313,3.2239,3.1225,3.0197,2.9221,2.8294,2.7415,2.6568,2.5685,2.5194,2.5474,2.5981,2.6549,2.7151,2.7894,2.8749,2.9594,3.0508,3.1586,3.2561,3.3623,3.4806,3.5996,3.7144,3.8397,3.9657,4.0956,4.2176,4.3401,4.4663,4.5931,4.7203,4.848,4.9795,5.1082,5.2339,5.3572,5.6707,5.981,6.3132,6.6388,6.9636,7.2935,7.6282,7.956,8.2922,8.6292,8.9578,9.289,9.6041,9.791,9.8693,9.8622,9.8547,9.8504,9.8456,9.8322,9.8303,9.8206,9.8103,9.807,9.7996,9.7954,9.7908,9.7716,9.742,9.727,9.7087,9.6902,9.6678,9.6456,9.6308,9.6086,9.5861,9.5638,9.5453,9.5341,9.579,9.6757,9.8713,10.0722,10.2709,10.4636,10.6633,10.8649,11.0647,11.2627,11.4624,11.6601,11.8671,12.0575,12.1428,12.0784,11.9587,11.836,11.7053,4.7105,4.6416,4.5716,4.4978,4.4273,4.3527,4.2847,4.2126,4.1295,4.0564,3.9899,3.8913,3.7834,3.6573,3.5353,3.4161,3.2931,3.1796,3.0686,2.9599,2.853,2.7565,2.6582,2.5612,2.4724,2.4132,2.4396,2.4843,2.5349,2.5934,2.6611,2.7321,2.8116,2.9006,2.9964,3.0911,3.1897,3.3004,3.41,3.5249,3.6565,3.7838,3.9118,4.0407,4.1703,4.2981,4.4291,4.5549,4.6904,4.8239,4.9545,5.0824,5.2141,5.5334,5.8561,6.1978,6.5361,6.8773,7.2237,7.5727,7.9172,8.2607,8.6052,8.9578,9.3055,9.6282,9.8263,9.901,9.8905,9.8795,9.8716,9.8596,9.8508,9.8378,9.828,9.8178,9.807,9.7996,9.7917,9.7795,9.7604,9.7379,9.7154,9.6895,9.667,9.6483,9.6262,9.6041,9.5816,9.5519,9.5369,9.5148,9.4923,9.5414,9.6351,9.8429,10.0479,10.2585,10.4593,10.6615,10.8709,11.082,11.281,11.488,11.7003,11.9072,12.1163,12.2054,12.1365,12.0212,11.8983,11.7753,4.6784,4.6071,4.539,4.4669,4.3945,4.3252,4.2558,4.1893,4.1117,4.0406,3.9728,3.874,3.759,3.631,3.4962,3.3748,3.246,3.1232,3.0063,2.8952,2.7825,2.677,2.573,2.4706,2.3657,2.3017,2.3279,2.3646,2.4141,2.4667,2.5251,2.5975,2.6733,2.7555,2.8443,2.9368,3.0331,3.1312,3.2414,3.3567,3.4863,3.6201,3.7518,3.8821,4.0189,4.1478,4.2774,4.4109,4.5517,4.6901,4.8229,4.9497,5.09,5.4218,5.7634,6.1116,6.4628,6.8169,7.1739,7.5324,7.884,8.2441,8.6031,8.9668,9.3312,9.6613,9.8632,9.938,9.9201,9.9091,9.8976,9.8819,9.8657,9.8527,9.8392,9.8252,9.8108,9.7996,9.7879,9.7683,9.7491,9.7266,9.7004,9.6741,9.6478,9.6291,9.6066,9.5845,9.5583,9.532,9.5133,9.487,9.4645,9.5141,9.6125,9.8252,10.0395,10.2505,10.4636,10.678,10.8863,11.0956,11.3126,11.5275,11.7404,11.9512,12.1636,12.2598,12.1954,12.0873,11.9607,11.8412,4.6329,4.5635,4.4926,4.427,4.3599,4.2846,4.221,4.1492,4.0809,4.0155,3.9458,3.8442,3.7251,3.5991,3.4588,3.3253,3.1907,3.0655,2.9432,2.8226,2.7046,2.5905,2.4814,2.3712,2.2612,2.1954,2.2135,2.2472,2.2887,2.3356,2.3908,2.4648,2.537,2.6154,2.6974,2.783,2.8804,2.9682,3.0739,3.1927,3.3225,3.4567,3.5983,3.7356,3.8739,4.004,4.1413,4.2828,4.4224,4.5628,4.7007,4.8362,4.9823,5.3232,5.6775,6.035,6.4025,6.7696,7.1335,7.4991,7.8638,8.2311,8.6068,8.985,9.3532,9.6944,9.9053,9.9801,9.9584,9.9436,9.9198,9.9005,9.8805,9.8676,9.8541,9.8364,9.8108,9.7996,9.7842,9.7608,9.7379,9.7116,9.6886,9.6586,9.6323,9.6061,9.5873,9.5686,9.5455,9.5192,9.4892,9.4666,9.4397,9.4935,9.5966,9.8146,10.0335,10.2496,10.4712,10.6851,10.9015,11.1287,11.3439,11.5632,11.7806,11.999,12.2188,12.3189,12.2544,12.1461,12.0346,11.9148,4.5243,4.4604,4.3911,4.3232,4.2548,4.1893,4.1313,4.0684,4.0058,3.9386,3.8675,3.7703,3.6585,3.5209,3.3792,3.2485,3.1132,2.9845,2.8549,2.7348,2.6131,2.4925,2.3745,2.2671,2.1615,2.0933,2.1085,2.134,2.1776,2.224,2.2836,2.3517,2.4176,2.4923,2.5756,2.6601,2.7483,2.8373,2.9418,3.0615,3.2066,3.3565,3.5026,3.6534,3.7968,3.9474,4.0935,4.2408,4.3896,4.5395,4.6839,4.8357,4.9885,5.335,5.6951,6.062,6.4263,6.8033,7.1704,7.5428,7.9014,8.2721,8.6511,9.0291,9.3989,9.7436,9.9579,10.0324,10.0054,9.9781,9.9515,9.9273,9.8991,9.8787,9.8574,9.8324,9.7993,9.7809,9.7547,9.7317,9.709,9.6862,9.6633,9.6441,9.6248,9.6055,9.5862,9.5705,9.5472,9.5239,9.5081,9.4855,9.4621,9.5193,9.6237,9.8476,10.0688,10.2866,10.51,10.7297,10.9553,11.171,11.3877,11.6121,11.8311,12.0583,12.2796,12.3877,12.3301,12.2286,12.1123,12.007,4.4081,4.3465,4.2791,4.2168,4.1507,4.0957,4.0352,3.9777,3.921,3.8603,3.7912,3.6984,3.591,3.445,3.303,3.1682,3.0329,2.894,2.7652,2.6384,2.5163,2.3916,2.2756,2.1607,2.0553,1.9849,1.9973,2.0275,2.0704,2.1187,2.1725,2.2371,2.3073,2.3756,2.4606,2.5413,2.6231,2.7082,2.8137,2.9291,3.0917,3.2541,3.4076,3.5686,3.7257,3.882,4.0455,4.2016,4.3654,4.5245,4.6784,4.837,5.0061,5.3585,5.7243,6.0879,6.4621,6.8362,7.2158,7.5856,7.9476,8.3252,8.6985,9.0763,9.4496,9.7977,10.0102,10.0844,10.0485,10.0136,9.9822,9.9504,9.9222,9.8899,9.8611,9.8284,9.7876,9.762,9.7323,9.7024,9.6797,9.6643,9.6487,9.6295,9.6173,9.6012,9.5817,9.569,9.5494,9.5326,9.5231,9.507,9.4935,9.5511,9.6596,9.8828,10.1099,10.3303,10.5513,10.7816,11.0042,11.2218,11.4405,11.6675,11.895,12.1168,12.3396,12.4521,12.3973,12.2991,12.1973,12.0876,4.2801,4.2242,4.1679,4.1079,4.0474,3.9982,3.9451,3.8896,3.8304,3.7708,3.7154,3.6237,3.5169,3.3678,3.2263,3.0814,2.944,2.8047,2.6741,2.5441,2.4208,2.2961,2.175,2.0549,1.9428,1.8756,1.8953,1.9249,1.9596,2.0048,2.0628,2.1264,2.1905,2.2683,2.3444,2.4212,2.4991,2.583,2.6844,2.8062,2.9752,3.15,3.3157,3.4842,3.6523,3.8223,3.9942,4.1619,4.3377,4.515,4.6754,4.8495,5.0221,5.3837,5.7497,6.1219,6.4933,6.874,7.2546,7.6277,7.9966,8.374,8.7543,9.1303,9.5107,9.8535,10.0621,10.1275,10.0926,10.0527,10.0091,9.9735,9.937,9.8968,9.8644,9.8239,9.7911,9.7503,9.7134,9.68,9.6575,9.646,9.6268,9.6112,9.6061,9.5937,9.5878,9.5787,9.5618,9.5473,9.5375,9.5274,9.5195,9.5851,9.6983,9.9201,10.1423,10.3723,10.6031,10.8235,11.0482,11.2751,11.4994,11.7284,11.951,12.1709,12.4025,12.5193,12.4645,12.3768,12.2743,12.1751,4.1614,4.1079,4.054,3.9996,3.9504,3.8949,3.8476,3.7944,3.7406,3.6883,3.6417,3.5513,3.442,3.2973,3.1491,3.0025,2.8571,2.7163,2.5799,2.4518,2.3229,2.1954,2.0722,1.9504,1.8393,1.7704,1.7824,1.8115,1.8482,1.9001,1.9545,2.0122,2.0803,2.1519,2.2268,2.3025,2.3737,2.4564,2.5562,2.6847,2.8599,3.0438,3.2251,3.4065,3.5823,3.7658,3.9514,4.1276,4.3152,4.4955,4.6772,4.8546,5.0432,5.4074,5.7795,6.1558,6.5304,6.9088,7.2926,7.669,8.0397,8.424,8.8041,9.1874,9.5639,9.9103,10.1138,10.1753,10.1317,10.0842,10.0405,10.0003,9.9563,9.9123,9.8638,9.8234,9.7791,9.7348,9.6866,9.6421,9.6276,9.6164,9.6048,9.5966,9.5948,9.5893,9.587,9.5806,9.5699,9.5626,9.5549,9.5505,9.5477,9.6174,9.7354,9.9595,10.1841,10.4128,10.6456,10.8717,11.0947,11.322,11.5552,11.7858,12.0137,12.2388,12.4719,12.5821,12.5418,12.4574,12.3618,12.2586,4.0398,0.0,3.9374,3.8916,3.8483,3.8011,0.0,3.6965,3.6537,3.6102,3.5628,3.4787,3.3736,3.2257,3.0713,2.9299,2.7754,2.6288,2.4927,2.3564,2.2246,2.0926,1.9702,1.8495,1.7373,1.662,1.6664,1.6927,1.736,1.7893,1.8455,1.9018,1.9691,2.0344,2.1132,2.1773,2.25,2.3259,2.4322,2.5645,2.7458,2.936,3.1411,3.3298,3.5242,3.7156,3.906,4.0991,4.2886,4.4807,4.6811,4.8741,5.0718,5.4331,5.8114,6.1922,6.57,6.948,7.3298,7.7167,8.0909,8.4786,8.8571,9.2439,9.6203,9.9617,10.1651,10.2227,10.1706,10.1193,10.0673,10.027,9.9749,9.9234,9.8713,9.8192,9.7675,9.7154,9.6636,9.6114,9.5936,9.5865,9.5826,9.5816,9.5841,9.5855,9.5824,9.5786,9.5815,9.5836,9.5716,9.5724,9.5763,9.6444,9.7634,9.9973,10.2281,10.4555,10.6869,10.9187,11.1437,11.3768,11.6156,11.8388,12.072,12.3097,12.5443,12.6591,12.6258,12.5376,12.4417,12.356,0.0,3.8728,3.8269,3.79,3.743,3.7018,3.6597,3.611,0.0,3.5327,3.491,3.4086,3.3014,3.1415,2.995,2.8431,2.694,2.55,2.406,2.2672,2.1261,2.0001,1.8714,1.7473,1.632,1.5534,1.5648,1.5856,1.6258,1.6731,1.7281,1.7861,1.8568,1.9257,1.9931,2.0638,2.13,2.2019,2.3068,2.4399,2.6355,2.8347,3.0463,3.25,3.454,3.6591,3.8636,4.0615,4.2656,4.4749,4.6837,4.8854,5.0932,5.473,5.8436,6.2275,6.6085,6.9898,7.3735,7.7636,8.1377,8.5238,8.9096,9.2925,9.6714,10.0211,10.2206,10.2734,10.2139,10.158,10.1022,10.0456,9.9942,9.9383,9.8744,9.8149,9.7516,9.6995,9.6437,9.5841,9.5667,9.5639,9.5641,9.5707,9.5761,9.5773,9.5806,9.5801,9.5851,9.5904,9.5895,9.5933,9.6016,9.6773,9.8028,10.0335,10.2666,10.4964,10.7341,10.9682,11.199,11.4304,11.6661,11.9001,12.1331,12.3725,12.6054,12.7316,12.6948,12.6207,12.5317,12.4388,3.7964,3.7564,3.7131,3.679,3.6471,3.6085,3.5658,3.5288,3.494,3.4615,3.4252,3.3358,3.2323,3.0672,2.9158,2.767,2.6209,2.472,2.3286,2.1751,2.0326,1.9003,1.7708,1.6464,1.5236,1.4442,1.4553,1.4826,1.5171,1.5662,1.6223,1.6791,1.7457,1.8109,1.8769,1.9462,2.0111,2.0792,2.1824,2.322,2.5237,2.74,2.9578,3.1736,3.3878,3.6027,3.8179,4.0353,0.0,4.4714,4.6885,4.9001,5.1252,5.5061,5.8834,6.2633,6.646,7.0292,7.4212,7.8098,8.1873,8.5722,8.9579,9.3443,9.7267,10.0798,10.2748,10.3158,10.2525,10.1965,10.1326,10.0649,10.0053,9.9414,9.8782,9.8106,9.7473,9.6872,9.6233,9.5601,9.5395,9.5412,9.5492,9.556,9.5616,9.569,9.5758,9.5852,9.5897,9.5989,9.6084,9.6168,9.6291,9.7099,9.8399,10.0717,10.3034,10.533,10.7766,11.0166,11.253,11.4865,11.7157,11.9587,12.1935,12.4382,12.6764,12.8002,12.7738,12.703,12.621,12.5314,3.6765,3.6466,3.6058,3.5773,3.548,3.5151,3.4747,3.4404,3.4111,3.3782,3.3507,3.2661,3.1613,3.0028,2.8468,2.6962,2.5427,2.3868,2.2394,2.0873,1.9413,1.806,1.6686,1.5371,1.4103,1.3355,1.3482,1.3747,1.4104,1.4656,1.5226,1.5753,1.6338,1.6954,1.7623,1.8301,1.8883,1.9548,2.0593,2.1999,2.4158,2.6409,2.8729,3.1037,3.3303,3.5577,3.7804,4.0086,4.2352,4.4671,4.6955,4.9223,5.1589,5.5379,5.9183,6.3,6.6932,7.0834,7.4669,7.8551,8.2353,8.62,9.0093,9.3984,9.7808,10.1337,10.325,10.3698,10.3021,10.2307,10.1593,10.0916,10.0202,9.9452,9.8775,9.8099,9.7423,9.671,9.6034,9.5358,9.5155,9.5179,9.5342,9.5412,9.5541,9.5615,9.5748,9.5864,9.5964,9.6085,9.6265,9.6429,9.6577,9.7393,9.87,10.1046,10.3403,10.5721,10.814,11.0562,11.3059,11.541,11.7804,12.024,12.2605,12.5031,12.754,12.8825,12.8492,12.7819,12.7069,12.6245,3.5605,3.5335,3.5007,3.4749,3.4483,3.421,3.3928,3.364,3.3343,3.3105,3.2821,3.1995,3.0969,2.9368,2.7793,2.6247,2.4644,2.3102,2.1536,2.0063,1.8571,1.7116,1.5697,1.4314,1.3014,1.2247,1.2387,1.2664,1.3079,1.3588,1.4144,1.4708,1.5229,1.5831,1.6537,1.7126,1.7691,1.8287,1.9345,2.0761,2.3062,2.5482,2.7891,3.029,3.2677,3.5054,3.7439,3.9829,4.2256,4.4686,4.7068,4.9466,5.1897,5.5683,5.9555,6.3428,6.7394,7.1294,7.5117,7.8989,8.2871,8.6717,9.0601,9.4529,9.8388,10.1873,10.3823,10.4196,10.3483,10.2653,10.1939,10.1146,10.0395,9.9563,9.885,9.8092,9.7341,9.6583,9.5787,9.5036,9.4875,9.4948,9.5117,9.53,9.5428,9.5569,9.5726,9.5935,9.6064,9.6232,9.6477,9.668,9.686,9.7664,9.9022,10.1395,10.3778,10.616,10.8578,11.1021,11.3503,11.5948,11.8357,12.0848,12.332,12.5746,12.8272,12.964,12.9344,12.864,12.7889,12.7098,3.4353,3.4113,3.3917,3.3687,3.345,3.323,3.3077,3.2841,3.2641,3.2458,3.2224,3.1456,3.0359,2.8779,2.7164,2.5548,2.3941,2.2364,2.0763,1.9237,1.7674,1.6218,1.4779,1.3293,1.1986,1.1203,1.129,1.1671,1.2143,1.2627,1.31,1.372,1.4228,1.4764,1.5401,1.5954,1.6462,1.7115,1.81,1.9585,2.2029,2.4536,2.7007,2.9524,3.2032,3.4646,3.7155,3.9587,4.2155,4.4728,4.7256,4.9684,5.2192,5.6045,5.9984,6.3919,6.7846,7.1699,7.5595,7.9465,8.3302,8.722,9.1141,9.5068,9.8962,10.2481,10.4355,10.4729,10.3863,10.3072,10.2242,10.1412,10.0544,9.9675,9.888,9.8047,9.7214,9.6454,9.562,9.4664,9.4518,9.4715,9.489,9.5115,9.5316,9.5523,9.5752,9.5942,9.6161,9.6357,9.6657,9.6881,9.7083,9.7966,9.9327,10.1727,10.4159,10.6619,10.9064,11.1495,11.3971,11.6438,11.8907,12.1456,12.3973,12.6417,12.8973,13.0386,13.0163,12.952,12.8765,12.7985,3.33,3.3114,3.2895,3.2717,3.2532,3.2365,3.2215,3.2081,3.1936,3.1708,3.1596,3.0853,2.9842,2.8199,2.6548,2.4957,2.3257,2.1625,2.0004,1.8477,1.6967,1.5424,1.3899,1.2355,1.0963,1.0093,1.0349,1.0736,1.1147,1.1615,1.2141,1.2677,1.319,1.3677,1.4278,1.4763,1.5255,1.5833,1.6889,1.8411,2.0896,2.3573,2.6158,2.8816,3.1443,3.4144,3.6786,3.9405,4.2081,4.4715,4.7366,4.9973,5.2625,5.6465,6.0394,6.4372,6.8245,7.2134,7.6065,7.9971,8.388,8.7756,9.1638,9.5563,9.9491,10.3048,10.4883,10.5182,10.428,10.3415,10.2471,10.1603,10.0655,9.9787,9.8954,9.8039,9.7085,9.625,9.5367,9.4408,9.4314,9.448,9.4701,9.4967,9.5203,9.5486,9.5739,9.5964,9.6215,9.6491,9.6777,9.7071,9.7336,9.8251,9.9654,10.2118,10.4539,10.7008,10.9513,11.2015,11.454,11.7067,11.9555,12.2121,12.4654,12.7191,12.9766,13.1188,13.1002,13.0333,12.9649,12.9001,3.2139,3.1984,3.1796,3.1732,3.1598,3.1514,3.1443,3.1313,3.1144,3.1044,3.0984,3.0266,2.9254,2.7554,2.5939,2.4342,2.265,2.0967,1.9379,1.7805,1.6273,1.464,1.3064,1.1499,0.9982,0.9076,0.9399,0.979,1.0252,1.0706,1.1167,1.1638,1.2151,1.2656,1.3153,1.3622,1.4098,1.4637,1.5675,1.719,1.9798,2.2591,2.5397,2.8142,3.0855,3.3704,3.6498,3.922,4.2001,4.4823,4.7535,5.025,5.3037,5.6946,6.0872,6.4806,6.8679,7.2638,7.6528,8.0465,8.4373,8.8248,9.2167,9.6127,10.0054,10.3572,10.5408,10.5671,10.4732,10.3756,10.2777,10.1832,10.0847,9.9898,9.8947,9.7993,9.7038,9.6118,9.511,9.4185,9.4061,9.42,9.4509,9.4818,9.5091,9.5439,9.5689,9.5968,9.6287,9.6607,9.6889,9.7249,9.7572,9.8558,10.0001,10.2492,10.4979,10.7422,10.9987,11.2512,11.5096,11.7683,12.0231,12.2778,12.5366,12.7906,13.0494,13.1961,13.1812,13.1237,13.0567,12.9954,3.1019,3.0915,3.0892,3.0748,3.0704,3.0697,3.0548,3.0473,3.0436,3.0413,3.0433,2.9739,2.8725,2.7069,2.5425,2.3752,2.2034,2.0389,1.8756,1.7183,1.5632,1.3963,1.234,1.0738,0.9117,0.8163,0.8549,0.8942,0.939,0.9844,1.0257,1.0729,1.1194,1.1631,1.211,1.2526,1.3003,1.3488,1.447,1.6039,1.8733,2.1645,2.451,2.745,3.0442,3.3309,3.6223,3.905,4.1983,4.4911,4.773,5.0585,5.3401,5.7343,6.1262,6.5231,6.9175,7.3093,7.6983,8.0919,8.4861,8.881,9.2727,9.6722,10.0612,10.4168,10.5967,10.6157,10.5184,10.4132,10.3116,10.2056,10.1034,10.001,9.8976,9.7984,9.698,9.5984,9.4973,9.3959,9.3805,9.3999,9.4356,9.4669,9.5016,9.5326,9.5662,9.6028,9.6372,9.668,9.7071,9.7414,9.7794,9.8772,10.0293,10.2848,10.5318,10.7834,11.041,11.2996,11.564,11.8257,12.0861,12.3389,12.6031,12.8629,13.131,13.2804,13.273,13.219,13.1482,13.0903,2.9989,2.9912,2.9849,2.9826,2.9813,2.9856,2.9822,2.9714,2.9812,2.9815,2.989,2.9197,2.8184,2.6483,2.4816,2.3121,2.1451,1.985,1.8156,1.6604,1.5015,1.3315,1.1685,1.005,0.8374,0.7406,0.7791,0.8198,0.8552,0.899,0.9387,0.9793,1.0191,1.0612,1.1002,1.1453,1.1857,1.2251,1.3255,1.4845,1.768,2.0732,2.3737,2.679,2.9899,3.2884,3.5915,3.8924,4.1961,4.5028,4.7986,5.0905,5.3901,5.78,6.1715,6.5719,6.9624,7.3578,7.7504,8.1476,8.5417,8.9364,9.3319,9.7277,10.1202,10.4757,10.656,10.6678,10.5632,10.4509,10.3418,10.2321,10.1263,10.0121,9.9013,9.7938,9.6932,9.5849,9.471,9.3692,9.3545,9.3796,9.4125,9.452,9.4941,9.5279,9.5648,9.6066,9.6454,9.6834,9.7207,9.761,9.7966,9.9044,10.0568,10.315,10.5725,10.8296,11.0897,11.3506,11.6187,11.885,12.1446,12.4067,12.6764,12.9382,13.2118,13.3661,13.3624,13.3064,13.2484,13.1886,2.893,2.8881,2.8921,2.8855,2.8894,2.9058,2.9096,2.9014,2.9142,2.9281,2.9323,2.8634,2.7601,2.5884,2.4177,2.2558,2.0961,1.9363,1.7647,1.5999,1.4362,1.2727,1.1089,0.9437,0.7813,0.6817,0.7168,0.7455,0.7809,0.8121,0.8502,0.884,0.9184,0.952,0.993,1.0307,1.0691,1.1037,1.1991,1.3735,1.6701,1.9798,2.297,2.6164,2.9359,3.254,3.5671,3.8749,4.2002,4.5173,4.8229,5.1327,5.4385,5.8319,6.2269,6.6235,7.0139,7.4056,7.8018,8.199,8.6002,8.9951,9.3905,9.7862,10.1752,10.5269,10.7149,10.7233,10.6042,10.4884,10.3721,10.2627,10.1412,10.027,9.9042,9.7928,9.6798,9.5674,9.4496,9.3421,9.3245,9.3554,9.3929,9.4333,9.4828,9.5231,9.5656,9.6064,9.6531,9.6973,9.7373,9.7794,9.8195,9.9299,10.0902,10.3474,10.6076,10.8746,11.1371,11.404,11.6745,11.9406,12.2059,12.4774,12.7449,13.0163,13.2869,13.4458,13.4495,13.3972,13.3464,13.2903,2.9637,2.9632,2.9659,2.9653,2.9657,2.9761,2.9874,2.9868,2.9933,2.9985,3.0072,2.9496,2.8622,2.7047,2.5595,2.4166,2.2631,2.1154,1.9734,1.8213,1.676,1.529,1.3817,1.233,1.0881,1.0006,1.0238,1.0517,1.0799,1.1084,1.1343,1.1621,1.1932,1.2246,1.26,1.2889,1.3109,1.3434,1.437,1.5957,1.8935,2.2029,2.5131,2.8218,3.1318,3.4402,3.7439,4.0464,4.3489,4.655,4.9505,5.2498,5.5456,5.917,6.2865,6.6612,7.0405,7.4137,7.7844,8.1594,8.5386,8.9146,9.2915,9.6688,10.0426,10.3797,10.5532,10.5655,10.4504,10.346,10.2411,10.1357,10.0261,9.9117,9.8047,9.6964,9.5996,9.4863,9.3797,9.2724,9.2707,9.3046,9.3492,9.3996,9.4516,9.4946,9.5456,9.5962,9.6414,9.6925,9.7457,9.7932,9.8389,9.9485,10.1002,10.3377,10.5806,10.8269,11.0648,11.3109,11.5589,11.8078,12.0588,12.3066,12.5609,12.8111,13.0608,13.2095,13.2095,13.1646,13.1085,13.0612,3.0439,3.0486,3.0476,3.0518,3.0569,3.0606,3.0678,3.0737,3.0836,3.0843,3.0862,3.0415,2.9688,2.83,2.7019,2.5748,2.4427,2.3089,2.1852,2.0528,1.9199,1.7943,1.6665,1.5369,1.4111,1.3367,1.3464,1.3705,1.3905,1.417,1.4394,1.4529,1.4818,1.5108,1.5398,1.5596,1.5793,1.6108,1.698,1.8523,2.1374,2.4384,2.7439,3.0396,3.3357,3.631,3.9262,4.2139,4.5058,4.7979,5.0837,5.3694,5.6562,6.003,6.3552,6.7054,7.0637,7.4159,7.7716,8.1218,8.4754,8.8368,9.1919,9.5472,9.9028,10.2255,10.391,10.4001,10.2965,10.2036,10.1064,10.0012,9.903,9.8005,9.697,9.6009,9.5034,9.41,9.3075,9.208,9.2095,9.25,9.3053,9.3618,9.4195,9.4684,9.5253,9.5819,9.6369,9.6908,9.7533,9.8102,9.8613,9.9701,10.1103,10.3301,10.549,10.7745,10.9917,11.212,11.4404,11.6725,11.9003,12.1275,12.361,12.5904,12.8229,12.9576,12.9564,12.9153,12.8678,12.8191,3.1355,3.1382,3.1359,3.144,3.1424,3.1419,3.1399,3.1541,3.1544,3.1676,3.172,3.1276,3.0594,2.9506,2.8419,2.7273,2.6214,2.5075,2.4019,2.2887,2.1712,2.0662,1.9555,1.8469,1.7377,1.6727,1.6822,1.6905,1.7051,1.7235,1.7406,1.7562,1.7756,1.7975,1.8261,1.8461,1.8658,1.8871,1.9698,2.1203,2.3994,2.6879,2.9726,3.2597,3.5467,3.8268,4.104,4.3817,4.6601,4.9389,5.2153,5.485,5.7627,6.0947,6.4234,6.7563,7.0909,7.4221,7.7535,8.0864,8.4184,8.7582,9.0955,9.4329,9.7667,10.0706,10.2217,10.2386,10.1536,10.0575,9.9642,9.8704,9.7799,9.6851,9.5936,9.4971,9.4072,9.3214,9.2389,9.1435,9.1518,9.2034,9.2611,9.32,9.384,9.4493,9.5102,9.5671,9.629,9.6958,9.7601,9.8225,9.8816,9.9856,10.1197,10.3148,10.5167,10.7214,10.9214,11.1256,11.3286,11.5344,11.7412,11.9475,12.1607,12.3767,12.585,12.7051,12.7041,12.6667,12.6218,12.5769,3.2144,3.2211,3.2182,3.2241,3.2283,3.2208,3.2288,3.2332,3.2429,3.2441,3.2502,3.2193,3.1633,3.0688,2.9824,2.8898,2.7991,2.7027,2.6135,2.5207,2.43,2.3356,2.2434,2.1563,2.0662,2.004,2.0125,2.0175,2.0258,2.0371,2.0476,2.0646,2.0808,2.0996,2.1211,2.1395,2.1565,2.1744,2.2581,2.4005,2.662,2.9381,3.2067,3.4788,3.7514,4.0144,4.2813,4.5429,4.8151,5.0792,5.3428,5.6051,5.8707,6.1767,6.4926,6.8007,7.1148,7.4252,7.7373,8.0518,8.3677,8.6824,9.0022,9.3172,9.6333,9.9192,10.0638,10.0802,9.9997,9.9111,9.8257,9.7397,9.6531,9.5738,9.4858,9.4014,9.3157,9.2414,9.1579,9.0751,9.0903,9.1448,9.2091,9.2818,9.3483,9.4199,9.4929,9.5557,9.6274,9.7001,9.77,9.8379,9.9061,10.0092,10.1321,10.3063,10.4835,10.6671,10.8467,11.029,11.2158,11.401,11.5851,11.7743,11.963,12.1546,12.3457,12.4557,12.4512,12.4212,12.38,12.3388,3.3039,3.3059,3.2962,3.3047,3.3139,3.3088,3.317,3.3261,3.3248,3.3274,3.3311,3.3095,3.2746,3.1951,3.123,3.0531,2.9807,2.9025,2.8219,2.7534,2.6863,2.6043,2.5305,2.4685,2.389,2.3404,2.3438,2.3471,2.3439,2.3536,2.3631,2.3727,2.385,2.4037,2.4191,2.4338,2.4447,2.4692,2.5443,2.682,2.926,3.1833,3.4444,3.699,3.9512,4.2047,4.4524,4.7044,4.9587,5.2179,5.4708,5.7268,5.9789,6.2656,6.5506,6.8374,7.1352,7.4272,7.7249,8.0205,8.3196,8.6096,8.9008,9.202,9.4968,9.764,9.905,9.9186,9.842,9.7649,9.6872,9.609,9.5302,9.4546,9.386,9.305,9.2315,9.1527,9.0781,9.0016,9.0251,9.0898,9.1645,9.2433,9.3225,9.3962,9.4751,9.5487,9.6296,9.7039,9.7792,9.8514,9.926,10.032,10.1512,10.2955,10.4523,10.6159,10.7707,10.9324,11.1011,11.2652,11.4341,11.6004,11.7683,11.9355,12.1058,12.2057,12.2052,12.1709,12.1334,12.0959,3.3872,3.3875,3.3875,3.3909,3.3922,3.3887,3.4009,3.405,3.4072,3.4076,3.4117,3.3992,3.3704,3.3177,3.2639,3.209,3.1542,3.1011,3.046,2.9905,2.9372,2.8791,2.8226,2.7713,2.7147,2.6753,2.669,2.6656,2.669,2.6667,2.674,2.6812,2.6957,2.71,2.7241,2.735,2.7456,2.7659,2.8359,2.9592,3.1922,3.4324,3.6757,3.911,4.1479,4.387,4.6288,4.8659,5.1061,5.3495,5.5982,5.8373,6.0795,6.345,6.6149,6.8869,7.1598,7.4362,7.7083,7.9801,8.2627,8.5283,8.7989,9.0828,9.359,9.6097,9.7395,9.7569,9.6881,9.6149,9.5487,9.4781,9.4108,9.3429,9.2781,9.2129,9.1389,9.0761,9.0092,8.9405,8.9707,9.0389,9.1196,9.2046,9.2863,9.3683,9.4546,9.5326,9.6194,9.6994,9.7838,9.8703,9.9526,10.0502,10.156,10.2852,10.4212,10.564,10.694,10.835,10.9828,11.1301,11.2765,11.422,11.5689,11.7193,11.8617,11.9476,11.9473,11.9207,11.8907,11.8607,3.4722,3.4747,3.4723,3.4769,3.4792,3.4762,3.4801,3.4848,3.4928,3.4933,3.4998,3.4882,3.4716,3.4381,3.4035,3.3678,3.3349,3.3006,3.2648,3.2315,3.1935,3.1507,3.1131,3.0811,3.044,3.0147,3.0041,2.9935,2.989,2.9864,2.9874,2.9919,3.0025,3.0141,3.0264,3.0325,3.0446,3.0607,3.1217,3.2306,3.4492,3.6787,3.8959,4.1165,4.3397,4.5694,4.7987,5.027,5.2518,5.4823,5.7197,5.9517,6.1825,6.4301,6.6809,6.9346,7.1887,7.4384,7.6898,7.9457,8.201,8.45,8.7061,8.9633,9.2222,9.4581,9.5778,9.5916,9.5336,9.4688,9.4065,9.3509,9.2876,9.2274,9.174,9.1126,9.0545,8.9957,8.9354,8.8755,8.9089,8.9873,9.0782,9.1656,9.2522,9.3438,9.4358,9.5198,9.6089,9.6983,9.7886,9.8834,9.9784,10.0714,10.1658,10.2779,10.3931,10.5103,10.624,10.7405,10.8675,10.994,11.1198,11.2448,11.3688,11.4955,11.6205,11.6926,11.6925,11.6736,11.6549,11.6247,3.5524,3.5527,3.5542,3.5622,3.5619,3.5655,3.5639,3.5716,3.5738,3.5768,3.5852,3.5826,3.5817,3.5608,3.5461,3.5267,3.5135,3.4991,3.4802,3.4638,3.4464,3.4309,3.4142,3.3999,3.3772,3.3598,3.3452,3.3257,3.3156,3.3097,3.3061,3.3097,3.3097,3.3134,3.3162,3.3249,3.3312,3.3446,3.3987,3.5027,3.6985,3.903,4.1112,4.3167,4.5295,4.7413,4.9612,5.1765,5.3976,5.6179,5.844,6.0619,6.2831,6.5171,6.7505,6.9828,7.2103,7.4405,7.6745,7.9076,8.1435,8.3802,8.6143,8.8533,9.0915,9.3063,9.4188,9.43,9.3759,9.3221,9.2714,9.2201,9.1682,9.1195,9.0702,9.0203,8.9699,8.9107,8.859,8.8105,8.8544,8.9397,9.0329,9.1264,9.2229,9.3264,9.4204,9.5147,9.6091,9.7039,9.7995,9.8995,10.0035,10.0955,10.186,10.2737,10.3643,10.4566,10.5533,10.6525,10.755,10.8569,10.9646,11.0686,11.1718,11.274,11.3788,11.4445,11.4485,11.4335,11.4148,11.3923,3.6325,3.6339,3.6355,3.6438,3.6445,3.6449,3.6493,3.6558,3.6554,3.6601,3.6692,3.6756,3.6836,3.6835,3.6893,3.6878,3.6989,3.7025,3.6982,3.7003,3.7016,3.7082,3.7115,3.7164,3.7145,3.7099,3.686,3.664,3.6456,3.6327,3.6234,3.6215,3.6159,3.6084,3.6104,3.6123,3.6142,3.616,3.6659,3.7616,3.9348,4.123,4.318,4.5132,4.7137,4.9124,5.121,5.3282,5.5385,5.7517,5.9643,6.1763,6.3881,6.602,6.8147,7.0261,7.2318,7.4448,7.6558,7.87,8.0868,8.3001,8.5162,8.7351,8.9529,9.1506,9.257,9.2721,9.2257,9.1758,9.1328,9.0892,9.0488,9.004,8.9623,8.9201,8.8735,8.8301,8.7899,8.749,8.8005,8.8916,8.9876,9.0935,9.1956,9.301,9.4046,9.5048,9.6049,9.7087,9.8096,9.9148,10.0239,10.116,10.1951,10.2625,10.329,10.4021,10.478,10.56,10.6417,10.7265,10.8061,10.8933,10.976,11.0592,11.1435,11.192,11.1964,11.1816,11.1668,11.1555,3.7195,3.7211,3.7169,3.7229,3.7266,3.7213,0.0,3.7359,3.7406,3.7462,3.753,3.7684,3.7827,3.8078,3.8324,3.859,3.8822,3.9023,3.9183,3.9399,3.9668,3.9907,4.014,4.0311,4.057,4.0619,4.0316,4.005,3.9782,3.9565,3.9406,3.9271,3.9148,3.9087,3.9012,3.8974,3.8899,3.8824,3.9201,4.0026,4.1647,4.3374,4.522,4.7045,4.8924,5.0834,5.2772,5.474,5.6742,5.8777,6.0807,6.2875,6.49,6.6811,6.8742,7.0615,7.2546,7.4497,7.6397,7.8358,8.0303,8.2231,8.4157,8.6145,8.8118,8.9911,9.094,9.1133,9.0793,9.0333,8.9943,8.9621,8.9293,8.8922,8.8621,8.8239,8.7814,8.7494,8.7206,8.6874,8.7457,8.8436,8.9456,9.0575,9.1696,9.2775,9.3808,9.4906,9.6042,9.7137,9.819,9.9331,10.0472,10.1345,10.206,10.2452,10.2985,10.3545,10.4084,10.4667,10.5314,10.5912,10.6543,10.7169,10.7811,10.8497,10.9073,10.946,10.9438,10.9292,10.9183,10.9149,0.0,0.0,0.0,0.0,0.0,0.0,0.0,3.8198,3.8223,3.8326,3.8367,3.8581,3.89,3.9342,3.9779,4.0152,4.058,4.102,4.1419,4.1852,4.2263,4.2688,4.3109,4.3452,4.394,4.4096,4.3724,4.34,4.3097,4.2755,4.2474,4.2317,4.2072,4.1901,4.1805,4.1663,4.1557,4.1406,4.1702,4.2462,4.3922,4.551,4.7229,4.8935,5.0707,5.2512,5.4353,5.6264,5.8169,6.0114,6.2055,6.3991,6.5897,6.7699,6.9442,7.1123,7.2853,7.46,7.6289,7.799,7.9761,8.1541,8.3313,8.5029,8.6802,8.8427,8.9284,8.9516,8.9253,8.8946,8.8632,8.8384,8.8097,8.7841,8.7504,8.7198,8.6924,8.6717,8.6512,8.6183,8.6797,8.7841,8.8996,9.0175,9.1416,9.2514,9.3642,9.4836,9.5987,9.7135,9.8293,9.9468,10.0698,10.1522,10.216,10.2384,10.2649,10.3044,10.3353,10.3689,10.4128,10.4556,10.4977,10.5423,10.5833,10.6257,10.6703,10.696,10.6975,10.6875,10.6768,10.6773,0.0,0.0,0.0,0.0,0.0,0.0,0.0,0.0,0.0,0.0,0.0,3.9557,3.9985,0.0,4.1221,4.1779,4.2392,4.3001,4.3682,4.427,4.4871,4.5477,4.6072,4.6651,4.7329,4.7639,4.7143,4.6766,4.6386,4.5964,4.5606,4.5322,4.4998,4.4748,4.4533,4.4317,4.4095,4.3909,4.4108,4.4761,4.6086,4.7587,4.919,5.0792,5.2424,5.417,5.5958,5.7742,5.9558,6.137,6.3267,6.5123,6.6918,6.8543,7.0092,7.1627,7.3126,7.4636,7.6156,7.7689,7.9197,8.0802,8.241,8.3947,8.5483,8.6882,8.7665,8.79,8.7714,8.7588,8.7353,8.7074,8.6902,8.6722,8.6462,8.6272,8.6112,8.5945,8.5735,8.5482,8.621,8.7281,8.8571,8.9849,9.1113,9.2286,9.3472,9.4724,9.5932,9.7175,9.8411,9.966,10.0914,10.1689,10.2252,10.2316,10.2402,10.2551,10.2636,10.2768,10.2965,10.319,10.3403,10.368,10.387,10.4047,10.4324,10.4446,10.4437,10.4445,10.4385,10.4392,0.0,0.0,0.0,0.0,0.0,0.0,0.0,0.0,0.0,0.0,0.0,0.0,0.0,0.0,0.0,4.3369,4.4227,4.5069,4.5897,4.6699,4.7526,4.8314,4.91,4.9886,5.0784,5.1151,5.0613,5.0148,4.9683,4.9208,4.8766,4.8359,4.7948,4.7571,4.7266,4.692,4.6573,4.6302,4.6442,4.6985,4.8189,0.0,5.1039,5.2544,5.4119,5.5776,5.7481,5.9221,6.092,6.2654,6.4422,6.6244,6.8028,6.9373,7.0707,7.2024,7.3371,7.4724,7.6004,7.7331,7.8704,8.0082,8.1439,8.2806,8.4162,8.5396,0.0,8.6358,8.6212,8.6125,8.6005,8.584,8.5741,8.5639,8.5457,8.5342,8.5259,8.5136,8.4966,8.4871,8.57,8.6831,8.8143,8.9468,9.0788,9.2092,9.3335,9.4607,9.5903,9.7235,9.8559,9.9897,10.1193,10.1997,10.2448,10.2268,10.2147,10.2029,10.1964,10.1887,10.1868,10.1888,10.1858,10.189,10.1912,10.1885,10.1938,10.1961,10.1921,10.1942,10.196,10.2044,0.0,0.0,0.0,0.0,0.0,0.0,0.0,0.0,0.0,0.0,0.0,0.0,0.0,0.0,0.0,0.0,4.6057,4.7096,4.8143,4.9144,5.0144,5.1144,5.2181,5.318,5.4216,5.4689,5.4106,5.3513,5.2956,5.2392,5.1897,5.1322,0.0,0.0,0.0,4.9459,4.9046,4.8644,4.8676,4.9069,5.0207,5.1461,5.287,5.4289,5.5778,5.7393,5.9005,6.0635,6.2241,6.3904,6.5604,6.7339,6.9072,7.0223,7.1314,7.2407,7.3576,7.4782,7.5867,0.0,0.0,7.9363,8.0499,8.1677,8.282,8.3872,8.4565,8.4779,8.4737,8.47,8.4687,8.4563,8.4545,8.452,8.4451,8.4414,8.4408,8.4324,8.4232,8.4244,8.511,8.6344,8.7714,8.9098,9.048,9.1847,9.3195,9.4523,9.5914,9.7303,9.8683,10.0049,10.147,0.0,10.2561,10.2211,10.1856,10.1558,10.1228,10.0947,10.0731,10.0504,10.0305,10.0129,9.9944,9.9697,9.9526,9.9431,9.9472,9.9535,9.9595,9.9692,0.0,0.0,0.0,0.0,0.0,0.0,0.0,0.0,0.0,0.0,0.0,0.0,0.0,0.0,0.0,0.0,4.7938,4.9161,5.0379,5.156,5.274,5.4034,5.5252,5.6432,5.765,5.8228,5.763,5.6948,5.6222,5.5563,5.4932,5.433,5.369,5.3073,5.2571,5.2027,5.1465,5.096,5.08,5.1083,5.2123,5.3359,5.4683,5.6024,5.7422,5.8944,6.0487,6.2029,6.3606,6.5182,6.6784,6.8432,0.0,0.0,0.0,0.0,7.3874,7.4811,7.5714,7.6679,7.7639,7.8633,7.959,8.0506,8.1494,8.2384,8.2932,8.3188,8.3235,8.3275,8.33,8.3253,8.3345,8.3398,8.3445,8.3447,8.3519,8.3549,8.3571,8.3586,8.4556,0.0,8.7281,8.8764,9.0223,9.1608,9.305,9.4507,9.591,9.7312,9.8779,10.0231,10.17,10.2406,10.2665,10.211,0.0,0.0,0.0,10.0051,9.9537,9.9144,0.0,0.0,0.0,9.7516,9.7085,9.6892,0.0,0.0,9.7235,9.7372,0.0,0.0,0.0,0.0,0.0,0.0,0.0,0.0,0.0,0.0,0.0,0.0,0.0,0.0,0.0,0.0,4.8001,4.918,5.0436,5.1654,5.2871,5.4126,5.5343,5.656,5.7851,5.8462,5.7784,5.706,5.6328,5.5666,5.4954,5.431,5.3704,5.3083,5.2491,5.1867,5.1262,5.0665,5.0498,5.0752,5.1805,5.3,5.4268,5.5644,5.704,5.8448,5.9878,6.1369,6.2909,6.4446,6.5945,6.7472,6.8968,6.9869,7.0764,7.1578,7.2498,7.336,7.4228,7.5082,7.5969,7.6854,7.7702,7.8587,7.9507,8.0309,8.0823,8.1082,8.1131,8.1211,8.1277,8.127,8.1369,8.1458,8.1471,8.1587,8.1663,8.1769,8.1872,8.1892,8.285,8.4204,8.5693,8.722,8.8685,9.0175,9.1723,9.3174,9.4648,9.6122,9.7661,9.9216,10.0689,10.1434,10.1731,10.1097,10.0457,9.9885,9.9272,9.8747,9.8249,9.774,9.726,9.6807,9.6343,9.5861,0.0,0.0,0.0,0.0,0.0,0.0,0.0,0.0,0.0,0.0,0.0,0.0,0.0,0.0,0.0,0.0,0.0,0.0,0.0,0.0,0.0,0.0,0.0,0.0,5.0257,5.1436,5.2652,5.3867,5.5083,5.63,5.7628,5.8276,5.7556,5.6828,5.6094,5.5392,5.4678,5.3962,5.3355,5.2733,5.2065,5.1427,5.0782,5.0169,4.994,5.0193,5.1187,5.2402,5.3611,5.5009,5.6368,5.7689,5.902,6.0437,6.1876,6.3339,6.4791,6.6214,6.7629,6.8485,6.9337,7.009,7.0933,7.177,7.2514,7.3332,7.4109,7.4918,7.573,7.6579,7.739,7.8121,7.8654,7.8877,7.8953,7.9036,7.9178,7.9212,7.9308,7.9406,7.9456,7.9541,7.9693,7.9842,7.991,8.0011,8.1031,8.2405,8.3952,8.5503,8.6995,8.8627,9.0205,0.0,9.3245,9.4798,9.6379,9.7976,9.9491,10.0313,10.061,9.9935,9.9291,9.8642,9.7987,9.7422,9.6922,9.6374,9.5817,9.5328,9.4825,9.4269,9.3772,0.0,0.0,0.0,0.0,0.0,0.0,0.0,0.0,0.0,0.0,0.0,0.0,0.0,0.0,0.0,0.0,0.0,0.0,0.0,0.0,0.0,0.0,0.0,0.0,5.0678,5.1817,5.2995,5.4174,5.539,5.6567,5.7176,5.653,5.5843,5.511,5.4443,5.3735,5.306,5.2416,5.1768,5.1104,5.0433,4.9754,4.9159,4.8935,4.9119,5.0155,5.1356,5.2534,5.3823,5.5127,5.6413,5.7712,5.8995,6.0388,6.1779,6.3132,6.4521,6.5825,6.6665,6.7481,6.8241,6.8983,6.9773,7.048,7.121,7.1982,7.2755,7.3523,7.4371,7.5144,7.5858,7.632,7.6583,7.6637,7.6748,7.6855,7.693,7.7029,7.7124,7.7219,7.738,7.7537,7.7616,7.7726,7.7869,7.8912,8.0379,8.1909,8.3501,8.5152,8.6774,8.8421,8.9948,9.154,9.3171,9.4855,9.6463,9.7992,9.8856,9.9192,9.8545,9.793,9.731,9.6648,9.6076,9.5519,9.5008,9.4453,9.3921,9.3383,9.2828,9.2334,0.0,0.0,0.0,0.0,0.0,0.0,0.0,0.0,0.0,0.0,0.0,0.0,0.0,0.0,0.0,0.0,0.0,0.0,0.0,0.0,0.0,0.0,0.0,0.0,0.0,0.0,5.2162,5.3302,0.0,5.558,5.6151,5.5505,5.4816,5.4161,5.3461,5.2793,5.2119,5.1485,5.0801,5.0141,4.9485,4.8824,4.8221,4.7964,4.8131,4.9173,5.034,5.1449,5.2685,5.3938,5.5132,5.6382,5.7646,5.8968,6.025,6.1569,6.2812,6.4054,6.4878,6.5605,6.6298,6.7006,6.7775,6.8475,6.9163,6.9931,7.0626,7.1391,7.2163,7.2914,7.3595,7.4061,7.429,7.4384,7.4497,7.4569,7.4685,7.4786,7.4884,7.5052,7.518,7.5307,7.5425,7.554,7.5651,7.6791,7.8314,7.994,8.1593,8.3258,8.4953,8.6599,8.824,8.991,9.1599,9.3271,9.4922,9.6565,9.7435,9.7847,9.7191,9.6568,9.594,9.5308,9.4729,9.4177,9.3611,9.3088,9.2476,9.1935,9.1388,0.0,0.0,0.0,0.0,0.0,0.0,0.0,0.0,0.0,0.0,0.0,0.0,0.0,0.0,0.0,0.0,0.0,0.0,0.0,0.0,0.0,0.0,0.0,0.0,0.0,0.0,0.0,5.1366,5.2467,0.0,0.0,0.0,0.0,5.3791,5.3175,5.2516,5.1854,5.1183,5.0552,4.9879,4.9224,4.8581,4.7925,4.7303,4.7091,4.7263,4.8236,4.9317,5.0486,5.1598,5.276,5.3903,5.5119,5.6313,5.7526,5.8715,5.9962,6.1171,6.2378,6.3088,6.3764,6.4369,6.5065,6.5747,6.6427,6.7153,6.7842,6.8534,6.923,6.9968,7.0669,7.1314,0.0,0.0,7.2117,7.2233,7.2358,7.2429,7.2572,7.2719,7.2853,7.2983,7.3072,7.3232,7.3388,7.343,7.463,7.6247,7.8007,0.0,8.1413,8.3138,8.4853,8.6565,8.828,9.001,9.1708,9.3408,9.5175,9.6123,9.6537,9.5905,9.5231,9.4554,9.3949,9.3343,9.2785,9.2181,9.1608,9.1034,9.0486,0.0,0.0,0.0,0.0,0.0,0.0,0.0,0.0,0.0,0.0,0.0,0.0,0.0,0.0,0.0,0.0,0.0,0.0,0.0,0.0,0.0,0.0,0.0,0.0,0.0,0.0,4.8443,4.9468,5.0532,5.1557,5.2582,0.0,0.0,0.0,0.0,0.0,0.0,5.0949,5.0247,4.9617,4.8984,4.8303,4.7701,4.7059,4.6442,4.6171,4.6337,4.7277,4.8378,4.9439,5.0482,5.1575,5.2703,5.3829,5.4914,5.6055,5.7136,5.8274,5.9388,6.056,6.1181,6.1844,6.2474,6.312,6.3755,6.4426,6.5107,6.5753,6.6366,6.7023,6.7723,6.8401,0.0,0.0,0.0,0.0,6.9921,7.0073,7.0183,7.0291,7.0432,7.0645,7.0816,7.091,7.1037,7.1197,7.1282,7.2504,7.4141,7.5922,7.7736,0.0,8.1241,8.3031,8.4781,8.6574,8.8345,9.0161,9.193,9.3671,9.4698,9.5148,9.451,9.3828,9.318,9.2568,9.1956,9.1392,9.0777,9.0204,8.9626,0.0,0.0,0.0,0.0,0.0,0.0,0.0,0.0,0.0,0.0,0.0,0.0,0.0,0.0,0.0,0.0,0.0,0.0,0.0,0.0,0.0,0.0,0.0,0.0,0.0,0.0,0.0,4.7723,4.871,4.9697,5.0684,5.1671,0.0,0.0,0.0,0.0,0.0,0.0,0.0,0.0,0.0,4.8089,4.7462,4.6864,4.6226,4.5623,4.5357,4.5503,4.6412,4.7392,4.842,4.9394,5.0416,5.1496,5.2551,5.3528,5.4578,5.5588,5.6617,5.766,0.0,0.0,0.0,0.0,6.1163,6.1792,6.2424,6.3021,6.3663,6.4237,0.0,0.0,0.0,0.0,0.0,0.0,0.0,6.7632,6.7787,6.7938,6.8048,6.8192,6.8407,6.8581,6.8678,6.8808,6.8971,6.9131,7.0376,7.2033,7.3872,7.5749,0.0,0.0,0.0,8.3073,8.4868,8.6718,8.8597,9.0451,9.2271,9.3272,9.3759,9.3143,9.246,9.1805,9.1187,9.0581,8.9998,8.9378,8.8801,0.0,0.0,0.0,0.0,0.0,0.0,0.0,0.0,0.0,0.0,0.0,0.0,0.0,0.0,0.0,0.0,0.0,0.0,0.0,0.0,0.0,0.0,0.0,0.0,0.0,0.0,0.0,0.0,0.0,4.7951,4.8862,0.0,0.0,0.0,0.0,0.0,0.0,0.0,0.0,0.0,0.0,0.0,0.0,0.0,4.6023,4.5433,4.4835,4.4583,4.4697,4.5536,4.6484,4.7417,4.8334,4.9286,5.0259,5.119,0.0,5.3114,5.4091,0.0,0.0,0.0,0.0,0.0,0.0,0.0,0.0,0.0,0.0,0.0,0.0,0.0,0.0,0.0,0.0,0.0,0.0,0.0,0.0,0.0,0.0,6.5804,6.6015,6.6234,6.6337,6.6437,6.6609,6.6776,6.701,6.8246,6.996,0.0,0.0,0.0,0.0,0.0,0.0,8.3201,8.5107,8.7031,8.8933,9.0838,9.1876,9.2363,9.1744,9.1117,9.0467,8.9859,8.923,8.8603,8.8017,0.0,0.0,0.0,0.0,0.0,0.0,0.0,0.0,0.0,0.0,0.0,0.0,0.0,0.0,0.0,0.0,0.0,0.0,0.0,0.0,0.0,0.0,0.0,0.0,0.0,0.0,0.0,0.0,0.0,0.0,0.0,0.0,0.0,0.0,0.0,0.0,0.0,0.0,0.0,0.0,0.0,0.0,0.0,0.0,0.0,0.0,0.0,0.0,0.0,0.0,4.4763,4.5632,4.6469,4.7303,4.8184,4.9012,4.9912,5.077,5.1679,5.253,0.0,0.0,0.0,0.0,0.0,0.0,0.0,0.0,0.0,0.0,0.0,0.0,0.0,0.0,0.0,0.0,0.0,0.0,0.0,0.0,0.0,0.0,6.3585,6.3773,6.3957,6.4101,6.427,0.0,0.0,0.0,0.0,0.0,0.0,0.0,0.0,0.0,0.0,0.0,8.1581,8.3517,8.5446,8.7414,8.9403,9.0477,9.1002,9.0371,8.9746,8.9148,8.8512,8.7878,0.0,0.0,0.0,0.0,0.0,0.0,0.0,0.0,0.0,0.0,0.0,0.0,0.0,0.0,0.0,0.0,0.0,0.0,0.0,0.0,0.0,0.0,0.0,0.0,0.0,0.0,0.0,0.0,0.0,0.0,0.0,0.0,0.0,0.0,0.0,0.0,0.0,0.0,0.0,0.0,0.0,0.0,0.0,0.0,0.0,0.0,0.0,0.0,0.0,0.0,0.0,0.0,0.0,0.0,0.0,0.0,0.0,0.0,4.8624,4.9399,0.0,0.0,0.0,0.0,0.0,0.0,0.0,0.0,0.0,0.0,0.0,0.0,0.0,0.0,0.0,0.0,0.0,0.0,0.0,0.0,0.0,0.0,0.0,0.0,0.0,0.0,0.0,0.0,0.0,0.0,0.0,0.0,0.0,0.0,0.0,0.0,0.0,0.0,0.0,0.0,7.995,8.1942,8.3917,8.5931,8.793,8.9081,8.9644,8.9006,8.8435,8.7807,8.7165,0.0,0.0,0.0,0.0,0.0,0.0,0.0,0.0,0.0,0.0,0.0,0.0,0.0,0.0,0.0,0.0,0.0,0.0,0.0,0.0,0.0,0.0,0.0,0.0,0.0,0.0,0.0,0.0,0.0,0.0,0.0,0.0,0.0,0.0,0.0,0.0,0.0,0.0,0.0,0.0,0.0,0.0,0.0,0.0,0.0,0.0,0.0,0.0,0.0,0.0,0.0,0.0,0.0,0.0,0.0,0.0,0.0,0.0,0.0,4.7326,4.8045,0.0,0.0,0.0,0.0,0.0,0.0,0.0,0.0,0.0,0.0,0.0,0.0,0.0,0.0,0.0,0.0,0.0,0.0,0.0,0.0,0.0,0.0,0.0,0.0,0.0,0.0,0.0,0.0,0.0,0.0,0.0,0.0,0.0,0.0,0.0,0.0,0.0,0.0,0.0,0.0,7.8245,8.0277,8.2349,8.4409,8.6482,8.7676,8.8314,8.7665,8.7024,8.637,8.5756,0.0,0.0,0.0,0.0,0.0,0.0,0.0,0.0,0.0,0.0,0.0,0.0,0.0,0.0,0.0,0.0,0.0,0.0,0.0,0.0,0.0,0.0,0.0,0.0,0.0,0.0,0.0,0.0,0.0,0.0,0.0,0.0,0.0,0.0,0.0,0.0,0.0,0.0,0.0,0.0,0.0,0.0,0.0,0.0,0.0,0.0,0.0,0.0,0.0,0.0,0.0,0.0,0.0,0.0,0.0,0.0,0.0,0.0,0.0,0.0,0.0,0.0,0.0,0.0,0.0,0.0,0.0,0.0,0.0,0.0,0.0,0.0,0.0,0.0,0.0,0.0,0.0,0.0,0.0,0.0,0.0,0.0,0.0,0.0,0.0,0.0,0.0,0.0,0.0,0.0,0.0,0.0,0.0,0.0,0.0,0.0,0.0,0.0,0.0,0.0,0.0,7.6539,7.8663,8.0817,8.2945,8.5031,8.6277,8.6916,8.6322,8.5632,8.4951,0.0,0.0,0.0,0.0,0.0,0.0,0.0,0.0,0.0,0.0,0.0,0.0,0.0,0.0,0.0,0.0,0.0,0.0,0.0,0.0,0.0,0.0,0.0,0.0,0.0,0.0,0.0,0.0,0.0,0.0,0.0,0.0,0.0,0.0,0.0,0.0,0.0,0.0,0.0,0.0,0.0,0.0,0.0,0.0,0.0,0.0,0.0,0.0,0.0,0.0,0.0,0.0,0.0,0.0,0.0,0.0,0.0,0.0,0.0,0.0,0.0,0.0,0.0,0.0,0.0,0.0,0.0,0.0,0.0,0.0,0.0,0.0,0.0,0.0,0.0,0.0,0.0,0.0,0.0,0.0,0.0,0.0,0.0,0.0,0.0,0.0,0.0,0.0,0.0,0.0,0.0,0.0,0.0,0.0,0.0,0.0,0.0,0.0,0.0,0.0,0.0,0.0,7.4871,7.7035,7.9247,8.142,8.3589,8.4903,8.5542,8.4876,8.4256,8.3623,0.0,0.0,0.0,0.0,0.0,0.0,0.0,0.0,0.0,0.0,0.0,0.0,0.0,0.0,0.0,0.0,0.0,0.0,0.0,0.0,0.0,0.0,0.0,0.0,0.0,0.0,0.0,0.0,0.0,0.0,0.0,0.0,0.0,0.0,0.0,0.0,0.0,0.0,0.0,0.0,0.0,0.0,0.0,0.0,0.0,0.0,0.0,0.0,0.0,0.0,0.0,0.0,0.0,0.0,0.0,0.0,0.0,0.0,0.0,0.0,0.0,0.0,0.0,0.0,0.0,0.0,0.0,0.0,0.0,0.0,0.0,0.0,0.0,0.0,0.0,0.0,0.0,0.0,0.0,0.0,0.0,0.0,0.0,0.0,0.0,0.0,0.0,0.0,0.0,0.0,0.0,0.0,0.0,0.0,0.0,0.0,0.0,0.0,0.0,0.0,0.0,0.0,7.3249,7.5457,7.7714,7.9932,8.2146,8.3489,8.4166,8.3527,8.2897,8.2277,0.0,0.0,0.0,0.0,0.0,0.0,0.0,0.0,0.0,0.0,0.0,0.0,0.0,0.0,0.0,0.0,0.0,0.0,0.0,0.0,0.0,0.0,0.0,0.0,0.0,0.0,0.0,0.0,0.0,0.0,0.0,0.0,0.0,0.0,0.0,0.0,0.0,0.0,0.0,0.0,0.0,0.0,0.0,0.0,0.0,0.0,0.0,0.0,0.0,0.0,0.0,0.0,0.0,0.0,0.0,0.0,0.0,0.0,0.0,0.0,0.0,0.0,0.0,0.0,0.0,0.0,0.0,0.0,0.0,0.0,0.0,0.0,0.0,0.0,0.0,0.0,0.0,0.0,0.0,0.0,0.0,0.0,0.0,0.0,0.0,0.0,0.0,0.0,0.0,0.0,0.0,0.0,0.0,0.0,0.0,0.0,0.0,0.0,0.0,0.0,0.0,0.0,7.1619,7.3867,7.6164,7.8405,8.065,8.2047,8.2823,8.2212,8.1573,0.0,0.0,0.0,0.0,0.0,0.0,0.0,0.0,0.0,0.0,0.0,0.0,0.0,0.0,0.0,0.0,0.0,0.0,0.0,0.0,0.0,0.0,0.0,0.0,0.0,0.0,0.0,0.0,0.0,0.0,0.0,0.0,0.0,0.0,0.0,0.0,0.0,0.0,0.0,0.0,0.0,0.0,0.0,0.0,0.0,0.0,0.0,0.0,0.0,0.0,0.0,0.0,0.0,0.0,0.0,0.0,0.0,0.0,0.0,0.0,0.0,0.0,0.0,0.0,0.0,0.0,0.0,0.0,0.0,0.0,0.0,0.0,0.0,0.0,0.0,0.0,0.0,0.0,0.0,0.0,0.0,0.0,0.0,0.0,0.0,0.0,0.0,0.0,0.0,0.0,0.0,0.0,0.0,0.0,0.0,0.0,0.0,0.0,0.0,0.0,0.0,0.0,0.0,7.0254,7.2516,7.4743,7.699,7.9166,8.0551,8.129,8.0631,8.002,7.9458,0.0,0.0,0.0,0.0,0.0,0.0,0.0,0.0,0.0,0.0,0.0,0.0,0.0,0.0,0.0,0.0,0.0,0.0,0.0,0.0,0.0,0.0,0.0,0.0,0.0,0.0,0.0,0.0,0.0,0.0,0.0,0.0,0.0,0.0,0.0,0.0,0.0,0.0,0.0,0.0,0.0,0.0,0.0,0.0,0.0,0.0,0.0,0.0,0.0,0.0,0.0,0.0,0.0,0.0,0.0,0.0,0.0,0.0,0.0,0.0,0.0,0.0,0.0,0.0,0.0,0.0,0.0,0.0,0.0,0.0,0.0,0.0,0.0,0.0,0.0,0.0,0.0,0.0,0.0,0.0,0.0,0.0,0.0,0.0,0.0,0.0,0.0,0.0,0.0,0.0,0.0,0.0,0.0,0.0,0.0,0.0,0.0,0.0,0.0,0.0,0.0,0.0,0.0,7.1164,7.3359,7.5498,7.7664,7.8955,7.9655,7.9027,7.841,7.7843,0.0,0.0,0.0,0.0,0.0,0.0,0.0,0.0,0.0,0.0,0.0,0.0,0.0,0.0,0.0,0.0,0.0,0.0,0.0,0.0,0.0,0.0,0.0,0.0,0.0,0.0,0.0,0.0,0.0,0.0,0.0,0.0,0.0,0.0,0.0,0.0,0.0,0.0,0.0,0.0,0.0,0.0,0.0,0.0,0.0,0.0,0.0,0.0,0.0,0.0,0.0,0.0,0.0,0.0,0.0,0.0,0.0,0.0,0.0,0.0,0.0,0.0,0.0,0.0,0.0,0.0,0.0,0.0,0.0,0.0,0.0,0.0,0.0,0.0,0.0,0.0,0.0,0.0,0.0,0.0,0.0,0.0,0.0,0.0,0.0,0.0,0.0,0.0,0.0,0.0,0.0,0.0,0.0,0.0,0.0,0.0,0.0,0.0,0.0,0.0,0.0,0.0,0.0,6.9914,7.2011,7.4043,7.6026,7.7266,7.7928,7.731,7.6686,7.6075,7.5401,0.0,0.0,0.0,0.0,0.0,0.0,0.0,0.0,0.0,0.0,0.0,0.0,0.0,0.0,0.0,0.0,0.0,0.0,0.0,0.0,0.0,0.0,0.0,0.0,0.0,0.0,0.0,0.0,0.0,0.0,0.0,0.0,0.0,0.0,0.0,0.0,0.0,0.0,0.0,0.0,0.0,0.0,0.0,0.0,0.0,0.0,0.0,0.0,0.0,0.0,0.0,0.0,0.0,0.0,0.0,0.0,0.0,0.0,0.0,0.0,0.0,0.0,0.0,0.0,0.0,0.0,0.0,0.0,0.0,0.0,0.0,0.0,0.0,0.0,0.0,0.0,0.0,0.0,0.0,0.0,0.0,0.0,0.0,0.0,0.0,0.0,0.0,0.0,0.0,0.0,0.0,0.0,0.0,0.0,0.0,0.0,0.0,0.0,0.0,0.0,0.0,0.0,6.875,7.0701,7.2587,7.4425,7.5554,7.6139,7.557,7.4924,7.4307,7.3666,0.0,0.0,0.0,0.0,0.0,0.0,0.0,0.0,0.0,0.0,0.0,0.0,0.0,0.0,0.0,0.0,0.0,0.0,0.0,0.0,0.0,0.0,0.0,0.0,0.0,0.0,0.0,0.0,0.0,0.0,0.0,0.0,0.0,0.0,0.0,0.0,0.0,0.0,0.0,0.0,0.0,0.0,0.0,0.0,0.0,0.0,0.0,0.0,0.0,0.0,0.0,0.0,0.0,0.0,0.0,0.0,0.0,0.0,0.0,0.0,0.0,0.0,0.0,0.0,0.0,0.0,0.0,0.0,0.0,0.0,0.0,0.0,0.0,0.0,0.0,0.0,0.0,0.0,0.0,0.0,0.0,0.0,0.0,0.0,0.0,0.0,0.0,0.0,0.0,0.0,0.0,0.0,0.0,0.0,0.0,0.0,0.0,0.0,0.0,0.0,0.0,0.0,6.7614,6.9339,7.1092,7.2878,7.3897,7.4368,7.3774,7.3136,7.25,7.1968,0.0,0.0,0.0,0.0,0.0,0.0,0.0,0.0,0.0,0.0,0.0,0.0,0.0,0.0,0.0,0.0,0.0,0.0,0.0,0.0,0.0,0.0,0.0,0.0,0.0,0.0,0.0,0.0,0.0,0.0,0.0,0.0,0.0,0.0,0.0,0.0,0.0,0.0,0.0,0.0,0.0,0.0,0.0,0.0,0.0,0.0,0.0,0.0,0.0,0.0,0.0,0.0,0.0,0.0,0.0,0.0,0.0,0.0,0.0,0.0,0.0,0.0,0.0,0.0,0.0,0.0,0.0,0.0,0.0,0.0,0.0,0.0,0.0,0.0,0.0,0.0,0.0,0.0,0.0,0.0,0.0,0.0,0.0,0.0,0.0,0.0,0.0,0.0,0.0,0.0,0.0,0.0,0.0,0.0,0.0,0.0,0.0,0.0,0.0,0.0,0.0,0.0,0.0,6.8066,6.9649,7.1291,7.2199,7.2614,7.2029,7.1408,7.0816,0.0,0.0,0.0,0.0,0.0,0.0,0.0,0.0,0.0,0.0,0.0,0.0,0.0,0.0,0.0,0.0,0.0,0.0,0.0,0.0,0.0,0.0,0.0,0.0,0.0,0.0,0.0,0.0,0.0,0.0,0.0,0.0,0.0,0.0,0.0,0.0,0.0,0.0,0.0,0.0,0.0,0.0,0.0,0.0,0.0,0.0,0.0,0.0,0.0,0.0,0.0,0.0,0.0,0.0,0.0,0.0,0.0,0.0,0.0,0.0,0.0,0.0,0.0,0.0,0.0,0.0,0.0,0.0,0.0,0.0,0.0,0.0,0.0,0.0,0.0,0.0,0.0,0.0,0.0,0.0,0.0,0.0,0.0,0.0,0.0,0.0,0.0,0.0,0.0,0.0,0.0,0.0,0.0,0.0,0.0,0.0,0.0,0.0,0.0,0.0,0.0,0.0,0.0,0.0,6.6753,6.8189,6.9684,7.0519,7.0876,7.0268,6.9679,6.9082,0.0,0.0,0.0,0.0,0.0,0.0,0.0,0.0,0.0,0.0,0.0,0.0,0.0,0.0]}],[{"header":{"parameterUnit":"kt","parameterCategory":2,"dx":1,"dy":1,"la1":29.285339999999998,"la2":30.599998999999997,"lo1":-89.70041500000002,"lo2":-87.6738589999976,"nx":112,"ny":82,"refTime":"2022-10-26T18:00:00:Z","depth":0,"parameterNumber":2,"parameterNumberName":"V-component_of_WINDS"},"data":[2.9123,2.8711,2.8421,2.8066,2.7712,2.7318,2.6963,2.6685,2.6348,2.5993,2.5657,2.464,2.326,2.1333,1.9459,1.7445,1.549,1.3528,0.0,0.973,0.0,0.0,0.0,0.0,0.0,0.0,-0.1921,-0.2438,-0.3001,-0.3618,-0.4159,-0.4738,-0.5352,-0.5864,-0.6404,-0.7119,-0.7721,-0.8178,-0.8604,-0.8984,-0.8948,-0.8895,-0.8829,-0.8758,-0.8683,-0.8608,-0.8528,-0.8447,-0.8548,-0.8457,-0.8358,-0.8457,-0.8358,-0.8599,-0.885,-0.9095,-0.9346,-0.9599,-0.985,-1.0107,-1.0366,-1.0623,-1.0882,-1.1147,-1.1415,-1.1684,-1.1947,-1.2201,-1.2244,-1.25,-1.2539,-1.2797,-1.2836,-1.3097,-1.3142,-1.3405,-1.367,-1.3716,-1.3982,-1.4024,-1.4742,-1.5469,-1.6202,-1.7163,-1.7918,-1.868,-1.9453,-2.0445,-2.1224,-2.2008,-2.2797,-2.3821,-2.4639,-2.524,-2.5399,-2.5339,-2.5277,-2.5203,-2.5134,-2.507,-2.5237,-2.516,-2.5087,-2.5003,-2.4916,-2.4817,-2.473,-2.5024,-2.5377,-2.5933,-2.6467,-2.6988,2.7022,2.6771,2.6379,2.6161,2.596,2.5602,2.536,2.5038,2.4792,2.4469,2.4237,2.3297,2.1942,2.015,1.8306,1.6429,1.4533,1.2714,0.0,0.8982,0.7081,0.5132,0.0,0.0,0.0,-0.1784,-0.2366,-0.3002,-0.3593,-0.4121,-0.4682,-0.5278,-0.5779,-0.6307,-0.6858,-0.759,-0.8206,-0.868,-0.912,-0.9351,-0.9485,-0.9444,-0.9389,-0.933,-0.9266,-0.9207,-0.9316,-0.9242,-0.9167,-0.9276,-0.9195,-0.9109,-0.9019,-0.9276,-0.9532,-0.9791,-1.0052,-1.0315,-1.0577,-1.0845,-1.1116,-1.1384,-1.166,-1.1937,-1.2218,-1.25,-1.2554,-1.2815,-1.286,-1.2904,-1.3163,-1.3209,-1.3465,-1.3511,-1.3557,-1.3821,-1.3868,-1.3915,-1.4176,-1.4224,-1.472,-1.5441,-1.6389,-1.7132,-1.8103,-1.8857,-1.9623,-2.0613,-2.139,-2.2173,-2.2953,-2.3983,-2.4791,-2.5401,-2.5793,-2.5738,-2.568,-2.5618,-2.5562,-2.551,-2.569,-2.5624,-2.5564,-2.5483,-2.5649,-2.5564,-2.5499,-2.5802,-2.6142,-2.6682,-2.72,-2.7714,2.4998,2.4766,2.4514,2.4347,2.4161,2.3821,2.3708,2.3496,2.3224,2.3026,2.2808,2.1977,2.0752,1.8973,1.7089,1.526,1.3522,0.0,0.0,0.8164,0.6383,0.4465,0.2656,0.0942,-0.0861,-0.2292,-0.2897,-0.3458,-0.4062,-0.4606,-0.5184,-0.5794,-0.6324,-0.6872,-0.7448,-0.7903,-0.8519,-0.9157,-0.9609,-0.9861,-0.9839,-0.9961,-0.9918,-0.987,-0.9823,-0.9948,-0.9894,-0.9831,-0.9951,-0.9886,-0.9816,-0.9937,-1.0053,-1.013,-1.0398,-1.0665,-1.0934,-1.1206,-1.1285,-1.1565,-1.1849,-1.214,-1.2428,-1.272,-1.3014,-1.3101,-1.3379,-1.3431,-1.3478,-1.3525,-1.3571,-1.3833,-1.3881,-1.3923,-1.397,-1.4013,-1.406,-1.4332,-1.4375,-1.4423,-1.4908,-1.5628,-1.6581,-1.7323,-1.8057,-1.9033,-1.9791,-2.0787,-2.1555,-2.2329,-2.3123,-2.4144,-2.4942,-2.5551,-2.5944,-2.5891,-2.6088,-2.6039,-2.6005,-2.5957,-2.6149,-2.6096,-2.6277,-2.6211,-2.6398,-2.6335,-2.6268,-2.6563,-2.7158,-2.7689,-2.8188,-2.8673,2.2839,2.2732,2.2535,2.2484,2.2314,2.2107,2.2027,2.1941,2.1776,2.1608,2.1492,0.0,0.0,0.0,1.6013,1.424,0.0,1.0781,0.9002,0.7287,0.5622,0.3818,0.2031,0.0338,-0.1359,-0.2786,-0.3318,-0.3992,-0.4519,-0.5075,-0.5671,-0.618,-0.6725,-0.7287,-0.7872,-0.8338,-0.8967,-0.9613,-1.0081,-1.0351,-1.0336,-1.0466,-1.0434,-1.0398,-1.0362,-1.0496,-1.0625,-1.0575,-1.0526,-1.066,-1.06,-1.0727,-1.0854,-1.0949,-1.1235,-1.1322,-1.1604,-1.1888,-1.2181,-1.2477,-1.2574,-1.288,-1.3188,-1.3289,-1.3597,-1.3903,-1.3979,-1.4039,-1.4088,-1.4137,-1.4181,-1.4235,-1.4284,-1.4328,-1.4371,-1.442,-1.4469,-1.4518,-1.4567,-1.4611,-1.5101,-1.5821,-1.6778,-1.7507,-1.847,-1.9215,-1.9972,-2.0959,-2.1726,-2.2499,-2.3284,-2.4303,-2.51,-2.5691,-2.6084,-2.6284,-2.626,-2.6467,-2.6428,-2.6633,-2.6598,-2.6793,-2.6751,-2.6944,-2.6897,-2.7097,-2.7036,-2.7332,-2.7912,-2.8436,-2.8927,-2.9395,2.0753,2.0698,2.0638,2.0589,2.0534,2.0457,2.0408,2.0276,2.0294,2.0214,0.0,0.0,0.0,0.0,0.0,0.0,1.1485,0.9775,0.8125,0.6526,0.4882,0.3098,0.142,-0.0251,-0.1929,-0.326,-0.3811,-0.4412,-0.5059,-0.5531,-0.614,-0.6668,-0.7227,-0.7681,-0.8273,-0.8898,-0.9401,-1.0059,-1.0385,-1.0819,-1.0811,-1.0949,-1.0934,-1.0914,-1.1054,-1.1017,-1.1154,-1.1127,-1.1267,-1.1407,-1.1361,-1.1494,-1.1622,-1.1745,-1.2047,-1.2157,-1.2454,-1.2755,-1.2867,-1.3178,-1.3493,-1.3614,-1.3934,-1.4052,-1.4376,-1.4699,-1.4791,-1.486,-1.4695,-1.4741,-1.4792,-1.4837,-1.4675,-1.4719,-1.477,-1.482,-1.4654,-1.4704,-1.4748,-1.4792,-1.5293,-1.6024,-1.6969,-1.7697,-1.8659,-1.9403,-2.0376,-2.113,-2.1897,-2.2668,-2.367,-2.4452,-2.5247,-2.5829,-2.6452,-2.6452,-2.6672,-2.6884,-2.6858,-2.7067,-2.7277,-2.7243,-2.746,-2.7685,-2.7653,-2.7859,-2.8064,-2.8362,-2.8675,-2.9182,-2.9665,-3.0358,1.8735,1.8816,1.8775,1.8757,1.8734,1.8706,1.8768,0.0,1.8777,1.8818,0.0,1.8094,1.7073,0.0,0.0,1.221,1.0555,0.8882,0.7259,0.5696,0.4079,0.24,0.0827,-0.0827,-0.2491,-0.3737,-0.4306,-0.4917,-0.5481,-0.6075,-0.6596,-0.7137,-0.7589,-0.8183,-0.8798,-0.9299,-0.9951,-1.0485,-1.083,-1.1267,-1.1269,-1.1422,-1.1412,-1.1568,-1.1713,-1.1695,-1.1848,-1.1991,-1.197,-1.2121,-1.2267,-1.2232,-1.2376,-1.2514,-1.2834,-1.2957,-1.3277,-1.3607,-1.3728,-1.4058,-1.4198,-1.4339,-1.4676,-1.4812,-1.5155,-1.5287,-1.5396,-1.5468,-1.5311,-1.5359,-1.5194,-1.5247,-1.5293,-1.5126,-1.5178,-1.5014,-1.5065,-1.5116,-1.4944,-1.4989,-1.5484,-1.6202,-1.7152,-1.7879,-1.8826,-1.9569,-2.0317,-2.1292,-2.2057,-2.2819,-2.3811,-2.4591,-2.5393,-2.5984,-2.6606,-2.6609,-2.6841,-2.7073,-2.7286,-2.7508,-2.774,-2.7953,-2.7931,-2.817,-2.8399,-2.862,-2.884,-2.9139,-2.9446,-2.9926,-3.0628,-3.1066,1.6691,1.6792,1.6886,1.6984,1.6992,1.709,0.0,0.0,0.0,1.7368,1.7489,1.6855,1.5855,1.4335,1.2779,1.1188,0.957,0.8016,0.643,0.4883,0.3374,0.172,0.0164,-0.1389,-0.304,-0.4287,-0.4872,-0.5409,-0.5882,-0.6497,-0.7035,-0.7587,-0.8058,-0.8663,-0.9301,-0.9814,-1.0338,-1.0891,-1.1249,-1.1693,-1.1713,-1.1868,-1.2029,-1.219,-1.235,-1.2346,-1.2504,-1.2657,-1.265,-1.2813,-1.2969,-1.3126,-1.3108,-1.3445,-1.3595,-1.374,-1.4085,-1.4244,-1.4577,-1.4731,-1.4898,-1.5252,-1.5415,-1.5565,-1.5722,-1.6079,-1.6206,-1.6079,-1.5919,-1.5968,-1.5812,-1.5648,-1.5703,-1.5537,-1.5584,-1.5422,-1.5259,-1.5311,-1.5139,-1.5185,-1.5674,-1.6392,-1.7334,-1.8054,-1.877,-1.9733,-2.048,-2.1453,-2.2217,-2.2977,-2.3967,-2.4736,-2.5529,-2.6137,-2.6759,-2.6995,-2.724,-2.7485,-2.7702,-2.7938,-2.8192,-2.8418,-2.8644,-2.889,-2.9135,-2.937,-2.9606,-2.9905,-3.0457,-3.0917,-3.1352,-3.1781,1.4727,1.4861,1.4964,1.5193,1.5315,0.0,0.0,1.5677,1.5859,1.6031,1.6104,1.5577,1.4685,1.3192,1.1675,1.0224,0.8639,0.7105,0.5705,0.4178,0.2603,0.1054,-0.0405,-0.1941,-0.3492,-0.4815,-0.5335,-0.5886,-0.6475,-0.7009,-0.7562,-0.803,-0.8623,-0.9122,-0.965,-1.0182,-1.0724,-1.1271,-1.1781,-1.2098,-1.2282,-1.244,-1.2612,-1.2783,-1.2794,-1.297,-1.3133,-1.3296,-1.3309,-1.3476,-1.365,-1.3817,-1.3997,-1.4158,-1.4331,-1.4689,-1.4865,-1.5047,-1.5216,-1.5399,-1.5776,-1.5954,-1.6132,-1.6317,-1.6495,-1.6666,-1.6798,-1.6884,-1.6727,-1.6562,-1.6409,-1.6254,-1.6098,-1.5946,-1.5781,-1.5829,-1.5661,-1.5498,-1.5334,-1.5162,-1.5651,-1.658,-1.7295,-1.8234,-1.8949,-1.9911,-2.0656,-2.1628,-2.2375,-2.3126,-2.4121,-2.489,-2.5671,-2.6495,-2.6911,-2.7149,-2.7627,-2.7886,-2.8125,-2.8375,-2.8624,-2.8873,-2.9122,-2.9362,-2.9868,-3.012,-3.0361,-3.0671,-3.1207,-3.1669,-3.2329,-3.2737,1.2739,1.2885,1.3123,1.336,1.3586,0.0,1.3914,1.4191,1.4479,1.4664,1.4839,1.433,1.3559,1.2103,1.062,0.9191,0.7721,0.6291,0.4834,0.3324,0.1853,0.0401,-0.1122,-0.2564,-0.4102,-0.5339,-0.5875,-0.6449,-0.696,-0.7508,-0.8081,-0.857,-0.9057,-0.9566,-1.0105,-1.0654,-1.1213,-1.1776,-1.2156,-1.2481,-1.2668,-1.2841,-1.3021,-1.3201,-1.3381,-1.3561,-1.3741,-1.392,-1.4107,-1.4287,-1.4467,-1.4654,-1.4834,-1.5027,-1.5228,-1.5436,-1.5636,-1.5837,-1.6038,-1.6238,-1.6453,-1.6646,-1.6854,-1.7055,-1.7262,-1.7456,-1.7601,-1.7483,-1.7328,-1.7173,-1.7016,-1.6857,-1.671,-1.6342,-1.6178,-1.6013,-1.5841,-1.5685,-1.5522,-1.5351,-1.584,-1.655,-1.7476,-1.8406,-1.9127,-2.0087,-2.0824,-2.1786,-2.2532,-2.3281,-2.4274,-2.5041,-2.6027,-2.6635,-2.7278,-2.7539,-2.78,-2.8061,-2.8547,-2.881,-2.9312,-2.9577,-2.9842,-3.0108,-3.0363,-3.0878,-3.1145,-3.1456,-3.1976,-3.242,-3.3071,-3.3448,1.0803,1.1075,1.1344,1.1584,1.1909,0.0,1.238,1.278,1.3061,1.3328,1.3604,1.3126,1.2387,1.0944,0.9496,0.8091,0.6728,0.5415,0.3978,0.2574,0.1118,-0.0318,-0.1747,-0.3256,-0.4708,-0.5862,-0.6401,-0.69,-0.7522,-0.8087,-0.8574,-0.9084,-0.9583,-1.0112,-1.0658,-1.1228,-1.167,-1.212,-1.2651,-1.2988,-1.3186,-1.3376,-1.3567,-1.375,-1.3933,-1.4288,-1.448,-1.4688,-1.488,-1.4907,-1.509,-1.545,-1.5643,-1.5691,-1.5926,-1.6347,-1.6394,-1.6614,-1.6841,-1.7076,-1.7125,-1.7537,-1.7764,-1.7799,-1.8031,-1.8241,-1.84,-1.8093,-1.7941,-1.7572,-1.7416,-1.726,-1.7101,-1.6729,-1.6568,-1.6405,-1.624,-1.6087,-1.5715,-1.5545,-1.6022,-1.6724,-1.7649,-1.8584,-1.9311,-2.0255,-2.0991,-2.1943,-2.2687,-2.3443,-2.4417,-2.5183,-2.6166,-2.6774,-2.7426,-2.7699,-2.8201,-2.8708,-2.8966,-2.9243,-2.9769,-3.0038,-3.056,-3.0852,-3.1124,-3.1635,-3.1939,-3.2262,-3.2765,-3.3427,-3.3812,-3.4409,0.8801,0.9201,0.9486,0.9844,0.0,0.0,1.0859,1.1276,1.1576,1.1952,1.2321,1.1948,1.1229,0.9822,0.848,0.7105,0.577,0.4472,0.3056,0.1754,0.0396,-0.1026,-0.244,-0.3852,-0.5214,-0.6361,-0.6911,-0.7424,-0.7974,-0.8548,-0.9047,-0.9569,-1.0094,-1.0521,-1.1089,-1.1659,-1.2126,-1.2585,-1.299,-1.3468,-1.3685,-1.3886,-1.4234,-1.4437,-1.4633,-1.4844,-1.5047,-1.525,-1.5461,-1.5826,-1.6032,-1.6229,-1.6434,-1.6516,-1.6773,-1.7047,-1.7305,-1.7388,-1.7643,-1.771,-1.7963,-1.8215,-1.8468,-1.8529,-1.8787,-1.8817,-1.8989,-1.8887,-1.8531,-1.8171,-1.8018,-1.7864,-1.7497,-1.734,-1.6968,-1.6807,-1.643,-1.6271,-1.5895,-1.5727,-1.6203,-1.6904,-1.7834,-1.8549,-1.9487,-2.0422,-2.1148,-2.2107,-2.2849,-2.3596,-2.4568,-2.5322,-2.6312,-2.692,-2.7572,-2.8084,-2.859,-2.888,-2.9403,-2.9685,-3.0204,-3.0728,-3.1025,-3.1565,-3.1864,-3.2402,-3.2713,-3.3037,-3.3534,-3.4176,-3.4541,-3.5128,0.6935,0.0,0.0,0.0,0.0,0.0,0.929,0.972,1.0215,1.0609,1.0975,1.0709,1.0095,0.8722,0.7487,0.6133,0.4825,0.3555,0.2234,0.0949,-0.0393,-0.1721,-0.3042,-0.4441,-0.5785,-0.6848,-0.7413,-0.8031,-0.8499,-0.8992,-0.95,-1.0033,-1.0475,-1.1029,-1.1491,-1.2075,-1.2542,-1.3026,-1.3437,-1.3929,-1.4157,-1.4377,-1.4734,-1.4947,-1.5153,-1.5517,-1.5733,-1.5941,-1.6322,-1.6548,-1.6766,-1.6984,-1.7194,-1.731,-1.76,-1.7899,-1.802,-1.8316,-1.8429,-1.8519,-1.8801,-1.8884,-1.9171,-1.926,-1.9536,-1.9594,-1.9576,-1.9478,-1.9124,-1.8768,-1.861,-1.8263,-1.7892,-1.7736,-1.7373,-1.6994,-1.6832,-1.6455,-1.629,-1.5907,-1.6383,-1.7083,-1.7793,-1.8725,-1.9662,-2.0369,-2.1305,-2.2261,-2.3002,-2.3747,-2.4707,-2.547,-2.6448,-2.7278,-2.7941,-2.8231,-2.8749,-2.9281,-2.9818,-3.036,-3.0648,-3.1186,-3.1729,-3.2043,-3.2603,-3.293,-3.3497,-3.4074,-3.4561,-3.4935,-3.551,-3.6096,0.0,0.0,0.0,0.6452,0.6936,0.731,0.7762,0.828,0.8698,0.9186,0.9652,0.9406,0.89,0.7644,0.6437,0.5186,0.3978,0.2726,0.1428,0.0157,-0.1093,-0.2409,-0.3718,-0.4956,-0.6357,-0.7414,-0.7998,-0.8535,-0.9014,-0.9518,-1.0038,-1.0482,-1.0934,-1.1505,-1.197,-1.2453,-1.2935,-1.3434,-1.3998,-1.4374,-1.4613,-1.4975,-1.5199,-1.5415,-1.5776,-1.6011,-1.6388,-1.6616,-1.6999,-1.7238,-1.7478,-1.786,-1.8084,-1.824,-1.8399,-1.8742,-1.8891,-1.9027,-1.9182,-1.9313,-1.9618,-1.9749,-1.9874,-2.0173,-2.028,-2.0357,-2.0372,-2.0081,-1.973,-1.9577,-1.9214,-1.8856,-1.8487,-1.8123,-1.777,-1.74,-1.702,-1.6864,-1.6486,-1.6099,-1.6574,-1.7274,-1.797,-1.8901,-1.9835,-2.0541,-2.1483,-2.2421,-2.3145,-2.4107,-2.4864,-2.5836,-2.6592,-2.742,-2.8074,-2.8601,-2.9123,-2.9669,-3.0231,-3.0787,-3.1338,-3.1654,-3.2201,-3.2774,-3.3351,-3.3934,-3.427,-3.4859,-3.5329,-3.5693,-3.6259,-3.6836,0.3297,0.3765,0.4318,0.4753,0.5265,0.5755,0.6224,0.6765,0.7292,0.7797,0.8365,0.8132,0.7648,0.65,0.5315,0.4092,0.2904,0.1673,0.0472,-0.078,-0.1935,-0.3234,-0.4451,-0.5682,-0.6994,-0.8122,-0.8641,-0.9182,-0.9668,-1.0097,-1.063,-1.109,-1.156,-1.2038,-1.2525,-1.3012,-1.3518,-1.4032,-1.4483,-1.4889,-1.5142,-1.5514,-1.575,-1.6119,-1.6358,-1.6597,-1.6992,-1.7382,-1.7635,-1.8031,-1.8286,-1.8521,-1.8926,-1.8971,-1.9169,-1.9371,-1.9565,-1.9744,-1.9926,-2.0101,-2.027,-2.0432,-2.0579,-2.0719,-2.0853,-2.0964,-2.0986,-2.0707,-2.0351,-1.9992,-1.9631,-1.9058,-1.869,-1.8327,-1.7968,-1.7599,-1.722,-1.6845,-1.6461,-1.629,-1.6549,-1.7241,-1.8153,-1.8851,-1.9783,-2.0495,-2.1427,-2.2355,-2.3076,-2.4018,-2.4773,-2.5741,-2.6485,-2.7311,-2.7974,-2.85,-2.9051,-2.9597,-3.0169,-3.0969,-3.1532,-3.211,-3.2683,-3.3271,-3.3864,-3.4462,-3.5076,-3.5427,-3.5882,-3.6498,-3.6814,-3.735,0.1496,0.1993,0.2579,0.314,0.368,0.4193,0.4786,0.5265,0.5816,0.6336,0.7012,0.6882,0.6328,0.5207,0.4051,0.285,0.1765,0.0633,-0.0547,-0.1699,-0.2835,-0.4114,-0.5319,-0.6461,-0.7767,-0.8888,-0.9335,-0.9879,-1.038,-1.0818,-1.1184,-1.1754,-1.2141,-1.2634,-1.3136,-1.3535,-1.4043,-1.4571,-1.505,-1.5472,-1.574,-1.5989,-1.6374,-1.6773,-1.7036,-1.729,-1.7697,-1.7962,-1.8376,-1.8784,-1.9034,-1.9293,-1.9563,-1.9822,-1.9911,-2.0164,-2.0219,-2.027,-2.0476,-2.0702,-2.0728,-2.0919,-2.1111,-2.1288,-2.1458,-2.1402,-2.142,-2.1135,-2.0772,-2.0415,-1.9854,-1.9483,-1.9117,-1.8537,-1.8384,-1.7797,-1.7426,-1.7046,-1.6657,-1.6259,-1.6524,-1.7222,-1.8119,-1.8808,-1.9732,-2.0434,-2.1372,-2.2072,-2.2999,-2.3712,-2.4664,-2.541,-2.6141,-2.6973,-2.7632,-2.8408,-2.8969,-2.9535,-3.0106,-3.0905,-3.15,-3.2089,-3.2923,-3.3525,-3.4143,-3.4754,-3.5405,-3.6019,-3.6471,-3.6826,-3.7152,-3.7662,-0.0107,0.0524,0.1029,0.1616,0.2083,0.2628,0.325,0.3752,0.4321,0.4864,0.5483,0.5289,0.485,0.3758,0.263,0.1536,0.0478,-0.0628,-0.1782,-0.2914,-0.403,-0.5215,-0.6398,-0.7519,-0.881,-0.9848,-1.0284,-1.0688,-1.1185,-1.1645,-1.2037,-1.2515,-1.2927,-1.3343,-1.3866,-1.429,-1.4716,-1.5144,-1.5635,-1.6065,-1.6361,-1.6637,-1.7045,-1.7323,-1.7738,-1.8018,-1.8309,-1.8721,-1.9014,-1.9454,-1.9728,-2.0013,-2.0319,-2.0469,-2.0615,-2.0746,-2.0853,-2.0964,-2.1051,-2.1142,-2.1208,-2.1446,-2.1486,-2.151,-2.1701,-2.1665,-2.1718,-2.1227,-2.0854,-2.0486,-2.0109,-1.9528,-1.9154,-1.877,-1.8186,-1.7811,-1.7433,-1.7039,-1.665,-1.6032,-1.6505,-1.698,-1.7876,-1.8557,-1.9241,-2.0149,-2.0844,-2.1548,-2.2464,-2.3173,-2.3886,-2.4609,-2.5335,-2.6151,-2.7032,-2.7609,-2.8406,-2.8987,-2.9803,-3.0408,-3.1243,-3.1861,-3.2485,-3.3347,-3.3984,-3.4865,-3.5528,-3.5914,-3.6383,-3.6733,-3.7053,-3.7571,-0.1597,-0.1047,-0.0514,0.0,0.0594,0.1166,0.1717,0.2245,0.284,0.3322,0.3963,0.3803,0.3307,0.2246,0.1226,0.0241,-0.0869,-0.1948,-0.3001,-0.4105,-0.5198,-0.6289,-0.7453,-0.8558,-0.9823,-1.0768,-1.1204,-1.1603,-1.1968,-1.2434,-1.2836,-1.3231,-1.3666,-1.4104,-1.4546,-1.4991,-1.533,-1.5778,-1.6281,-1.673,-1.7047,-1.7353,-1.766,-1.7966,-1.8394,-1.8702,-1.9011,-1.9309,-1.9758,-2.0069,-2.0391,-2.0702,-2.1024,-2.1094,-2.1289,-2.1306,-2.1476,-2.1471,-2.1625,-2.1575,-2.1683,-2.1775,-2.185,-2.1919,-2.1953,-2.1937,-2.1804,-2.1525,-2.0935,-2.055,-2.0164,-1.9784,-1.9183,-1.8799,-1.8419,-1.7818,-1.7433,-1.7039,-1.6638,-1.6026,-1.6271,-1.6954,-1.7633,-1.8307,-1.8967,-1.965,-2.0334,-2.1028,-2.1724,-2.263,-2.3113,-2.3815,-2.4527,-2.5335,-2.6218,-2.6804,-2.7622,-2.8441,-2.9291,-3.0143,-3.0997,-3.1633,-3.2286,-3.3168,-3.4061,-3.4727,-3.5662,-3.6061,-3.6544,-3.6897,-3.6964,-3.7261,-0.3191,-0.2614,-0.2052,-0.1511,-0.0989,-0.0388,0.019,0.0653,0.128,0.1792,0.2371,0.2241,0.186,0.0829,-0.0163,-0.1119,-0.2121,-0.3171,-0.4195,-0.5204,-0.6275,-0.7339,-0.8411,-0.9654,-1.0736,-1.1642,-1.2085,-1.2496,-1.2866,-1.3256,-1.3666,-1.4018,-1.4462,-1.4827,-1.5266,-1.563,-1.598,-1.646,-1.6874,-1.734,-1.7558,-1.7882,-1.8354,-1.868,-1.9006,-1.9333,-1.9671,-2.0009,-2.0347,-2.0813,-2.1165,-2.1505,-2.1845,-2.1817,-2.1923,-2.2025,-2.1928,-2.1975,-2.2006,-2.2179,-2.2153,-2.2287,-2.2214,-2.2114,-2.2189,-2.2211,-2.2087,-2.1818,-2.1225,-2.0831,-2.0226,-1.9837,-1.9446,-1.8828,-1.8426,-1.7825,-1.7433,-1.7033,-1.6417,-1.6013,-1.6259,-1.672,-1.7385,-1.805,-1.8716,-1.9383,-2.0058,-2.0519,-2.1204,-2.1883,-2.2579,-2.3053,-2.3744,-2.4545,-2.5201,-2.6246,-2.7065,-2.7887,-2.875,-2.9626,-3.0504,-3.1405,-3.2307,-3.2988,-3.3912,-3.4837,-3.5542,-3.6207,-3.6705,-3.6824,-3.6885,-3.7176,-0.4786,-0.4179,-0.3694,-0.312,-0.2568,-0.1938,-0.1425,-0.0839,-0.0365,0.0179,0.0789,0.0688,0.0337,-0.0578,-0.154,-0.2468,-0.3439,-0.4461,-0.5377,-0.6437,-0.7412,-0.8445,-0.9498,-1.0641,-1.1761,-1.2593,-1.3026,-1.3358,-1.3727,-1.4118,-1.4463,-1.4836,-1.521,-1.5572,-1.5946,-1.6319,-1.6588,-1.7061,-1.7501,-1.7885,-1.8256,-1.8615,-1.8986,-1.9344,-1.9702,-2.0073,-2.0432,-2.0778,-2.1149,-2.1519,-2.1903,-2.2261,-2.262,-2.2512,-2.2537,-2.255,-2.2527,-2.2622,-2.2552,-2.2599,-2.2619,-2.2611,-2.2576,-2.2523,-2.2433,-2.2494,-2.2173,-2.1894,-2.1299,-2.0888,-2.0492,-1.9883,-1.9484,-1.8871,-1.8454,-1.8051,-1.744,-1.7033,-1.6411,-1.6007,-1.6246,-1.6695,-1.7137,-1.7788,-1.8452,-1.8903,-1.9569,-2.002,-2.0687,-2.1363,-2.1833,-2.2503,-2.2958,-2.3753,-2.441,-2.5451,-2.6288,-2.7365,-2.8231,-2.912,-3.0258,-3.1166,-3.2097,-3.3031,-3.3988,-3.4707,-3.5687,-3.6365,-3.6613,-3.6725,-3.6815,-3.6869,-0.6272,-0.5744,-0.5236,-0.4633,-0.4049,-0.3585,-0.2945,-0.2426,-0.192,-0.1432,-0.0789,-0.086,-0.1179,-0.2059,-0.2988,-0.3889,-0.475,-0.5739,-0.671,-0.7664,-0.8618,-0.9629,-1.0652,-1.1682,-1.278,-1.3663,-1.4043,-1.4367,-1.4642,-1.4953,-1.5233,-1.5608,-1.5972,-1.6263,-1.6656,-1.7049,-1.7357,-1.772,-1.8056,-1.8476,-1.8896,-1.929,-1.9671,-1.9947,-2.0339,-2.0744,-2.1136,-2.1501,-2.1906,-2.2178,-2.2581,-2.297,-2.3347,-2.3339,-2.3297,-2.322,-2.3096,-2.3099,-2.3064,-2.2991,-2.2879,-2.2933,-2.2947,-2.2923,-2.2888,-2.2779,-2.2468,-2.1978,-2.1567,-2.0952,-2.0547,-1.9921,-1.9521,-1.8907,-1.8483,-1.7859,-1.7446,-1.6826,-1.6411,-1.5787,-1.6013,-1.6455,-1.689,-1.7533,-1.7975,-1.8639,-1.9081,-1.9517,-2.0181,-2.0633,-2.1077,-2.1735,-2.2179,-2.2967,-2.3832,-2.4653,-2.5729,-2.6618,-2.7722,-2.8857,-2.9775,-3.0947,-3.1886,-3.2828,-3.3826,-3.4838,-3.5842,-3.6533,-3.6784,-3.6899,-3.6719,-3.6814,-0.7872,-0.7312,-0.6772,-0.6241,-0.5632,-0.5138,-0.4564,-0.4008,-0.3474,-0.2958,-0.2371,-0.2408,-0.2696,-0.3542,-0.436,-0.523,-0.6133,-0.7017,-0.7962,-0.8811,-0.9793,-1.0779,-1.1767,-1.2694,-1.3784,-1.4662,-1.5007,-1.5245,-1.5524,-1.5826,-1.6106,-1.6482,-1.6765,-1.6991,-1.7371,-1.7691,-1.8036,-1.8318,-1.8683,-1.9112,-1.9452,-1.9884,-2.0315,-2.0631,-2.1047,-2.1356,-2.1782,-2.2195,-2.2495,-2.2919,-2.3357,-2.3767,-2.4028,-2.3982,-2.3876,-2.3876,-2.3826,-2.3727,-2.3599,-2.3582,-2.3346,-2.3263,-2.3318,-2.3156,-2.3153,-2.3074,-2.2773,-2.2282,-2.1658,-2.1236,-2.061,-2.0187,-1.9559,-1.9141,-1.8504,-1.8085,-1.7453,-1.6819,-1.6398,-1.5769,-1.5989,-1.6209,-1.6638,-1.7286,-1.772,-1.8155,-1.8589,-1.9016,-1.9457,-2.0113,-2.0547,-2.0981,-2.1423,-2.2196,-2.2846,-2.4116,-2.4969,-2.609,-2.7206,-2.8352,-2.9519,-3.0468,-3.1675,-3.2656,-3.3923,-3.4958,-3.5986,-3.6691,-3.6944,-3.6808,-3.6644,-3.6486,-0.9472,-0.8883,-0.8309,-0.7757,-0.7219,-0.6696,-0.6097,-0.56,-0.5035,-0.4489,-0.3963,-0.3967,-0.4216,-0.5028,-0.5808,-0.6642,-0.7512,-0.8282,-0.92,-1.0095,-1.0968,-1.1917,-1.2867,-1.3773,-1.4825,-1.5662,-1.598,-1.6233,-1.6444,-1.675,-1.7025,-1.7303,-1.7519,-1.7748,-1.804,-1.8291,-1.8639,-1.8954,-1.9333,-1.9801,-2.016,-2.0528,-2.0892,-2.1347,-2.1703,-2.204,-2.2372,-2.2835,-2.3174,-2.3619,-2.4079,-2.4394,-2.4823,-2.4727,-2.4573,-2.4508,-2.438,-2.4188,-2.4123,-2.3992,-2.3808,-2.3764,-2.3687,-2.3566,-2.341,-2.3164,-2.2869,-2.2587,-2.1953,-2.1309,-2.0877,-2.0241,-1.9596,-1.9163,-1.8532,-1.8099,-1.746,-1.6819,-1.6392,-1.5751,-1.5751,-1.6172,-1.6606,-1.7033,-1.7466,-1.768,-1.8099,-1.8525,-1.8958,-1.9391,-1.9808,-2.0233,-2.0673,-2.1226,-2.2081,-2.3355,-2.4444,-2.5556,-2.692,-2.808,-2.9027,-3.0238,-3.1462,-3.273,-3.3769,-3.5068,-3.612,-3.686,-3.6847,-3.6727,-3.6579,-3.6413,-1.0981,-1.0469,-0.9968,-0.9387,-0.8813,-0.826,-0.7729,-0.7112,-0.6604,-0.6033,-0.5561,-0.5527,-0.5825,-0.6599,-0.7338,-0.8121,-0.8888,-0.9701,-1.0495,-1.1361,-1.2205,-1.3114,-1.4038,-1.4969,-1.5915,-1.6705,-1.6925,-1.7172,-1.7401,-1.7619,-1.7808,-1.8109,-1.8319,-1.8546,-1.8753,-1.9023,-1.9391,-1.9602,-1.9994,-2.0391,-2.0814,-2.12,-2.1492,-2.1881,-2.2281,-2.2661,-2.315,-2.3522,-2.3889,-2.4389,-2.4778,-2.5133,-2.5482,-2.5459,-2.525,-2.5101,-2.4903,-2.4786,-2.4614,-2.4386,-2.4277,-2.41,-2.4056,-2.379,-2.3658,-2.3435,-2.3168,-2.2665,-2.2224,-2.1579,-2.0933,-2.0279,-1.9846,-1.92,-1.8554,-1.8113,-1.746,-1.6826,-1.6398,-1.5745,-1.5739,-1.594,-1.6367,-1.6787,-1.6994,-1.7413,-1.7619,-1.8037,-1.8461,-1.8886,-1.909,-1.9499,-1.9702,-2.0461,-2.1315,-2.2598,-2.3682,-2.5024,-2.6176,-2.7576,-2.879,-3.0018,-3.127,-3.2556,-3.3855,-3.4922,-3.6275,-3.7029,-3.7028,-3.6654,-3.651,-3.6337,-1.2605,-1.2065,-1.1545,-1.1027,-1.0432,-0.9842,-0.9282,-0.8729,-0.8197,-0.7672,-0.7081,-0.7107,-0.7363,-0.8088,-0.8791,-0.9453,-1.0265,-1.1033,-1.1784,-1.2606,-1.3421,-1.4284,-1.5163,-1.6069,-1.6969,-1.7706,-1.7928,-1.808,-1.8284,-1.8478,-1.8672,-1.8888,-1.9033,-1.9269,-1.9504,-1.9756,-2.0041,-2.0286,-2.0616,-2.104,-2.1403,-2.1837,-2.2166,-2.2605,-2.3054,-2.3358,-2.3779,-2.4178,-2.4589,-2.5129,-2.5548,-2.5946,-2.6339,-2.6152,-2.5895,-2.5683,-2.5572,-2.5379,-2.5105,-2.4954,-2.4731,-2.4607,-2.4424,-2.4201,-2.3917,-2.3724,-2.3256,-2.2751,-2.23,-2.1644,-2.0989,-2.0539,-1.9877,-1.9229,-1.8575,-1.8127,-1.7466,-1.6826,-1.6178,-1.5525,-1.5507,-1.5709,-1.6123,-1.6536,-1.6742,-1.6935,-1.7353,-1.7551,-1.7968,-1.8165,-1.8362,-1.877,-1.8958,-1.971,-2.0562,-2.1846,-2.3154,-2.4503,-2.5673,-2.7092,-2.8544,-2.9798,-3.1067,-3.236,-3.3688,-3.5041,-3.6419,-3.7198,-3.6939,-3.6824,-3.6427,-3.627,-1.424,-1.3673,-1.3127,-1.2581,-1.2056,-1.1446,-1.0943,-1.0276,-0.9807,-0.925,-0.8708,-0.86,-0.8822,-0.951,-1.024,-1.0788,-1.1557,-1.2352,-1.3069,-1.3845,-1.4613,-1.5362,-1.6277,-1.7155,-1.7988,-1.8687,-1.8928,-1.9084,-1.9174,-1.9295,-1.9445,-1.9596,-1.9766,-1.9936,-2.0197,-2.0362,-2.0622,-2.0898,-2.1258,-2.1602,-2.2023,-2.2415,-2.278,-2.3286,-2.3667,-2.4126,-2.458,-2.4936,-2.5377,-2.5813,-2.6159,-2.6704,-2.7141,-2.695,-2.6645,-2.624,-2.6056,-2.5944,-2.5611,-2.5515,-2.5169,-2.4929,-2.4613,-2.4436,-2.4388,-2.4024,-2.3557,-2.306,-2.2393,-2.1932,-2.1258,-2.0578,-1.9914,-1.9251,-1.881,-1.8148,-1.7473,-1.6819,-1.6166,-1.5519,-1.5501,-1.5685,-1.5879,-1.608,-1.6492,-1.6684,-1.6883,-1.7075,-1.7477,-1.7667,-1.785,-1.8039,-1.8228,-1.8762,-1.9603,-2.1099,-2.2417,-2.3992,-2.5408,-2.6841,-2.8071,-2.9567,-3.0852,-3.2163,-3.3773,-3.5172,-3.6564,-3.7367,-3.7108,-3.6736,-3.6331,-3.5937,-1.5786,-1.5205,-1.4723,-1.4149,-1.3598,-1.2972,-1.2442,-1.1923,-1.1314,-1.0828,-1.0274,-1.0209,-1.0386,-1.1036,-1.165,-1.223,-1.2925,-1.3612,-1.4353,-1.5079,-1.5798,-1.6578,-1.7359,-1.8249,-1.9084,-1.9741,-1.9957,-2.0031,-2.0068,-2.0239,-2.0319,-2.047,-2.0624,-2.0781,-2.0887,-2.1137,-2.1332,-2.1543,-2.183,-2.2268,-2.2646,-2.3008,-2.3447,-2.3876,-2.4394,-2.4805,-2.5206,-2.5703,-2.6103,-2.6587,-2.6951,-2.7305,-2.7786,-2.7561,-2.7358,-2.6941,-2.671,-2.6533,-2.6094,-2.5899,-2.5602,-2.543,-2.499,-2.4837,-2.4629,-2.4307,-2.3859,-2.3155,-2.2469,-2.2007,-2.1323,-2.0641,-1.9967,-1.9509,-1.8838,-1.8168,-1.75,-1.6832,-1.6172,-1.5513,-1.5483,-1.5454,-1.5642,-1.5836,-1.603,-1.6217,-1.6396,-1.6594,-1.6779,-1.6956,-1.7139,-1.7328,-1.7517,-1.8046,-1.8878,-2.0365,-2.1911,-2.3493,-2.4898,-2.6339,-2.7824,-2.9336,-3.0647,-3.2235,-3.3615,-3.5033,-3.6719,-3.7524,-3.7299,-3.6668,-3.6254,-3.5863,-1.7347,-1.6844,-1.6234,-1.5648,-1.5168,-1.4601,-1.3961,-1.3496,-1.2947,-1.2421,-1.185,-1.1751,-1.1882,-1.2497,-1.305,-1.367,-1.4312,-1.4948,-1.5653,-1.6311,-1.7041,-1.7766,-1.8491,-1.9303,-2.0158,-2.0768,-2.0906,-2.0945,-2.1024,-2.1118,-2.1211,-2.1273,-2.1403,-2.1561,-2.1607,-2.186,-2.2044,-2.2174,-2.2493,-2.2874,-2.33,-2.371,-2.4125,-2.4596,-2.5057,-2.5527,-2.5986,-2.6435,-2.6873,-2.7319,-2.7735,-2.8123,-2.8635,-2.8273,-2.8049,-2.7615,-2.7329,-2.708,-2.6727,-2.6266,-2.6043,-2.5748,-2.5356,-2.5053,-2.489,-2.4391,-2.3958,-2.3466,-2.2769,-2.2073,-2.1387,-2.0703,-2.0227,-1.9554,-1.8867,-1.8182,-1.7513,-1.6839,-1.6172,-1.5507,-1.5258,-1.543,-1.5406,-1.5594,-1.5782,-1.5745,-1.5925,-1.6117,-1.6295,-1.6257,-1.6434,-1.6616,-1.6597,-1.7322,-1.8151,-1.9635,-2.118,-2.277,-2.4398,-2.5846,-2.7341,-2.8873,-3.0442,-3.2057,-3.371,-3.5152,-3.6863,-3.7704,-3.7216,-3.6847,-3.6186,-3.5787,-1.8912,-1.8284,-1.7778,-1.7266,-1.6663,-1.6166,-1.5595,-1.5021,-1.4522,-1.3967,-1.3447,-1.3399,-1.3491,-1.3948,-1.4553,-1.512,-1.5707,-1.6289,-1.6922,-1.7522,-1.8175,-1.8945,-1.967,-2.0373,-2.1209,-2.1824,-2.187,-2.1883,-2.1938,-2.1955,-2.2034,-2.2124,-2.2165,-2.2257,-2.2375,-2.2562,-2.2752,-2.2895,-2.3109,-2.3441,-2.3859,-2.4338,-2.4801,-2.5249,-2.5681,-2.621,-2.6613,-2.7099,-2.7491,-2.7991,-2.8461,-2.8902,-2.935,-2.8959,-2.8721,-2.8245,-2.7913,-2.7612,-2.7188,-2.6816,-2.6491,-2.6244,-2.5899,-2.5475,-2.5152,-2.4676,-2.4272,-2.377,-2.3061,-2.2355,-2.1659,-2.0957,-2.0266,-1.9569,-1.8881,-1.8196,-1.7513,-1.6839,-1.6166,-1.5489,-1.5241,-1.5206,-1.517,-1.5347,-1.5311,-1.5281,-1.5462,-1.5641,-1.5605,-1.577,-1.5746,-1.5922,-1.5885,-1.6395,-1.7423,-1.891,-2.0671,-2.2273,-2.3907,-2.5596,-2.7104,-2.866,-3.0491,-3.2129,-3.355,-3.5271,-3.6754,-3.7607,-3.7395,-3.6752,-3.6093,-3.544,-2.0464,-1.9913,-1.9384,-1.8846,-1.8315,-1.7805,-1.7195,-1.6608,-1.6093,-1.551,-1.5052,-1.4871,-1.4997,-1.5413,-1.5933,-1.646,-1.6988,-1.758,-1.8153,-1.8712,-1.9303,-1.999,-2.0651,-2.1288,-2.206,-2.2619,-2.2677,-2.2735,-2.271,-2.2702,-2.2737,-2.278,-2.2832,-2.2917,-2.3032,-2.3152,-2.3274,-2.3488,-2.3658,-2.3943,-2.4411,-2.488,-2.5306,-2.5817,-2.6224,-2.6679,-2.7119,-2.7563,-2.803,-2.846,-2.8979,-2.9447,-2.9833,-2.9438,-2.905,-2.8661,-2.8269,-2.7889,-2.7538,-2.7044,-2.6763,-2.639,-2.6097,-2.5712,-2.5221,-2.4761,-2.4363,-2.3859,-2.313,-2.2422,-2.1716,-2.1005,-2.0296,-1.9598,-1.8903,-1.821,-1.752,-1.6839,-1.616,-1.5471,-1.5223,-1.5188,-1.5147,-1.5106,-1.5065,-1.5036,-1.5001,-1.518,-1.5139,-1.5097,-1.5068,-1.5026,-1.499,-1.5495,-1.6517,-1.821,-1.9742,-2.1555,-2.3197,-2.4898,-2.6639,-2.8437,-3.0048,-3.1698,-3.3388,-3.5118,-3.6898,-3.7775,-3.7285,-3.6666,-3.5998,-3.5357,-2.2098,-2.1523,-2.1069,-2.0409,-1.9869,-1.9413,-1.8793,-1.8257,-1.7638,-1.7045,-1.6546,-1.6417,-1.6488,-1.6783,-1.7245,-1.7681,-1.8236,-1.8786,-1.9297,-1.9856,-2.0381,-2.0978,-2.157,-2.2112,-2.281,-2.3236,-2.3326,-2.3372,-2.3392,-2.3356,-2.3392,-2.339,-2.3452,-2.3549,-2.3656,-2.3769,-2.385,-2.4036,-2.4233,-2.4499,-2.4924,-2.5345,-2.5785,-2.6278,-2.6749,-2.7135,-2.7541,-2.7946,-2.8446,-2.8928,-2.9373,-2.9782,-3.0085,-2.9811,-2.9398,-2.8947,-2.8506,-2.8041,-2.7741,-2.7294,-2.6885,-2.6546,-2.6108,-2.5764,-2.5281,-2.4846,-2.4238,-2.373,-2.2991,-2.2272,-2.1765,-2.1044,-2.0327,-1.9628,-1.8931,-1.8231,-1.752,-1.6839,-1.6154,-1.546,-1.5206,-1.5165,-1.4912,-1.4866,-1.4826,-1.4785,-1.4756,-1.4727,-1.4479,-1.4439,-1.4393,-1.4359,-1.4108,-1.4612,-1.5629,-1.7306,-1.9049,-2.0853,-2.2496,-2.4423,-2.6172,-2.7747,-2.9602,-3.1254,-3.3225,-3.4974,-3.6775,-3.7663,-3.7173,-3.6556,-3.5648,-3.5011,-2.3677,-2.3096,-2.2616,-2.2028,-2.1446,-2.0887,-2.0262,-1.9733,-1.9107,-1.8576,-1.8035,-1.7782,-1.7745,-1.8037,-1.8443,-1.8755,-1.9171,-1.9567,-1.9991,-2.0421,-2.0879,-2.1382,-2.1854,-2.2376,-2.2877,-2.3248,-2.3315,-2.3391,-2.3455,-2.3436,-2.3442,-2.3517,-2.3551,-2.3651,-2.3705,-2.3847,-2.3996,-2.4126,-2.4358,-2.4572,-2.494,-2.5293,-2.5682,-2.6059,-2.6462,-2.6751,-2.7094,-2.7409,-2.783,-2.8228,-2.8562,-2.8912,-2.9238,-2.8967,-2.855,-2.8107,-2.7776,-2.7315,-2.6988,-2.6525,-2.6246,-2.5883,-2.5421,-2.504,-2.4745,-2.4294,-2.3677,-2.3162,-2.264,-2.2121,-2.138,-2.0875,-2.0365,-1.965,-1.9161,-1.8445,-1.7941,-1.7246,-1.6762,-1.6067,-1.5812,-1.5558,-1.5305,-1.5059,-1.4814,-1.457,-1.4327,-1.409,-1.3843,-1.3597,-1.3363,-1.3331,-1.3088,-1.3379,-1.4383,-1.6038,-1.7754,-1.9762,-2.1383,-2.3296,-2.5041,-2.6819,-2.8657,-3.0301,-3.2255,-3.4008,-3.5792,-3.6694,-3.6231,-3.5643,-3.5018,-3.4146,-2.5322,-2.4716,-2.421,-2.3615,-2.3008,-2.2354,-2.1796,-2.1261,-2.0629,-1.9988,-1.9422,-1.915,-1.8993,-1.9293,-1.9553,-1.9797,-2.0075,-2.0359,-2.0649,-2.0987,-2.1396,-2.1723,-2.2071,-2.2571,-2.2926,-2.324,-2.3283,-2.3324,-2.3402,-2.3428,-2.3502,-2.3574,-2.3582,-2.3653,-2.3762,-2.3906,-2.4142,-2.4278,-2.4459,-2.4687,-2.4924,-2.5196,-2.5561,-2.5808,-2.6088,-2.6431,-2.665,-2.6896,-2.7146,-2.7456,-2.7695,-2.8067,-2.8323,-2.8043,-2.7611,-2.7264,-2.6932,-2.6585,-2.6085,-2.575,-2.544,-2.5056,-2.4737,-2.432,-2.3999,-2.3522,-2.311,-2.2587,-2.2277,-2.1742,-2.1218,-2.0697,-2.0187,-1.9672,-1.9168,-1.866,-1.8361,-1.7873,-1.738,-1.689,-1.6415,-1.5956,-1.5498,-1.5252,-1.4803,-1.4349,-1.4106,-1.3661,-1.3421,-1.2973,-1.2537,-1.2305,-1.1867,-1.2151,-1.2932,-1.477,-1.6465,-1.8448,-2.0271,-2.1935,-2.3892,-2.565,-2.7466,-2.9361,-3.1039,-3.3034,-3.4801,-3.5706,-3.5549,-3.4977,-3.4113,-3.3522,-2.7005,-2.6396,-2.5792,-2.5173,-2.456,-2.3905,-2.3238,-2.2684,-2.2115,-2.1552,-2.0914,-2.0606,-2.0407,-2.0537,-2.0653,-2.0784,-2.0902,-2.1135,-2.1271,-2.1538,-2.1797,-2.2077,-2.2327,-2.2623,-2.2949,-2.3161,-2.3197,-2.3248,-2.3354,-2.3369,-2.3418,-2.3512,-2.3594,-2.3695,-2.3857,-2.4002,-2.4239,-2.4405,-2.4598,-2.4718,-2.4965,-2.5168,-2.5328,-2.5547,-2.5812,-2.6025,-2.6187,-2.6387,-2.6582,-2.6728,-2.6994,-2.7158,-2.741,-2.7136,-2.6811,-2.6302,-2.607,-2.5701,-2.5334,-2.4968,-2.4639,-2.421,-2.3867,-2.3612,-2.3273,-2.2975,-2.2538,-2.222,-2.1683,-2.1368,-2.1047,-2.0518,-2.0217,-1.991,-1.9398,-1.9096,-1.8589,-1.8291,-1.7784,-1.7286,-1.6812,-1.6358,-1.5894,-1.5438,-1.4785,-1.4338,-1.3688,-1.3249,-1.2801,-1.2146,-1.1711,-1.1276,-1.0636,-1.0921,-1.1693,-1.3501,-1.5384,-1.7125,-1.8935,-2.0794,-2.2729,-2.4481,-2.6284,-2.8157,-3.0074,-3.2043,-3.3813,-3.4719,-3.4567,-3.4033,-3.3464,-3.2623,-2.86,-2.797,-2.7344,-2.6724,-2.6023,-2.5415,-2.4749,-2.4173,-2.3602,-2.2935,-2.2317,-2.1976,-2.1718,-2.1721,-2.1745,-2.1715,-2.1825,-2.1898,-2.1938,-2.2076,-2.2237,-2.234,-2.2516,-2.2735,-2.2917,-2.3072,-2.3124,-2.3186,-2.3235,-2.3256,-2.3397,-2.3456,-2.3618,-2.3691,-2.3879,-2.4052,-2.426,-2.4457,-2.4685,-2.4818,-2.497,-2.5091,-2.5197,-2.5322,-2.5552,-2.5641,-2.5661,-2.5792,-2.5928,-2.6086,-2.6194,-2.6358,-2.6534,-2.6228,-2.5883,-2.5498,-2.5231,-2.4975,-2.4578,-2.418,-2.4005,-2.356,-2.3179,-2.2907,-2.252,-2.2197,-2.1959,-2.1628,-2.1305,-2.0975,-2.0656,-2.0346,-2.003,-1.9717,-1.962,-1.9317,-1.9009,-1.8702,-1.8391,-1.8088,-1.741,-1.6956,-1.6288,-1.5629,-1.4768,-1.4117,-1.3474,-1.2826,-1.2174,-1.153,-1.0886,-1.0249,-0.9404,-0.9684,-1.0447,-1.2229,-1.4086,-1.6027,-1.7815,-1.9659,-2.1566,-2.355,-2.5353,-2.721,-2.912,-3.1083,-3.2836,-3.4008,-3.3606,-3.3088,-3.2546,-3.1988,-3.0167,0.0,-2.887,-2.8274,-2.7576,-2.6864,0.0,-2.5644,-2.4994,-2.4351,-2.3694,-2.3244,-2.297,-2.2902,-2.2831,-2.2685,-2.2676,-2.2651,-2.2642,-2.2656,-2.2638,-2.2638,-2.2665,-2.2737,-2.2847,-2.298,-2.3042,-2.3085,-2.3142,-2.3214,-2.3305,-2.3486,-2.3571,-2.3715,-2.3885,-2.4075,-2.4234,-2.451,-2.475,-2.4982,-2.5051,-2.5076,-2.5097,-2.5206,-2.5254,-2.5299,-2.5245,-2.5243,-2.5262,-2.5351,-2.5416,-2.5508,-2.5564,-2.5335,-2.4968,-2.4704,-2.4401,-2.4094,-2.3816,-2.3408,-2.32,-2.2718,-2.2494,-2.2193,-2.1768,-2.1629,-2.1375,-2.1031,-2.0924,-2.0588,-2.0482,-2.0173,-2.0068,-1.9739,-1.9635,-1.9532,-1.9207,-1.9105,-1.8784,-1.8683,-1.7997,-1.7335,-1.6466,-1.5605,-1.4965,-1.4112,-1.3254,-1.2398,-1.1552,-1.0707,-1.006,-0.9217,-0.8378,-0.8438,-0.9186,-1.0949,-1.2785,-1.4694,-1.6687,-1.8517,-2.0402,-2.2372,-2.4161,-2.6246,-2.8148,-3.0122,-3.1858,-3.3033,-3.2653,-3.2424,-3.1887,-3.1094,0.0,-3.1083,-3.0441,-2.9744,-2.9113,-2.8405,-2.7703,-2.7088,0.0,-2.5785,-2.5132,-2.4651,-2.4317,-2.4106,-2.3823,-2.3646,-2.3522,-2.3366,-2.3235,-2.3071,-2.3,-2.2907,-2.2803,-2.2771,-2.2775,-2.2815,-2.2875,-2.2962,-2.3005,-2.3134,-2.3248,-2.3382,-2.3554,-2.3781,-2.3965,-2.4164,-2.4395,-2.4671,-2.4846,-2.5046,-2.501,-2.4969,-2.5,-2.4938,-2.4865,-2.4914,-2.4852,-2.4767,-2.4752,-2.4677,-2.4642,-2.4624,-2.4704,-2.4367,-2.4205,-2.3905,-2.3564,-2.3218,-2.3072,-2.2629,-2.2377,-2.2044,-2.1802,-2.1454,-2.122,-2.0844,-2.0562,-2.0435,-2.0317,-2.0206,-2.0094,-2.021,-1.988,-1.9769,-1.9866,-1.9746,-1.9618,-1.9514,-1.9401,-1.9281,-1.8596,-1.7726,-1.6864,-1.5801,-1.4739,-1.3886,-1.2826,-1.1975,-1.0921,-1.008,-0.9023,-0.8182,-0.7135,-0.7191,-0.7715,-0.9661,-1.147,-1.3353,-1.5325,-1.7372,-1.9243,-2.1185,-2.3205,-2.5023,-2.7176,-2.9133,-3.1137,-3.2039,-3.1946,-3.1467,-3.0955,-3.0438,-3.3293,-3.2654,-3.1994,-3.1283,-3.0602,-2.9879,-2.9263,-2.8575,-2.7917,-2.7166,-2.6521,-2.6062,-2.5596,-2.5284,-2.4903,-2.4588,-2.4334,-2.4081,-2.3799,-2.353,-2.3279,-2.3155,-2.2973,-2.2765,-2.2695,-2.267,-2.2734,-2.283,-2.2921,-2.3003,-2.3169,-2.3325,-2.3591,-2.3814,-2.4024,-2.425,-2.4505,-2.4779,-2.4995,-2.5119,-2.5018,-2.4889,-2.4819,-2.4684,-2.4614,-2.453,-2.444,-2.4247,0.0,-2.4026,-2.3889,-2.3899,-2.3763,-2.3514,-2.3324,-2.2951,-2.2722,-2.2501,-2.2159,-2.1842,-2.1555,-2.1373,-2.1093,-2.0716,-2.0453,-2.005,-1.9972,-2.0052,-1.9929,-1.982,-1.9925,-2.002,-1.9902,-2.0,-1.9873,-1.996,-1.9831,-1.9929,-2.0017,-1.9885,-1.9192,-1.8114,-1.7053,-1.5991,-1.493,-1.3661,-1.2607,-1.1557,-1.0502,-0.9243,-0.8195,-0.7146,-0.5889,-0.5726,-0.6234,-0.8369,-1.0148,-1.2234,-1.4188,-1.6219,-1.8075,-1.9996,-2.2243,-2.4059,-2.6196,-2.8145,-3.0141,-3.1322,-3.0962,-3.0497,-3.0009,-2.9508,-3.4889,-3.4154,-3.3478,-3.278,-3.2086,-3.1373,-3.0742,-3.0039,-2.9392,-2.8725,-2.7991,-2.7406,-2.6881,-2.645,-2.5972,-2.5474,-2.5096,-2.4716,-2.4332,-2.4011,-2.3654,-2.3325,-2.3073,-2.2788,-2.257,-2.2448,-2.2549,-2.2655,-2.2793,-2.2894,-2.3113,-2.3354,-2.3552,-2.3769,-2.4034,-2.4287,-2.4608,-2.4908,-2.5092,-2.5195,-2.5016,-2.4843,-2.4645,-2.4468,-2.4307,-2.411,-2.3968,-2.3731,-2.3597,-2.3378,-2.3156,-2.3084,-2.2834,-2.2656,-2.2423,-2.2155,-2.1909,-2.1656,-2.1411,-2.1048,-2.0915,-2.0695,-2.0386,-2.0191,-1.9899,-1.9469,-1.9369,-1.9453,-1.9559,-1.9655,-1.9748,-1.9845,-1.9931,-2.0008,-2.0096,-2.0181,-2.0264,-2.0336,-2.0413,-2.0486,-1.9792,-1.8717,-1.7241,-1.6181,-1.4919,-1.3651,-1.2393,-1.1134,-0.9875,-0.8618,-0.7365,-0.6109,-0.485,-0.4465,-0.4957,-0.7066,-0.9047,-1.1112,-1.3039,-1.5047,-1.6897,-1.9054,-2.1037,-2.31,-2.5223,-2.7147,-2.9152,-3.0334,-3.0256,-2.9803,-2.9336,-2.8856,-3.6391,-3.5645,-3.5007,-3.4297,-3.3592,-3.2892,-3.2197,-3.1507,-3.0822,-3.0071,-2.9422,-2.8808,-2.8131,-2.7626,-2.7075,-2.6477,-2.597,-2.5433,-2.4994,-2.4447,-2.3985,-2.3558,-2.3163,-2.2796,-2.2428,-2.2208,-2.2347,-2.2497,-2.2654,-2.284,-2.3081,-2.3311,-2.3564,-2.3805,-2.4061,-2.4345,-2.4688,-2.5054,-2.5211,-2.5298,-2.5058,-2.4823,-2.4568,-2.431,-2.407,-2.3867,-2.3622,-2.3344,-2.3063,-2.2769,-2.2577,-2.2283,-2.2029,-2.1794,-2.1529,-2.1377,-2.1088,-2.078,-2.0655,-2.0428,-2.0087,-1.9821,-1.9671,-1.9447,-1.9125,-1.8881,-1.8774,-1.8842,-1.8946,-1.9257,-1.9354,-1.9661,-1.9742,-2.003,-2.0111,-2.0403,-2.0469,-2.075,-2.1016,-2.1069,-2.0383,-1.9102,-1.7629,-1.6162,-1.4901,-1.3431,-1.1966,-1.0507,-0.925,-0.7785,-0.6535,-0.5067,-0.3594,-0.3411,-0.3674,-0.5758,-0.7712,-0.9755,-1.1891,-1.3878,-1.5952,-1.7846,-2.0072,-2.2125,-2.3971,-2.6155,-2.8144,-2.9335,-2.9268,-2.9108,-2.8645,-2.8177,-3.7986,-3.7228,-3.6531,-3.5811,-3.5095,-3.4411,-3.3659,-3.2985,-3.2217,-3.1481,-3.0848,-3.0113,-2.9446,-2.8779,-2.8129,-2.7517,-2.6823,-2.6184,-2.564,-2.4958,-2.4326,-2.3819,-2.3311,-2.2793,-2.2307,-2.1988,-2.2157,-2.2302,-2.2481,-2.2779,-2.3036,-2.3291,-2.3563,-2.3858,-2.4175,-2.4451,-2.4753,-2.5137,-2.5376,-2.5409,-2.5119,-2.4859,-2.4531,-2.423,-2.392,-2.3589,-2.3217,-2.2855,-2.2532,-2.2179,-2.1911,-2.1603,-2.122,-2.0954,-2.0654,-2.0615,-2.0258,-2.0053,-1.9903,-1.9629,-1.9423,-1.9137,-1.8957,-1.8695,-1.8341,-1.8301,-1.8166,-1.8231,-1.8548,-1.8871,-1.918,-1.9483,-1.9771,-2.0053,-2.0342,-2.0617,-2.0885,-2.1163,-2.1417,-2.1855,-2.0954,-1.9485,-1.8015,-1.6344,-1.4883,-1.3212,-1.1757,-1.0084,-0.8624,-0.7161,-0.5489,-0.4018,-0.2542,-0.2138,-0.2384,-0.4441,-0.6599,-0.8391,-1.0502,-1.2457,-1.4752,-1.6883,-1.8833,-2.087,-2.2977,-2.5146,-2.7414,-2.8608,-2.8559,-2.8122,-2.7664,-2.7496,-3.951,-3.8771,-3.8008,-3.7307,-3.661,-3.5945,-3.5157,-3.4402,-3.3653,-3.2978,-3.2293,-3.1533,-3.0768,-2.9976,-2.9227,-2.8458,-2.7716,-2.6944,-2.6188,-2.5432,-2.4687,-2.398,-2.3362,-2.2755,-2.2109,-2.1768,-2.1942,-2.2135,-2.2357,-2.2673,-2.2955,-2.3228,-2.3552,-2.393,-2.424,-2.457,-2.4893,-2.5339,-2.5517,-2.5574,-2.5236,-2.484,-2.45,-2.4073,-2.3694,-2.3248,-2.2875,-2.2408,-2.2023,-2.1688,-2.1213,-2.0827,-2.0333,-2.0134,-1.9915,-1.968,-1.9569,-1.9328,-1.9142,-1.8831,-1.8596,-1.8453,-1.8228,-1.7927,-1.7767,-1.7476,-1.7551,-1.7837,-1.8153,-1.8468,-1.8992,-1.929,-1.9793,-2.0075,-2.0357,-2.0839,-2.1301,-2.1558,-2.2017,-2.2448,-2.1341,-1.9867,-1.8194,-1.6532,-1.4866,-1.3207,-1.1543,-0.9875,-0.7995,-0.6324,-0.4649,-0.2966,-0.1274,-0.0857,-0.1087,-0.312,-0.525,-0.7248,-0.934,-1.1526,-1.3557,-1.5672,-1.7868,-1.9889,-2.198,-2.4148,-2.6401,-2.7586,-2.7547,-2.7406,-2.6967,-2.6539,-4.1136,-4.0389,-3.9617,-3.8838,-3.8161,-3.7391,-3.6653,-3.5863,-3.5202,-3.4477,-3.3813,-3.303,-3.2206,-3.1281,-3.037,-2.953,-2.8603,-2.7698,-2.6795,-2.5907,-2.5059,-2.4245,-2.3448,-2.269,-2.1903,-2.1513,-2.1746,-2.1989,-2.2238,-2.2571,-2.2897,-2.3215,-2.3593,-2.3929,-2.4352,-2.4701,-2.5045,-2.548,-2.5704,-2.5727,-2.534,-2.4871,-2.4419,-2.393,-2.3463,-2.2948,-2.2476,-2.1964,-2.1516,-2.102,-2.0546,-2.0048,-1.9566,-1.9331,-1.9047,-1.8889,-1.8724,-1.8448,-1.8373,-1.8207,-1.7934,-1.7754,-1.7498,-1.7166,-1.6968,-1.6868,-1.6931,-1.721,-1.7761,-1.8062,-1.8585,-1.9103,-1.9603,-2.0098,-2.0581,-2.1053,-2.1513,-2.197,-2.2615,-2.3047,-2.1932,-2.0453,-1.8585,-1.6719,-1.4848,-1.2989,-1.1326,-0.9452,-0.7578,-0.5697,-0.3807,-0.191,-0.0,0.043,0.0218,-0.1789,-0.3895,-0.61,-0.8173,-1.0338,-1.2351,-1.445,-1.663,-1.8897,-2.0979,-2.3418,-2.5661,-2.6848,-2.6817,-2.6402,-2.6268,-2.5849,-4.2694,-4.197,-4.1182,-4.0435,-3.9655,-3.8938,-3.8232,-3.7464,-3.6758,-3.6084,-3.5319,-3.4514,-3.3633,-3.2546,-3.1537,-3.0538,-2.9507,-2.8453,-2.7418,-2.646,-2.5508,-2.4554,-2.358,-2.264,-2.1742,-2.1266,-2.1564,-2.1856,-2.2122,-2.2505,-2.2903,-2.3273,-2.36,-2.398,-2.4422,-2.4851,-2.5247,-2.5636,-2.5837,-2.5792,-2.5433,-2.4899,-2.4403,-2.3862,-2.3254,-2.2786,-2.2198,-2.1646,-2.1047,-2.0467,-1.9892,-1.9291,-1.8779,-1.8494,-1.8292,-1.809,-1.789,-1.7717,-1.7596,-1.7384,-1.7265,-1.7062,-1.6768,-1.6403,-1.6386,-1.6266,-1.631,-1.6814,-1.7366,-1.7893,-1.8414,-1.9145,-1.9639,-2.012,-2.0812,-2.1274,-2.1944,-2.238,-2.302,-2.3644,-2.2521,-2.0839,-1.8769,-1.6906,-1.4837,-1.2973,-1.0899,-0.8824,-0.695,-0.5067,-0.2966,-0.1063,0.1067,0.1724,0.1532,-0.0449,-0.2758,-0.4708,-0.6995,-0.9141,-1.1135,-1.3474,-1.5644,-1.7891,-1.9961,-2.2392,-2.4633,-2.6115,-2.6101,-2.5695,-2.5557,-2.5149,-4.4251,-4.3522,-4.2827,-4.2008,-4.1223,-4.0533,-3.9755,-3.9075,-3.8329,-3.7651,-3.6911,-3.6055,-3.5116,-3.3896,-3.2783,-3.1678,-3.0493,-2.9291,-2.8227,-2.7095,-2.6007,-2.4911,-2.3827,-2.2705,-2.1673,-2.106,-2.1406,-2.1781,-2.2134,-2.2533,-2.2946,-2.3353,-2.372,-2.4117,-2.4567,-2.4987,-2.5428,-2.583,-2.6013,-2.5974,-2.5486,-2.4928,-2.4367,-2.3807,-2.315,-2.2601,-2.1901,-2.1244,-2.0579,-1.993,-1.9266,-1.8654,-1.7904,-1.7671,-1.7551,-1.7302,-1.7198,-1.6987,-1.6828,-1.6576,-1.641,-1.616,-1.6035,-1.5843,-1.5576,-1.5422,-1.5688,-1.6181,-1.6731,-1.7489,-1.8235,-1.8964,-1.9454,-2.0143,-2.082,-2.1488,-2.2156,-2.279,-2.3614,-2.423,-2.3107,-2.1224,-1.915,-1.7092,-1.4825,-1.2755,-1.0686,-0.8405,-0.6322,-0.4228,-0.2121,0.0,0.2138,0.3026,0.2853,0.0675,-0.1384,-0.3545,-0.5812,-0.7937,-1.0165,-1.223,-1.4643,-1.6885,-1.8945,-2.1361,-2.3593,-2.5074,-2.5067,-2.4962,-2.4554,-2.4444,-4.5851,-4.5117,-4.4323,-4.3594,-4.2837,-4.2082,-4.1361,-4.0675,-3.9927,-3.9212,-3.8562,-3.7655,-3.6627,-3.5302,-3.4052,-3.2822,-3.1518,-3.0249,-2.9082,-2.7851,-2.659,-2.5387,-2.4193,-2.2925,-2.1761,-2.1138,-2.1422,-2.1806,-2.2206,-2.2619,-2.3046,-2.3487,-2.3925,-2.4324,-2.4733,-2.5194,-2.5652,-2.6001,-2.6161,-2.6107,-2.5595,-2.5002,-2.4418,-2.3765,-2.3041,-2.2364,-2.1645,-2.093,-2.0147,-1.9408,-1.8755,-1.7924,-1.7148,-1.686,-1.6685,-1.6514,-1.6354,-1.6248,-1.605,-1.5937,-1.5552,-1.5456,-1.5293,-1.5062,-1.498,-1.4795,-1.5059,-1.5548,-1.6321,-1.7081,-1.7822,-1.8558,-1.9483,-2.0173,-2.1052,-2.171,-2.257,-2.319,-2.3999,-2.4814,-2.3681,-2.1599,-1.9537,-1.7271,-1.4807,-1.2537,-1.0265,-0.7982,-0.5693,-0.3598,-0.1275,0.1067,0.3429,0.4336,0.4185,0.2032,-0.0231,-0.2373,-0.4619,-0.6725,-0.8932,-1.1235,-1.3637,-1.5873,-1.8195,-2.0325,-2.2831,-2.4314,-2.4321,-2.4226,-2.3834,-2.3734,-4.3939,-4.3116,-4.2358,-4.1572,-4.082,-4.0037,-3.9287,-3.8574,-3.78,-3.7029,-3.6319,-3.5465,-3.4414,-3.3252,-3.2033,-3.0792,-2.9627,-2.8459,-2.7287,-2.6132,-2.4965,-2.3886,-2.2658,-2.1464,-2.0357,-1.9743,-2.0094,-2.042,-2.0744,-2.1067,-2.1445,-2.1856,-2.2207,-2.2555,-2.2967,-2.3372,-2.3771,-2.4111,-2.4274,-2.4222,-2.3699,-2.3113,-2.2529,-2.1849,-2.1124,-2.0365,-1.9593,-1.8869,-1.8125,-1.7404,-1.6684,-1.5925,-1.5119,-1.5027,-1.4948,-1.492,-1.4805,-1.4747,-1.4779,-1.4755,-1.4672,-1.4518,-1.4509,-1.445,-1.4337,-1.4357,-1.4832,-1.5319,-1.6085,-1.685,-1.7597,-1.8328,-1.9035,-1.994,-2.0617,-2.1496,-2.2162,-2.2994,-2.3821,-2.4629,-2.3329,-2.1268,-1.9021,-1.6574,-1.4336,-1.2079,-0.9612,-0.7342,-0.5053,-0.275,-0.0425,0.1923,0.4296,0.5214,0.5293,0.2933,0.0923,-0.1417,-0.3622,-0.568,-0.8083,-1.033,-1.2408,-1.4838,-1.7095,-1.9432,-2.1856,-2.3292,-2.3292,-2.3213,-2.3114,-2.2737,-4.1895,-4.1012,-4.026,-3.9415,-3.8604,-3.7796,-3.705,-3.6308,-3.5472,-3.4708,-3.3976,-3.3047,-3.2117,-3.102,-2.9876,-2.8722,-2.761,-2.6561,-2.5473,-2.4356,-2.329,-2.2256,-2.1139,-2.003,-1.8983,-1.8398,-1.8703,-1.895,-1.9227,-1.9504,-1.9811,-2.0182,-2.0488,-2.0794,-2.1193,-2.1565,-2.1938,-2.2273,-2.2431,-2.237,-2.1845,-2.1196,-2.049,-1.9834,-1.9065,-1.8302,-1.748,-1.6812,-1.6067,-1.5243,-1.4577,-1.3761,-1.3058,-1.3034,-1.3074,-1.3186,-1.3251,-1.341,-1.3354,-1.3591,-1.3613,-1.3601,-1.3737,-1.3843,-1.3918,-1.4144,-1.4372,-1.5079,-1.5848,-1.6618,-1.7366,-1.8085,-1.8801,-1.9495,-2.0391,-2.1065,-2.194,-2.2592,-2.3422,-2.4243,-2.2962,-2.0931,-1.8509,-1.6087,-1.3658,-1.1416,-0.8962,-0.67,-0.4418,-0.1903,0.0426,0.2783,0.5168,0.6098,0.6184,0.4059,0.1841,-0.047,-0.2638,-0.4895,-0.6997,-0.9186,-1.1459,-1.3818,-1.5999,-1.8536,-2.0883,-2.2265,-2.2554,-2.2483,-2.2111,-2.2027,-3.9773,-3.8926,-3.8211,-3.7304,-3.6469,-3.5669,-3.4872,-3.3972,-3.324,-3.2374,-3.1582,-3.0735,-2.9804,-2.8744,-2.7684,-2.6684,-2.5649,-2.4641,-2.3603,-2.2589,-2.1617,-2.0573,-1.964,-1.8631,-1.7683,-1.7096,-1.7269,-1.7506,-1.7734,-1.7926,-1.8183,-1.8506,-1.8793,-1.9108,-1.9412,-1.9797,-2.0184,-2.0504,-2.0667,-2.0565,-1.9955,-1.9261,-1.8485,-1.7699,-1.6917,-1.6145,-1.5446,-1.4661,-1.3914,-1.3118,-1.2401,-1.1659,-1.0941,-1.1158,-1.1326,-1.1458,-1.1707,-1.1921,-1.2107,-1.2446,-1.2581,-1.2699,-1.2985,-1.3257,-1.3509,-1.3705,-1.4138,-1.4845,-1.5401,-1.638,-1.7122,-1.7849,-1.8568,-1.9265,-1.9955,-2.0837,-2.1718,-2.2379,-2.3035,-2.386,-2.2606,-2.0403,-1.8002,-1.5596,-1.3188,-1.0766,-0.8529,-0.6061,-0.3573,-0.1058,0.1278,0.3645,0.626,0.7202,0.7076,0.4955,0.2754,0.0468,-0.1668,-0.3642,-0.5937,-0.8319,-1.053,-1.2821,-1.5201,-1.7394,-1.9651,-2.1261,-2.1544,-2.1481,-2.1405,-2.1329,-3.7802,-3.6892,-3.6057,-3.5185,-3.4317,-3.3498,-3.2571,-3.1773,-3.0909,-3.012,-2.9265,-2.8357,-2.7498,-2.6559,-2.5585,-2.4681,-2.3696,-2.2779,-2.1833,-2.0872,-1.9942,-1.8998,-1.8086,-1.7229,-1.6288,-1.5728,-1.5865,-1.6048,-1.6186,-1.6349,-1.6581,-1.6794,-1.7076,-1.7385,-1.772,-1.8032,-1.8419,-1.8736,-1.8864,-1.867,-1.804,-1.722,-1.6427,-1.558,-1.4777,-1.4019,-1.3192,-1.2492,-1.1671,-1.1028,-1.0264,-0.9631,-0.8905,-0.9231,-0.9414,-0.986,-1.0157,-1.0435,-1.0874,-1.1137,-1.1574,-1.1816,-1.2251,-1.2473,-1.2896,-1.3279,-1.392,-1.4391,-1.5168,-1.5919,-1.6663,-1.7612,-1.8327,-1.8826,-1.973,-2.0413,-2.1293,-2.1973,-2.2833,-2.347,-2.2244,-2.0064,-1.7692,-1.5116,-1.2722,-1.0316,-0.7888,-0.5426,-0.2941,-0.0423,0.2132,0.451,0.7144,0.8097,0.7974,0.5852,0.3661,0.1629,-0.0473,-0.2888,-0.4897,-0.7223,-0.9627,-1.1856,-1.4159,-1.6542,-1.8726,-2.0285,-2.0557,-2.0508,-2.044,-2.0372,-3.5741,-3.4837,-3.3984,-3.3047,-3.2142,-3.1262,-3.0394,-2.9556,-2.8648,-2.7797,-2.6975,-2.609,-2.524,-2.4406,-2.3534,-2.2695,-2.1756,-2.0895,-2.0129,-1.919,-1.829,-1.7401,-1.6591,-1.5802,-1.4928,-1.4342,-1.4433,-1.4524,-1.4646,-1.4778,-1.4982,-1.5116,-1.5415,-1.5685,-1.5936,-1.6262,-1.6645,-1.6891,-1.7001,-1.6759,-1.5969,-1.5098,-1.4267,-1.3372,-1.2553,-1.176,-1.0998,-1.0214,-0.9527,-0.8849,-0.8176,-0.7412,-0.6812,-0.7139,-0.7608,-0.8244,-0.8603,-0.912,-0.9485,-1.0026,-1.0584,-1.0953,-1.1521,-1.1911,-1.2503,-1.2855,-1.348,-1.416,-1.4929,-1.5685,-1.6428,-1.7159,-1.7878,-1.8592,-1.9309,-2.0203,-2.0889,-2.1763,-2.2424,-2.328,-2.1876,-1.9736,-1.7192,-1.464,-1.2066,-0.9669,-0.7249,-0.4587,-0.2101,0.0423,0.2988,0.5594,0.803,0.8997,0.8881,0.6974,0.4792,0.2548,0.047,-0.1908,-0.4119,-0.6397,-0.8497,-1.0915,-1.3148,-1.5449,-1.7822,-1.9332,-1.9604,-1.9822,-1.9761,-1.9699,-3.3725,-3.2856,-3.1866,-3.0936,-3.0012,-2.907,-2.816,-2.7328,-2.6381,-2.5561,-2.4674,-2.3801,-2.2948,-2.2168,-2.1399,-2.0641,-1.9805,-1.9004,-1.8302,-1.7527,-1.6703,-1.5877,-1.5087,-1.435,-1.3535,-1.3048,-1.309,-1.3073,-1.309,-1.3223,-1.3332,-1.3441,-1.3661,-1.3882,-1.4105,-1.4389,-1.4675,-1.5018,-1.4999,-1.4673,-1.3797,-1.2919,-1.1943,-1.1122,-1.0342,-0.9625,-0.8788,-0.8034,-0.7404,-0.6687,-0.6007,-0.5364,-0.4651,-0.5272,-0.5787,-0.648,-0.7052,-0.7652,-0.8272,-0.8916,-0.9597,-1.0094,-1.0804,-1.1354,-1.1906,-1.2651,-1.3255,-1.393,-1.4695,-1.5444,-1.6193,-1.6926,-1.7654,-1.8372,-1.9087,-1.9793,-2.0679,-2.1371,-2.2045,-2.2914,-2.1537,-1.9213,-1.6697,-1.4167,-1.1608,-0.9021,-0.6404,-0.3954,-0.1469,0.127,0.3844,0.6253,0.8926,0.9899,1.0003,0.7869,0.569,0.3458,0.14,-0.0946,-0.3116,-0.5346,-0.7638,-0.9993,-1.2159,-1.4389,-1.6934,-1.8389,-1.8656,-1.8881,-1.8833,-1.8785,-3.1678,-3.0742,-2.9787,-2.8789,-2.7799,-2.6916,-2.5987,-2.5087,-2.4118,-2.3231,-2.2296,-2.148,-2.0654,-1.995,-1.9256,-1.8572,-1.7825,-1.709,-1.6456,-1.5761,-1.5061,-1.4359,-1.3617,-1.292,-1.2222,-1.1724,-1.1682,-1.1641,-1.1548,-1.1614,-1.1693,-1.1786,-1.1827,-1.1949,-1.2151,-1.2406,-1.2611,-1.2913,-1.2931,-1.2563,-1.1541,-1.0548,-0.9623,-0.8844,-0.8141,-0.734,-0.6637,-0.5839,-0.5173,-0.4555,-0.3874,-0.3249,-0.2699,-0.337,-0.4086,-0.4849,-0.55,-0.6181,-0.7066,-0.7826,-0.862,-0.9254,-0.9919,-1.0807,-1.1528,-1.2242,-1.3035,-1.3694,-1.4248,-1.5209,-1.5952,-1.6488,-1.7423,-1.8145,-1.8873,-1.9577,-2.0281,-2.0975,-2.1865,-2.2541,-2.1183,-1.8898,-1.6212,-1.3698,-1.0951,-0.838,-0.5771,-0.3324,-0.0629,0.1905,0.4488,0.7128,0.9828,1.0808,1.0909,0.8766,0.6584,0.4589,0.2318,0.0,-0.2134,-0.432,-0.6558,-0.885,-1.1197,-1.3606,-1.5815,-1.7475,-1.7736,-1.7967,-1.7939,-1.8152,-2.9545,-2.8641,-2.7644,-2.66,-2.5642,-2.4735,-2.3814,-2.2864,-2.19,-2.0964,-1.9975,-1.915,-1.8348,-1.7753,-1.7104,-1.6539,-1.5919,-1.5214,-1.4594,-1.3995,-1.3402,-1.2742,-1.209,-1.1458,-1.081,-1.0352,-1.0307,-1.0168,-0.9979,-1.004,-1.0029,-1.004,-1.004,-1.0051,-1.0218,-1.0324,-1.0503,-1.0706,-1.0635,-1.021,-0.9221,-0.8296,-0.7342,-0.6548,-0.5863,-0.5088,-0.445,-0.3733,-0.3065,-0.233,-0.1785,-0.119,-0.0548,-0.1422,-0.221,-0.3049,-0.3937,-0.4877,-0.5703,-0.6571,-0.7483,-0.8254,-0.9244,-1.0087,-1.0962,-1.1839,-1.2609,-1.3463,-1.4012,-1.4765,-1.5515,-1.6258,-1.6992,-1.7727,-1.8454,-1.9173,-1.9886,-2.0777,-2.1473,-2.2171,-2.0849,-1.8391,-1.5724,-1.3233,-1.0508,-0.775,-0.5143,-0.2492,0.021,0.2753,0.535,0.8008,1.0735,1.1726,1.1831,0.9666,0.7475,0.548,0.3224,0.1162,-0.1173,-0.3317,-0.5746,-0.7983,-1.0265,-1.2596,-1.4981,-1.6339,-1.6855,-1.7088,-1.7059,-1.728,-2.7497,-2.6523,-2.5456,-2.4463,-2.3555,-2.2555,-2.1603,-2.0578,-1.9641,-1.8649,-1.7698,-1.6848,-1.6112,-1.5635,-1.5,-1.4527,-1.3922,-1.3385,-1.2824,-1.2291,-1.176,-1.116,-1.0643,-1.0045,-0.952,-0.9078,-0.8934,-0.8712,-0.85,-0.8387,-0.8282,-0.8195,-0.8099,-0.8082,-0.8169,-0.8257,-0.8344,-0.8431,-0.8295,-0.7824,-0.685,-0.5886,-0.5015,-0.4246,-0.3503,-0.2789,-0.2124,-0.1512,-0.0846,-0.0251,0.039,0.0943,0.1394,0.0576,-0.0446,-0.138,-0.2525,-0.3413,-0.4515,-0.5503,-0.6542,-0.7444,-0.8388,-0.9374,-1.0398,-1.1438,-1.2393,-1.3237,-1.3788,-1.4533,-1.5283,-1.6027,-1.6771,-1.7502,-1.8234,-1.896,-1.9672,-2.0386,-2.1103,-2.1814,-2.0318,-1.809,-1.5444,-1.2578,-0.9868,-0.7116,-0.4517,-0.1866,0.0838,0.3602,0.6215,0.8892,1.1642,1.2869,1.297,1.0786,0.8583,0.6362,0.4117,0.2074,-0.0232,-0.2341,-0.4718,-0.6901,-0.912,-1.1624,-1.3929,-1.548,-1.5985,-1.6213,-1.644,-1.6423,-2.5444,-2.4397,-2.3338,-2.2369,-2.1407,-2.0416,0.0,-1.8322,-1.7343,-1.6386,-1.5449,-1.4655,-1.3955,-1.3484,-1.3009,-1.2446,-1.1962,-1.1559,-1.1143,-1.0649,-1.0074,-0.9581,-0.9083,-0.866,-0.8162,-0.7712,-0.7472,-0.7242,-0.7015,-0.671,-0.6506,-0.6396,-0.62,-0.6103,-0.6092,-0.6086,-0.6074,-0.6062,-0.5859,-0.5447,-0.4377,-0.3414,-0.2568,-0.1746,-0.1174,-0.0444,0.0115,0.0836,0.1362,0.1924,0.2522,0.302,0.3543,0.2479,0.135,0.0308,-0.095,-0.2113,-0.3169,-0.4278,-0.5439,-0.6652,-0.7733,-0.8864,-1.004,-1.104,-1.1973,-1.2808,-1.3569,-1.4307,-1.5051,-1.5803,-1.6549,-1.7285,-1.7829,-1.8555,-1.9267,-1.9999,-2.0735,-2.1459,-1.999,-1.7591,-1.497,-1.2126,-0.9435,-0.6691,-0.3891,-0.1242,0.1467,0.4241,0.7081,0.9783,1.2559,1.3792,1.389,1.1673,0.9463,0.7241,0.5227,0.2969,0.0689,-0.1618,-0.3721,-0.5851,-0.8248,-1.0447,-1.291,-1.4411,-1.5137,-1.536,-1.5588,-1.5826,0.0,0.0,0.0,0.0,0.0,0.0,0.0,-1.6116,-1.5153,-1.4139,-1.3117,-1.235,-1.1707,-1.1281,-1.0845,-1.0477,-1.0024,-0.9659,-0.9277,-0.8896,-0.8407,-0.8008,-0.7601,-0.7174,-0.6763,-0.6492,-0.6145,-0.5714,-0.5387,-0.506,-0.4839,-0.4541,-0.4329,-0.4127,-0.3933,-0.3828,-0.3727,-0.3714,-0.3374,-0.2876,-0.1918,-0.0993,-0.0206,0.0534,0.1217,0.1834,0.2373,0.2949,0.3558,0.4072,0.4611,0.5177,0.562,0.4437,0.3184,0.1862,0.0636,-0.0651,-0.1831,-0.3235,-0.4355,-0.5702,-0.6923,-0.8187,-0.9506,-1.0662,-1.1754,-1.2581,-1.3339,-1.4088,-1.4832,-1.5386,-1.6129,-1.6876,-1.7604,-1.8336,-1.9072,-1.9821,-2.0371,-2.1089,-1.964,-1.7273,-1.4494,-1.1672,-0.8802,-0.6064,-0.327,-0.0621,0.2304,0.5091,0.7736,1.0674,1.3481,1.472,1.4813,1.2571,1.0562,0.8336,0.6095,0.3847,0.159,-0.0456,-0.2749,-0.5064,-0.7169,-0.953,-1.1922,-1.3607,-1.4084,-1.4545,-1.4768,-1.5006,0.0,0.0,0.0,0.0,0.0,0.0,0.0,0.0,0.0,0.0,0.0,-1.0046,-0.9415,0.0,-0.8762,-0.85,-0.8144,-0.7776,-0.7408,-0.7111,-0.6706,-0.6493,-0.6066,-0.5728,-0.5497,-0.5112,-0.4747,-0.4297,-0.3854,-0.3416,-0.3089,-0.2772,-0.2457,-0.2149,-0.1847,-0.1548,-0.1347,-0.1246,-0.0866,-0.0293,0.0603,0.1454,0.2255,0.2884,0.3551,0.4144,0.465,0.5179,0.5735,0.6315,0.6789,0.7276,0.7624,0.6298,0.5055,0.3597,0.2234,0.0814,-0.0665,-0.2034,-0.3458,-0.4765,-0.6305,-0.7529,-0.8985,-1.0475,-1.1541,-1.2354,-1.3109,-1.3677,-1.4422,-1.5158,-1.591,-1.6661,-1.7394,-1.7945,-1.8697,-1.9447,-2.0188,-2.0917,-1.931,-1.6768,-1.4028,-1.1231,-0.8372,-0.5442,-0.2652,0.0207,0.2931,0.5731,0.861,1.1355,1.4407,1.5651,1.5738,1.3697,1.1441,0.9198,0.7177,0.4936,0.2696,0.045,-0.1805,-0.4074,-0.6353,-0.8646,-1.0965,-1.2593,-1.3286,-1.3519,-1.3974,-1.4207,0.0,0.0,0.0,0.0,0.0,0.0,0.0,0.0,0.0,0.0,0.0,0.0,0.0,0.0,0.0,-0.6481,-0.6117,-0.5833,-0.5635,-0.5321,-0.51,-0.4865,-0.462,-0.4364,-0.4108,-0.3801,-0.3317,-0.2848,-0.2278,-0.1826,-0.1383,-0.095,-0.0523,-0.0104,0.0309,0.0717,0.1016,0.1212,0.1622,0.2257,0.3158,0.0,0.469,0.5291,0.5927,0.6478,0.6931,0.7403,0.7885,0.8388,0.8911,0.931,0.9712,0.8211,0.6808,0.5194,0.3685,0.212,0.0663,-0.0844,-0.2405,-0.4022,-0.5516,-0.7063,-0.8475,-1.0107,0.0,-1.2137,-1.2884,-1.3448,-1.4199,-1.4943,-1.5504,-1.6259,-1.6998,-1.7751,-1.8511,-1.9069,-1.9811,-2.0376,-1.8803,-1.6289,-1.3567,-1.0589,-0.7743,-0.4826,-0.2037,0.0826,0.3768,0.6586,0.949,1.2266,1.5123,1.6383,1.6685,1.46,1.2316,1.0274,0.8025,0.5786,0.378,0.1556,-0.0889,-0.3113,-0.5341,-0.7571,-1.004,-1.1617,-1.2289,-1.2743,-1.3197,-1.3434,0.0,0.0,0.0,0.0,0.0,0.0,0.0,0.0,0.0,0.0,0.0,0.0,0.0,0.0,0.0,0.0,-0.4131,-0.4017,-0.3789,-0.3652,-0.3506,-0.3352,-0.3192,-0.302,-0.2841,-0.2507,-0.1889,-0.1401,-0.0809,-0.0114,0.0453,0.0896,0.0,0.0,0.0,0.2917,0.343,0.3722,0.4259,0.4941,0.572,0.6433,0.7078,0.763,0.8212,0.8705,0.9214,0.9604,1.0137,1.0551,1.0978,1.142,1.1869,1.0182,0.8598,0.6972,0.5306,0.3592,0.1987,0.0,0.0,-0.3118,-0.4747,-0.6428,-0.8157,-0.9741,-1.0946,-1.1915,-1.2475,-1.3226,-1.3792,-1.4531,-1.5288,-1.6047,-1.6607,-1.7366,-1.8134,-1.8694,-1.9447,-2.0225,-1.8479,-1.6003,-1.3109,-1.0151,-0.732,-0.4412,-0.1423,0.1444,0.4397,0.7231,1.0154,1.3172,1.6071,0.0,1.7623,1.5504,1.341,1.1122,0.9079,0.6838,0.4618,0.2412,0.0219,-0.2185,-0.4364,-0.6753,-0.8926,-1.067,-1.1333,-1.1781,-1.2229,-1.2682,0.0,0.0,0.0,0.0,0.0,0.0,0.0,0.0,0.0,0.0,0.0,0.0,0.0,0.0,0.0,0.0,-0.2198,-0.2039,-0.1979,-0.1913,-0.1842,-0.1769,-0.1688,-0.1601,-0.151,-0.1143,-0.0503,0.0124,0.0736,0.1455,0.2158,0.2847,0.3401,0.406,0.4599,0.5124,0.575,0.6144,0.6801,0.752,0.8255,0.8929,0.9519,1.0005,1.0384,1.0925,1.1347,1.1777,1.222,1.267,1.2982,1.3457,0.0,0.0,0.0,0.0,0.6788,0.5067,0.314,0.1338,-0.0339,-0.2231,-0.3997,-0.5806,-0.7668,-0.9386,-1.055,-1.1506,-1.2254,-1.3003,-1.3566,-1.4306,-1.4884,-1.5645,-1.6409,-1.7167,-1.7752,-1.8331,-1.9102,-1.9874,-1.8166,0.0,-1.2655,-0.9721,-0.6705,-0.3799,-0.0812,0.2268,0.5236,0.8086,1.1036,1.4087,1.7019,1.8287,1.8565,1.6401,0.0,0.0,0.0,0.7655,0.5652,0.3462,0.0,0.0,0.0,-0.5751,-0.8067,-0.9756,0.0,0.0,-1.1508,-1.1956,0.0,0.0,0.0,0.0,0.0,0.0,0.0,0.0,0.0,0.0,0.0,0.0,0.0,0.0,0.0,0.0,-0.1571,-0.1503,-0.1431,-0.1353,-0.1269,-0.1181,-0.1087,-0.0987,-0.101,-0.0765,-0.0126,0.0498,0.1229,0.1822,0.2519,0.3203,0.3755,0.4411,0.5054,0.5566,0.6181,0.667,0.7322,0.7925,0.8553,0.9226,0.9691,1.0187,1.0572,1.1097,1.1504,1.179,1.2228,1.2673,1.3117,1.3421,1.3875,1.2163,1.0418,0.863,0.6821,0.513,0.3241,0.1474,-0.0166,-0.2012,-0.3732,-0.5495,-0.7306,-0.915,-1.0282,-1.1215,-1.1944,-1.2681,-1.3237,-1.3965,-1.4714,-1.5281,-1.6021,-1.6599,-1.7172,-1.7941,-1.8526,-1.9283,-1.761,-1.5037,-1.2234,-0.9167,-0.6396,-0.3543,-0.06,0.244,0.5374,0.8198,1.1127,1.3944,1.685,1.8114,1.8396,1.6238,1.4118,1.2043,0.9996,0.7772,0.5579,0.3413,0.1273,-0.1056,-0.3154,-0.5443,0.0,0.0,0.0,0.0,0.0,0.0,0.0,0.0,0.0,0.0,0.0,0.0,0.0,0.0,0.0,0.0,0.0,0.0,0.0,0.0,0.0,0.0,0.0,0.0,-0.0987,-0.0898,-0.0804,-0.0823,-0.0721,-0.0614,-0.0629,-0.0381,0.0126,0.0868,0.1469,0.2055,0.2746,0.33,0.3848,0.4498,0.5128,0.5746,0.6348,0.6939,0.7464,0.8062,0.8566,0.9122,0.9694,1.0071,1.0447,1.0822,1.1339,1.1611,1.2168,1.2599,1.2888,1.3321,1.3606,1.1922,1.0208,0.8606,0.683,0.5019,0.3325,0.16,-0.0162,-0.1962,-0.3638,-0.5355,-0.7111,-0.8901,-1.018,-1.1085,-1.1624,-1.2341,-1.2895,-1.3611,-1.4163,-1.4896,-1.5445,-1.6183,-1.6758,-1.7335,-1.8082,-1.8656,-1.7039,-1.453,-1.1799,-0.8798,-0.6083,-0.3289,-0.0394,0.0,0.5295,0.8085,1.0981,1.377,1.6649,1.7914,1.8193,1.6052,1.3954,1.1893,0.9867,0.7667,0.5504,0.3365,0.1254,-0.0832,-0.3104,-0.5353,-0.7586,0.0,0.0,0.0,0.0,0.0,0.0,0.0,0.0,0.0,0.0,0.0,0.0,0.0,0.0,0.0,0.0,0.0,0.0,0.0,0.0,0.0,0.0,0.0,0.0,-0.0774,-0.0791,-0.0694,-0.0591,-0.0483,-0.0494,-0.0249,0.0247,0.0731,0.1323,0.202,0.2581,0.3129,0.3665,0.4188,0.4808,0.5412,0.5999,0.6472,0.6986,0.756,0.8056,0.8479,0.9027,0.9369,0.9844,1.0201,1.0696,1.1067,1.1465,1.1869,1.2272,1.2688,1.2944,1.1305,0.9784,0.8077,0.649,0.4726,0.2923,0.1398,-0.0314,-0.1905,-0.3692,-0.5364,-0.707,-0.8643,-0.9878,-1.0763,-1.1453,-1.1984,-1.2517,-1.3219,-1.3756,-1.4294,-1.501,-1.5567,-1.6128,-1.6852,-1.7409,-1.7978,-1.6414,-1.3992,-1.1329,-0.8592,-0.5768,-0.303,-0.0386,0.2355,0.5198,0.7947,1.0598,1.3343,1.6178,1.7431,1.7713,1.5608,1.3545,1.1517,0.9519,0.735,0.5424,0.3318,0.103,-0.1025,-0.3057,-0.5271,-0.747,0.0,0.0,0.0,0.0,0.0,0.0,0.0,0.0,0.0,0.0,0.0,0.0,0.0,0.0,0.0,0.0,0.0,0.0,0.0,0.0,0.0,0.0,0.0,0.0,0.0,0.0,-0.0569,-0.0465,0.0,-0.0364,-0.0123,0.0242,0.0837,0.13,0.1867,0.242,0.296,0.3374,0.3887,0.4497,0.4983,0.5455,0.6028,0.6528,0.6979,0.7459,0.7861,0.8379,0.8816,0.9147,0.9597,0.9942,1.0424,1.0796,1.1167,1.155,1.1925,1.2306,1.0711,0.922,0.77,0.601,0.4442,0.269,0.1207,-0.0458,-0.2004,-0.3741,-0.5363,-0.686,-0.8385,-0.9586,-1.0441,-1.1117,-1.1633,-1.2144,-1.2833,-1.3355,-1.3879,-1.4419,-1.4954,-1.5664,-1.6204,-1.6747,-1.7292,-1.5798,-1.3457,-1.0879,-0.8216,-0.5639,-0.2967,-0.0378,0.2311,0.5105,0.7611,1.0421,1.3129,1.5727,1.6961,1.7033,1.5176,1.3142,1.1143,0.9177,0.704,0.4936,0.3065,0.0812,-0.1211,-0.321,-0.5189,0.0,0.0,0.0,0.0,0.0,0.0,0.0,0.0,0.0,0.0,0.0,0.0,0.0,0.0,0.0,0.0,0.0,0.0,0.0,0.0,0.0,0.0,0.0,0.0,0.0,0.0,0.0,-0.0336,-0.0343,0.0,0.0,0.0,0.0,0.0822,0.1276,0.1719,0.2151,0.2682,0.3092,0.3488,0.409,0.4464,0.4931,0.5389,0.5886,0.6327,0.6779,0.7261,0.7658,0.8172,0.8593,0.8899,0.9224,0.9676,1.0014,1.0485,1.0843,1.1199,1.1561,1.0133,0.8678,0.7192,0.5549,0.4021,0.261,0.1026,-0.0592,-0.2094,-0.3628,-0.5199,-0.6805,-0.8283,0.0,0.0,-1.0617,-1.1118,-1.1784,-1.2283,-1.2796,-1.3478,-1.3996,-1.4517,-1.5033,-1.5566,-1.6102,-1.6784,-1.5184,-1.293,-1.0443,0.0,-0.5336,-0.2722,-0.0185,0.2456,0.5013,0.7479,1.0044,1.2712,1.5287,1.6301,1.6588,1.4547,1.2537,1.0564,0.8633,0.6732,0.466,0.2615,0.0799,-0.1192,-0.3357,0.0,0.0,0.0,0.0,0.0,0.0,0.0,0.0,0.0,0.0,0.0,0.0,0.0,0.0,0.0,0.0,0.0,0.0,0.0,0.0,0.0,0.0,0.0,0.0,0.0,0.0,-0.0317,-0.0324,-0.022,-0.0225,-0.0229,0.0,0.0,0.0,0.0,0.0,0.0,0.2002,0.2414,0.2817,0.3211,0.3696,0.4068,0.4428,0.4881,0.5261,0.5792,0.6224,0.6584,0.6948,0.7432,0.7823,0.823,0.8646,0.9066,0.938,0.9818,1.0144,1.0605,1.0951,0.9553,0.8142,0.6704,0.5106,0.362,0.225,0.071,-0.0717,-0.2173,-0.3659,-0.5181,-0.6586,0.0,0.0,0.0,0.0,-1.0918,-1.1412,-1.1902,-1.2394,-1.2895,-1.3412,-1.3926,-1.4427,-1.4937,-1.5458,-1.6129,-1.4587,-1.2407,-0.9995,-0.7485,0.0,-0.266,-0.0181,0.2405,0.4916,0.7341,0.9874,1.2307,1.4836,1.5847,1.5922,1.4125,1.2144,1.0205,0.8302,0.643,0.439,0.2575,0.059,-0.1369,0.0,0.0,0.0,0.0,0.0,0.0,0.0,0.0,0.0,0.0,0.0,0.0,0.0,0.0,0.0,0.0,0.0,0.0,0.0,0.0,0.0,0.0,0.0,0.0,0.0,0.0,0.0,-0.0104,-0.0106,-0.0108,-0.0111,-0.0113,0.0,0.0,0.0,0.0,0.0,0.0,0.0,0.0,0.0,0.2941,0.3215,0.3585,0.3943,0.4293,0.4667,0.5084,0.5493,0.5924,0.6267,0.6722,0.7086,0.7581,0.7971,0.8358,0.8766,0.9178,0.9474,0.9908,0.0,0.0,0.0,0.0,0.4814,0.3374,0.1907,0.055,-0.0833,-0.2243,0.0,0.0,0.0,0.0,0.0,0.0,0.0,-1.0561,-1.104,-1.1521,-1.1999,-1.2485,-1.2987,-1.3486,-1.3973,-1.4469,-1.4975,-1.5484,-1.3999,-1.1893,-0.9562,-0.7127,0.0,0.0,0.0,0.2357,0.4819,0.7206,0.9507,1.1908,1.4202,1.5399,1.548,1.3505,1.1762,0.9852,0.7978,0.5937,0.4126,0.234,0.0387,0.0,0.0,0.0,0.0,0.0,0.0,0.0,0.0,0.0,0.0,0.0,0.0,0.0,0.0,0.0,0.0,0.0,0.0,0.0,0.0,0.0,0.0,0.0,0.0,0.0,0.0,0.0,0.0,0.0,-0.0,-0.0,0.0,0.0,0.0,0.0,0.0,0.0,0.0,0.0,0.0,0.0,0.0,0.0,0.0,0.3117,0.3376,0.3725,0.3998,0.4402,0.4786,0.5194,0.5717,0.6042,0.6379,0.684,0.7308,0.0,0.8056,0.8446,0.0,0.0,0.0,0.0,0.0,0.0,0.0,0.0,0.0,0.0,0.0,0.0,0.0,0.0,0.0,0.0,0.0,0.0,0.0,0.0,0.0,0.0,-1.1603,-1.1937,-1.2425,-1.2895,-1.3366,-1.3855,-1.4346,-1.4702,-1.342,-1.1394,0.0,0.0,0.0,0.0,0.0,0.0,0.4724,0.6885,0.9147,1.1511,1.3778,1.4757,1.4836,1.3098,1.1188,0.9508,0.7467,0.5653,0.3869,0.2113,0.0,0.0,0.0,0.0,0.0,0.0,0.0,0.0,0.0,0.0,0.0,0.0,0.0,0.0,0.0,0.0,0.0,0.0,0.0,0.0,0.0,0.0,0.0,0.0,0.0,0.0,0.0,0.0,0.0,0.0,0.0,0.0,0.0,0.0,0.0,0.0,0.0,0.0,0.0,0.0,0.0,0.0,0.0,0.0,0.0,0.0,0.0,0.0,0.0,0.0,0.4113,0.4595,0.4987,0.5389,0.5703,0.6126,0.6571,0.7022,0.7378,0.7851,0.0,0.0,0.0,0.0,0.0,0.0,0.0,0.0,0.0,0.0,0.0,0.0,0.0,0.0,0.0,0.0,0.0,0.0,0.0,0.0,0.0,0.0,-1.1069,-1.1532,-1.1998,-1.246,-1.2784,0.0,0.0,0.0,0.0,0.0,0.0,0.0,0.0,0.0,0.0,0.0,0.4454,0.6756,0.8981,1.112,1.3361,1.4128,1.421,1.25,1.0821,0.8977,0.716,0.5375,0.0,0.0,0.0,0.0,0.0,0.0,0.0,0.0,0.0,0.0,0.0,0.0,0.0,0.0,0.0,0.0,0.0,0.0,0.0,0.0,0.0,0.0,0.0,0.0,0.0,0.0,0.0,0.0,0.0,0.0,0.0,0.0,0.0,0.0,0.0,0.0,0.0,0.0,0.0,0.0,0.0,0.0,0.0,0.0,0.0,0.0,0.0,0.0,0.0,0.0,0.0,0.0,0.0,0.0,0.0,0.0,0.0,0.0,0.5863,0.6394,0.0,0.0,0.0,0.0,0.0,0.0,0.0,0.0,0.0,0.0,0.0,0.0,0.0,0.0,0.0,0.0,0.0,0.0,0.0,0.0,0.0,0.0,0.0,0.0,0.0,0.0,0.0,0.0,0.0,0.0,0.0,0.0,0.0,0.0,0.0,0.0,0.0,0.0,0.0,0.0,0.4365,0.6449,0.8635,1.0741,1.2945,1.3711,1.3798,1.2113,1.0271,0.8648,0.686,0.0,0.0,0.0,0.0,0.0,0.0,0.0,0.0,0.0,0.0,0.0,0.0,0.0,0.0,0.0,0.0,0.0,0.0,0.0,0.0,0.0,0.0,0.0,0.0,0.0,0.0,0.0,0.0,0.0,0.0,0.0,0.0,0.0,0.0,0.0,0.0,0.0,0.0,0.0,0.0,0.0,0.0,0.0,0.0,0.0,0.0,0.0,0.0,0.0,0.0,0.0,0.0,0.0,0.0,0.0,0.0,0.0,0.0,0.0,0.5183,0.558,0.0,0.0,0.0,0.0,0.0,0.0,0.0,0.0,0.0,0.0,0.0,0.0,0.0,0.0,0.0,0.0,0.0,0.0,0.0,0.0,0.0,0.0,0.0,0.0,0.0,0.0,0.0,0.0,0.0,0.0,0.0,0.0,0.0,0.0,0.0,0.0,0.0,0.0,0.0,0.0,0.4272,0.6318,0.8292,1.0364,1.2347,1.3103,1.3199,1.1541,0.9915,0.8126,0.6373,0.0,0.0,0.0,0.0,0.0,0.0,0.0,0.0,0.0,0.0,0.0,0.0,0.0,0.0,0.0,0.0,0.0,0.0,0.0,0.0,0.0,0.0,0.0,0.0,0.0,0.0,0.0,0.0,0.0,0.0,0.0,0.0,0.0,0.0,0.0,0.0,0.0,0.0,0.0,0.0,0.0,0.0,0.0,0.0,0.0,0.0,0.0,0.0,0.0,0.0,0.0,0.0,0.0,0.0,0.0,0.0,0.0,0.0,0.0,0.0,0.0,0.0,0.0,0.0,0.0,0.0,0.0,0.0,0.0,0.0,0.0,0.0,0.0,0.0,0.0,0.0,0.0,0.0,0.0,0.0,0.0,0.0,0.0,0.0,0.0,0.0,0.0,0.0,0.0,0.0,0.0,0.0,0.0,0.0,0.0,0.0,0.0,0.0,0.0,0.0,0.0,0.4179,0.6018,0.796,0.9817,1.1761,1.2702,1.2796,1.0981,0.9378,0.7806,0.0,0.0,0.0,0.0,0.0,0.0,0.0,0.0,0.0,0.0,0.0,0.0,0.0,0.0,0.0,0.0,0.0,0.0,0.0,0.0,0.0,0.0,0.0,0.0,0.0,0.0,0.0,0.0,0.0,0.0,0.0,0.0,0.0,0.0,0.0,0.0,0.0,0.0,0.0,0.0,0.0,0.0,0.0,0.0,0.0,0.0,0.0,0.0,0.0,0.0,0.0,0.0,0.0,0.0,0.0,0.0,0.0,0.0,0.0,0.0,0.0,0.0,0.0,0.0,0.0,0.0,0.0,0.0,0.0,0.0,0.0,0.0,0.0,0.0,0.0,0.0,0.0,0.0,0.0,0.0,0.0,0.0,0.0,0.0,0.0,0.0,0.0,0.0,0.0,0.0,0.0,0.0,0.0,0.0,0.0,0.0,0.0,0.0,0.0,0.0,0.0,0.0,0.4088,0.5894,0.7631,0.9457,1.1376,1.2121,1.2213,1.0609,0.9042,0.7316,0.0,0.0,0.0,0.0,0.0,0.0,0.0,0.0,0.0,0.0,0.0,0.0,0.0,0.0,0.0,0.0,0.0,0.0,0.0,0.0,0.0,0.0,0.0,0.0,0.0,0.0,0.0,0.0,0.0,0.0,0.0,0.0,0.0,0.0,0.0,0.0,0.0,0.0,0.0,0.0,0.0,0.0,0.0,0.0,0.0,0.0,0.0,0.0,0.0,0.0,0.0,0.0,0.0,0.0,0.0,0.0,0.0,0.0,0.0,0.0,0.0,0.0,0.0,0.0,0.0,0.0,0.0,0.0,0.0,0.0,0.0,0.0,0.0,0.0,0.0,0.0,0.0,0.0,0.0,0.0,0.0,0.0,0.0,0.0,0.0,0.0,0.0,0.0,0.0,0.0,0.0,0.0,0.0,0.0,0.0,0.0,0.0,0.0,0.0,0.0,0.0,0.0,0.3839,0.5607,0.7312,0.9107,1.0997,1.1548,1.1642,1.0071,0.853,0.7017,0.0,0.0,0.0,0.0,0.0,0.0,0.0,0.0,0.0,0.0,0.0,0.0,0.0,0.0,0.0,0.0,0.0,0.0,0.0,0.0,0.0,0.0,0.0,0.0,0.0,0.0,0.0,0.0,0.0,0.0,0.0,0.0,0.0,0.0,0.0,0.0,0.0,0.0,0.0,0.0,0.0,0.0,0.0,0.0,0.0,0.0,0.0,0.0,0.0,0.0,0.0,0.0,0.0,0.0,0.0,0.0,0.0,0.0,0.0,0.0,0.0,0.0,0.0,0.0,0.0,0.0,0.0,0.0,0.0,0.0,0.0,0.0,0.0,0.0,0.0,0.0,0.0,0.0,0.0,0.0,0.0,0.0,0.0,0.0,0.0,0.0,0.0,0.0,0.0,0.0,0.0,0.0,0.0,0.0,0.0,0.0,0.0,0.0,0.0,0.0,0.0,0.0,0.3753,0.5489,0.7166,0.876,1.0439,1.1166,1.1088,0.9549,0.8034,0.0,0.0,0.0,0.0,0.0,0.0,0.0,0.0,0.0,0.0,0.0,0.0,0.0,0.0,0.0,0.0,0.0,0.0,0.0,0.0,0.0,0.0,0.0,0.0,0.0,0.0,0.0,0.0,0.0,0.0,0.0,0.0,0.0,0.0,0.0,0.0,0.0,0.0,0.0,0.0,0.0,0.0,0.0,0.0,0.0,0.0,0.0,0.0,0.0,0.0,0.0,0.0,0.0,0.0,0.0,0.0,0.0,0.0,0.0,0.0,0.0,0.0,0.0,0.0,0.0,0.0,0.0,0.0,0.0,0.0,0.0,0.0,0.0,0.0,0.0,0.0,0.0,0.0,0.0,0.0,0.0,0.0,0.0,0.0,0.0,0.0,0.0,0.0,0.0,0.0,0.0,0.0,0.0,0.0,0.0,0.0,0.0,0.0,0.0,0.0,0.0,0.0,0.0,0.3682,0.523,0.6868,0.8432,1.0071,1.0605,1.0522,0.9009,0.7529,0.6079,0.0,0.0,0.0,0.0,0.0,0.0,0.0,0.0,0.0,0.0,0.0,0.0,0.0,0.0,0.0,0.0,0.0,0.0,0.0,0.0,0.0,0.0,0.0,0.0,0.0,0.0,0.0,0.0,0.0,0.0,0.0,0.0,0.0,0.0,0.0,0.0,0.0,0.0,0.0,0.0,0.0,0.0,0.0,0.0,0.0,0.0,0.0,0.0,0.0,0.0,0.0,0.0,0.0,0.0,0.0,0.0,0.0,0.0,0.0,0.0,0.0,0.0,0.0,0.0,0.0,0.0,0.0,0.0,0.0,0.0,0.0,0.0,0.0,0.0,0.0,0.0,0.0,0.0,0.0,0.0,0.0,0.0,0.0,0.0,0.0,0.0,0.0,0.0,0.0,0.0,0.0,0.0,0.0,0.0,0.0,0.0,0.0,0.0,0.0,0.0,0.0,0.0,0.0,0.4976,0.6579,0.8102,0.9536,1.0219,1.0133,0.8655,0.7205,0.5785,0.0,0.0,0.0,0.0,0.0,0.0,0.0,0.0,0.0,0.0,0.0,0.0,0.0,0.0,0.0,0.0,0.0,0.0,0.0,0.0,0.0,0.0,0.0,0.0,0.0,0.0,0.0,0.0,0.0,0.0,0.0,0.0,0.0,0.0,0.0,0.0,0.0,0.0,0.0,0.0,0.0,0.0,0.0,0.0,0.0,0.0,0.0,0.0,0.0,0.0,0.0,0.0,0.0,0.0,0.0,0.0,0.0,0.0,0.0,0.0,0.0,0.0,0.0,0.0,0.0,0.0,0.0,0.0,0.0,0.0,0.0,0.0,0.0,0.0,0.0,0.0,0.0,0.0,0.0,0.0,0.0,0.0,0.0,0.0,0.0,0.0,0.0,0.0,0.0,0.0,0.0,0.0,0.0,0.0,0.0,0.0,0.0,0.0,0.0,0.0,0.0,0.0,0.0,0.4889,0.63,0.7782,0.9167,0.9658,0.9568,0.8296,0.6878,0.5487,0.4117,0.0,0.0,0.0,0.0,0.0,0.0,0.0,0.0,0.0,0.0,0.0,0.0,0.0,0.0,0.0,0.0,0.0,0.0,0.0,0.0,0.0,0.0,0.0,0.0,0.0,0.0,0.0,0.0,0.0,0.0,0.0,0.0,0.0,0.0,0.0,0.0,0.0,0.0,0.0,0.0,0.0,0.0,0.0,0.0,0.0,0.0,0.0,0.0,0.0,0.0,0.0,0.0,0.0,0.0,0.0,0.0,0.0,0.0,0.0,0.0,0.0,0.0,0.0,0.0,0.0,0.0,0.0,0.0,0.0,0.0,0.0,0.0,0.0,0.0,0.0,0.0,0.0,0.0,0.0,0.0,0.0,0.0,0.0,0.0,0.0,0.0,0.0,0.0,0.0,0.0,0.0,0.0,0.0,0.0,0.0,0.0,0.0,0.0,0.0,0.0,0.0,0.0,0.4657,0.603,0.7469,0.8809,0.9277,0.918,0.7776,0.6555,0.5196,0.3861,0.0,0.0,0.0,0.0,0.0,0.0,0.0,0.0,0.0,0.0,0.0,0.0,0.0,0.0,0.0,0.0,0.0,0.0,0.0,0.0,0.0,0.0,0.0,0.0,0.0,0.0,0.0,0.0,0.0,0.0,0.0,0.0,0.0,0.0,0.0,0.0,0.0,0.0,0.0,0.0,0.0,0.0,0.0,0.0,0.0,0.0,0.0,0.0,0.0,0.0,0.0,0.0,0.0,0.0,0.0,0.0,0.0,0.0,0.0,0.0,0.0,0.0,0.0,0.0,0.0,0.0,0.0,0.0,0.0,0.0,0.0,0.0,0.0,0.0,0.0,0.0,0.0,0.0,0.0,0.0,0.0,0.0,0.0,0.0,0.0,0.0,0.0,0.0,0.0,0.0,0.0,0.0,0.0,0.0,0.0,0.0,0.0,0.0,0.0,0.0,0.0,0.0,0.458,0.5914,0.7159,0.8303,0.8746,0.8638,0.7429,0.6077,0.4911,0.3614,0.0,0.0,0.0,0.0,0.0,0.0,0.0,0.0,0.0,0.0,0.0,0.0,0.0,0.0,0.0,0.0,0.0,0.0,0.0,0.0,0.0,0.0,0.0,0.0,0.0,0.0,0.0,0.0,0.0,0.0,0.0,0.0,0.0,0.0,0.0,0.0,0.0,0.0,0.0,0.0,0.0,0.0,0.0,0.0,0.0,0.0,0.0,0.0,0.0,0.0,0.0,0.0,0.0,0.0,0.0,0.0,0.0,0.0,0.0,0.0,0.0,0.0,0.0,0.0,0.0,0.0,0.0,0.0,0.0,0.0,0.0,0.0,0.0,0.0,0.0,0.0,0.0,0.0,0.0,0.0,0.0,0.0,0.0,0.0,0.0,0.0,0.0,0.0,0.0,0.0,0.0,0.0,0.0,0.0,0.0,0.0,0.0,0.0,0.0,0.0,0.0,0.0,0.0,0.5656,0.6706,0.7808,0.8226,0.8273,0.6936,0.5777,0.4486,0.0,0.0,0.0,0.0,0.0,0.0,0.0,0.0,0.0,0.0,0.0,0.0,0.0,0.0,0.0,0.0,0.0,0.0,0.0,0.0,0.0,0.0,0.0,0.0,0.0,0.0,0.0,0.0,0.0,0.0,0.0,0.0,0.0,0.0,0.0,0.0,0.0,0.0,0.0,0.0,0.0,0.0,0.0,0.0,0.0,0.0,0.0,0.0,0.0,0.0,0.0,0.0,0.0,0.0,0.0,0.0,0.0,0.0,0.0,0.0,0.0,0.0,0.0,0.0,0.0,0.0,0.0,0.0,0.0,0.0,0.0,0.0,0.0,0.0,0.0,0.0,0.0,0.0,0.0,0.0,0.0,0.0,0.0,0.0,0.0,0.0,0.0,0.0,0.0,0.0,0.0,0.0,0.0,0.0,0.0,0.0,0.0,0.0,0.0,0.0,0.0,0.0,0.0,0.0,0.54,0.6416,0.7478,0.7879,0.7762,0.6611,0.5484,0.4225,0.0,0.0,0.0,0.0,0.0,0.0,0.0,0.0,0.0,0.0,0.0,0.0,0.0,0.0]}]]]